Date StartTime U_cm/s V_cm/s W_cm/s Ustd_cm/s Vstd_cm/s Wstd_cm/s Uvar_(cm/s)^2 Vvar_(cm/s)^2 Wvar_(cm/s)^2 KE_(m/s)^2 TurbulentKE_(m/s)^2 HorizWindSpeed_cm/s FrictionSpeec_cm/s DragCoef SpeedOfSound_m/s SonicTemperature_C Pressure_mb 
11/15/2013  00:00:00     -177.465      228.064      -49.857       95.370      141.443       54.020     9095.521    20006.188     2918.197        5.900        1.601      288.976       52.998        0.034      336.706        8.186      855.220
11/15/2013  00:01:00     -186.911      212.704      -42.863      113.294       91.508       51.965    12835.597     8373.628     2700.369        5.296        1.195      283.159       57.727        0.042      336.646        8.084      855.204
11/15/2013  00:02:00     -149.252      298.256      -33.608      112.686      137.380       63.463    12698.102    18873.144     4027.596        7.397        1.780      333.516       58.872        0.031      336.616        8.037      855.205
11/15/2013  00:03:00      -98.490       67.253      -11.739      110.792       98.959       48.729    12274.895     9792.982     2374.516        1.940        1.222      119.261       56.560        0.225      336.636        8.071      855.204
11/15/2013  00:04:00      -43.491      206.147      -17.156       70.729       99.646       47.039     5002.657     9929.311     2212.641        3.091        0.857      210.685       43.581        0.043      336.606        8.020      855.182
11/15/2013  00:05:00      -99.329      174.330      -21.541       57.961       77.697       41.683     3359.521     6036.867     1737.458        2.593        0.557      200.642       27.315        0.019      336.556        7.936      855.179
11/15/2013  00:06:00      -77.967      114.476       -8.624       65.408       92.002       43.246     4278.155     8464.383     1870.245        1.693        0.731      138.505       40.625        0.086      336.558        7.941      855.201
11/15/2013  00:07:00     -110.246      170.195      -31.039       71.971       70.583       52.303     5179.841     4981.923     2735.555        2.749        0.645      202.782       50.352        0.062      336.518        7.872      855.208
11/15/2013  00:08:00     -112.219      159.680      -26.943      101.338      103.670       51.104    10269.456    10747.506     2611.651        3.122        1.181      195.169       65.399        0.112      336.460        7.774      855.214
11/15/2013  00:09:00     -162.376      278.177      -44.867       99.407      105.523       63.686     9881.713    11135.105     4055.963        6.541        1.254      322.100       67.518        0.044      336.393        7.660      855.216
11/15/2013  00:10:00     -124.071      244.157      -23.872      102.536      107.848       62.029    10513.698    11631.284     3847.603        5.078        1.300      273.873       65.916        0.058      336.366        7.616      855.229
11/15/2013  00:11:00      -40.962      216.021      -18.325       50.951       91.105       38.376     2595.989     8300.194     1472.706        3.052        0.618      219.870       43.506        0.039      336.366        7.617      855.229
11/15/2013  00:12:00      -41.992      328.224      -29.253       56.502      122.876       51.840     3192.497    15098.546     2687.359        6.566        1.049      330.899       61.678        0.035      336.300        7.506      855.238
11/15/2013  00:13:00      -36.811      249.667       -5.367       73.103      196.394       67.326     5344.007    38570.639     4532.802        5.607        2.422      252.367       86.122        0.116      336.298        7.504      855.250
11/15/2013  00:14:00     -124.577      303.045      -41.693      115.503      142.971       60.939    13341.015    20440.812     3713.510        7.329        1.875      327.652       61.654        0.035      336.257        7.433      855.268
11/15/2013  00:15:00     -112.983      273.548      -27.198       70.573      153.156       55.993     4980.578    23456.805     3135.220        5.995        1.579      295.962       61.710        0.043      336.231        7.391      855.278
11/15/2013  00:16:00     -144.359      230.827      -33.304       96.215      118.832       64.879     9257.313    14121.076     4209.221        5.140        1.379      272.251       61.382        0.051      336.182        7.309      855.297
11/15/2013  00:17:00     -201.971      352.160      -41.351      110.047      144.033       78.051    12110.315    20745.480     6091.994       10.273        1.947      405.967       75.028        0.034      336.151        7.257      855.289
11/15/2013  00:18:00     -139.946      338.661      -59.252      122.830      145.104       58.313    15087.257    21055.063     3400.381        8.866        1.977      366.437       54.338        0.022      336.136        7.231      855.280
11/15/2013  00:19:00      -98.212      356.881      -45.242       87.283      126.656       71.718     7618.377    16041.650     5143.516        8.392        1.440      370.149       70.417        0.036      336.104        7.180      855.261
11/15/2013  00:20:00      -91.461      264.417      -38.537      119.836      129.956       71.987    14360.640    16888.599     5182.062        5.809        1.822      279.789       72.401        0.067      336.110        7.188      855.241
11/15/2013  00:21:00     -125.343      350.766      -45.871      101.459      105.527       54.592    10294.009    11136.048     2980.336        8.263        1.221      372.488       54.725        0.022      336.061        7.108      855.223
11/15/2013  00:22:00     -134.224      345.430      -29.240      132.937      144.011       81.860    17672.352    20739.139     6701.107        9.164        2.256      370.592       82.442        0.049      336.064        7.112      855.217
11/15/2013  00:23:00     -102.224      368.459      -36.048       90.836      147.382       73.860     8251.226    21721.493     5455.241        9.146        1.771      382.377       71.954        0.035      336.057        7.099      855.200
11/15/2013  00:24:00     -129.759      281.437      -29.920      127.621      130.767       67.014    16286.998    17100.130     4490.843        6.740        1.894      309.910       62.157        0.040      336.057        7.099      855.200
11/15/2013  00:25:00     -150.269      318.835      -30.519      133.377      154.864       78.899    17789.345    23982.873     6225.044        8.657        2.400      352.472       97.174        0.076      336.040        7.072      855.224
11/15/2013  00:26:00     -126.072      453.493      -40.177       98.366      149.127       61.519     9675.802    22238.868     3784.600       12.942        1.785      470.691       65.877        0.020      336.014        7.028      855.217
11/15/2013  00:27:00     -164.233      482.188      -50.428      122.727      149.550       72.664    15061.947    22365.138     5280.087       15.236        2.135      509.390       64.687        0.016      336.006        7.016      855.195
11/15/2013  00:28:00     -187.305      447.923      -60.048      122.556      154.605       76.181    15019.924    23902.743     5803.559       14.202        2.236      485.508       75.109        0.024      336.027        7.050      855.188
11/15/2013  00:29:00     -159.660      461.831      -55.855      136.927      203.078       75.694    18749.038    41240.862     5729.549       15.380        3.286      488.650       76.323        0.024      336.047        7.084      855.228
11/15/2013  00:30:00     -177.238      305.852      -40.133      130.068      193.709       79.883    16917.758    37523.220     6381.295        9.368        3.041      353.495      101.227        0.082      336.048        7.087      855.282
11/15/2013  00:31:00     -194.297      345.222      -43.835      155.475      127.903       78.588    24172.514    16359.068     6176.047       10.277        2.335      396.144       66.507        0.028      336.034        7.061      855.245
11/15/2013  00:32:00     -169.114      271.846      -40.603      109.916      129.164       66.354    12081.463    16683.294     4402.807        6.865        1.658      320.156       63.343        0.039      336.038        7.069      855.218
11/15/2013  00:33:00     -160.700      369.398      -46.082      117.320      163.438       74.507    13763.890    26712.033     5551.311       10.521        2.301      402.839       79.754        0.039      336.011        7.025      855.233
11/15/2013  00:34:00     -164.302      311.251      -35.893      114.040      160.136       67.842    13005.066    25643.472     4602.567        8.420        2.163      351.955       51.419        0.021      336.028        7.052      855.220
11/15/2013  00:35:00     -231.802      460.962      -57.042      149.071      185.980       97.046    22222.191    34588.712     9417.930       16.784        3.311      515.963      101.363        0.039      335.963        6.944      855.241
11/15/2013  00:36:00     -169.882      296.307      -43.965      130.947      118.583       58.747    17147.128    14061.990     3451.263        7.662        1.733      341.551       59.285        0.030      335.987        6.983      855.256
11/15/2013  00:37:00     -193.665      218.247      -32.917      113.125       99.446       68.996    12797.159     9889.537     4760.505        5.683        1.372      291.784       58.349        0.040      335.984        6.978      855.281
11/15/2013  00:38:00     -231.658      385.785      -61.595      124.948      149.598       71.854    15612.116    22379.556     5162.937       12.471        2.158      449.994       69.358        0.024      335.949        6.921      855.295
11/15/2013  00:39:00     -196.956      290.458      -38.796      120.472      176.721       70.814    14513.491    31230.285     5014.639        8.770        2.538      350.938       70.490        0.040      335.981        6.973      855.305
11/15/2013  00:40:00     -203.641      423.074      -51.452      111.705      157.186       65.190    12477.941    24707.365     4249.746       13.226        2.072      469.533       62.512        0.018      335.956        6.932      855.317
11/15/2013  00:41:00     -175.080      381.291      -42.263      139.579      130.261       86.050    19482.353    16967.803     7404.589       11.083        2.193      419.567       82.740        0.039      335.948        6.917      855.350
11/15/2013  00:42:00     -143.820      241.220      -25.742      117.655      123.400       74.073    13842.660    15227.501     5486.745        5.704        1.728      280.840       69.666        0.062      335.980        6.970      855.313
11/15/2013  00:43:00      -80.349      267.745      -36.491       96.195      108.609       67.381     9253.562    11795.910     4540.192        5.253        1.279      279.541       54.554        0.038      335.969        6.954      855.330
11/15/2013  00:44:00     -154.008      420.131      -41.242      120.899      180.675       83.011    14616.551    32643.597     6890.748       12.803        2.708      447.469       91.168        0.042      336.003        7.010      855.355
11/15/2013  00:45:00     -177.265      480.552      -56.081      169.536      175.611      101.778    28742.619    30839.069    10358.661       16.771        3.497      512.205       95.598        0.035      335.984        6.978      855.397
11/15/2013  00:46:00     -188.393      421.233      -50.003      163.855      224.575       89.821    26848.524    50434.115     8067.729       15.037        4.268      461.443      100.330        0.047      336.011        7.023      855.431
11/15/2013  00:47:00     -173.084      436.873      -43.690      115.901      186.709       78.710    13432.933    34860.203     6195.245       13.860        2.724      469.910       84.078        0.032      335.983        6.977      855.448
11/15/2013  00:48:00     -165.507      387.217      -54.640      131.505      195.477       76.362    17293.610    38211.304     5831.094       12.081        3.067      421.105       84.371        0.040      335.968        6.952      855.438
11/15/2013  00:49:00     -232.728      383.006      -53.477      167.292      211.914       96.196    27986.576    44907.683     9253.734       14.292        4.107      448.169       94.211        0.044      336.011        7.023      855.429
11/15/2013  00:50:00     -270.388      432.984      -63.552      174.963      203.660       86.750    30611.997    41477.388     7525.554       17.210        3.981      510.475      103.049        0.041      336.005        7.013      855.464
11/15/2013  00:51:00     -204.986      349.417      -37.370      134.751      156.876       83.699    18157.743    24610.160     7005.559       10.763        2.489      405.107       79.415        0.038      335.982        6.976      855.450
11/15/2013  00:52:00     -174.815      351.989      -51.881      180.260      156.618       80.176    32493.805    24529.106     6428.241       11.029        3.173      393.009      100.885        0.066      335.989        6.988      855.427
11/15/2013  00:53:00     -103.376      385.902      -48.755      142.734      180.373       75.172    20372.890    32534.350     5650.891       11.026        2.928      399.508       90.479        0.051      335.960        6.939      855.403
11/15/2013  00:54:00     -127.180      399.471      -48.722      101.785      256.688       73.118    10360.197    65888.938     5346.305       12.984        4.080      419.228       97.582        0.054      335.948        6.918      855.400
11/15/2013  00:55:00     -212.622      335.332      -66.064      178.467      195.495       98.163    31850.345    38218.120     9635.941       12.085        3.985      397.059      115.273        0.084      335.946        6.915      855.423
11/15/2013  00:56:00     -113.582      421.182      -32.269      146.581      227.193       92.830    21485.879    51616.661     8617.325       13.651        4.086      436.229      107.249        0.060      335.914        6.861      855.370
11/15/2013  00:57:00     -188.491      388.838      -54.807      137.915      188.565       93.937    19020.534    35556.944     8824.230       12.655        3.170      432.116       87.092        0.041      335.919        6.869      855.359
11/15/2013  00:58:00     -139.544      360.251      -28.719      129.584      167.189       85.794    16792.114    27952.055     7360.648       10.108        2.605      386.333       85.445        0.049      335.922        6.876      855.385
11/15/2013  00:59:00      -31.027      567.643      -67.613      136.957      211.402       84.366    18757.305    44690.780     7117.542       19.914        3.528      568.490       97.356        0.029      335.868        6.784      855.361
11/15/2013  01:00:00     -174.259      368.648      -47.229      129.186      169.295       82.212    16688.986    28660.729     6758.732       11.029        2.605      407.759       83.737        0.042      335.900        6.839      855.377
11/15/2013  01:01:00      -98.038      362.456      -42.817       94.890      143.817       50.623     9004.099    20683.411     2562.724        8.753        1.613      375.481       49.061        0.017      335.894        6.828      855.401
11/15/2013  01:02:00     -205.791      393.762      -61.533      190.960      166.985       90.678    36465.680    27883.900     8222.586       13.686        3.629      444.296      103.984        0.055      335.850        6.755      855.406
11/15/2013  01:03:00     -216.413      470.393      -57.915      134.880      120.017       82.390    18192.683    14404.157     6788.129       15.541        1.969      517.788       69.096        0.018      335.830        6.722      855.422
11/15/2013  01:04:00     -169.823      392.665      -62.344      159.405      150.677       76.496    25410.059    22703.604     5851.621       12.043        2.698      427.814       80.180        0.035      335.848        6.750      855.420
11/15/2013  01:05:00     -116.584      354.901      -42.044      123.722      154.971       74.889    15307.031    24015.963     5608.311        9.311        2.247      373.559       79.894        0.046      335.813        6.694      855.412
11/15/2013  01:06:00      -55.949      432.129      -53.007       99.293      194.949       85.424     9859.040    38004.967     7297.248       12.391        2.758      435.736       95.379        0.048      335.808        6.686      855.372
11/15/2013  01:07:00     -138.587      380.462      -35.289      139.533      207.280       84.594    19469.379    42965.077     7156.088       11.738        3.480      404.917      101.741        0.063      335.810        6.688      855.378
11/15/2013  01:08:00      -99.222      507.378      -49.916      124.377      192.837       80.241    15469.534    37186.098     6438.617       16.442        2.955      516.989       91.005        0.031      335.764        6.612      855.359
11/15/2013  01:09:00      -31.084      578.805      -63.811       97.524      186.535       68.269     9510.944    34795.458     4660.672       19.450        2.448      579.639       85.140        0.022      335.754        6.594      855.325
11/15/2013  01:10:00       -9.787      287.304      -31.178       69.284       93.428       43.878     4800.278     8728.800     1925.289        4.953        0.773      287.470       39.277        0.019      335.790        6.653      855.300
11/15/2013  01:11:00      -76.710      313.293      -31.967       83.360      126.420       55.533     6948.919    15982.103     3083.869        6.553        1.301      322.548       53.500        0.028      335.789        6.652      855.303
11/15/2013  01:12:00      -50.897      332.569      -28.163      102.595      113.741       66.804    10525.674    12937.058     4462.820        7.095        1.396      336.441       56.128        0.028      335.787        6.649      855.304
11/15/2013  01:13:00     -130.912      465.734      -43.613      118.079      230.909       75.050    13942.604    53319.049     5632.480       15.441        3.645      483.783       98.453        0.041      335.770        6.621      855.325
11/15/2013  01:14:00      -80.853      407.808      -34.415       88.412      158.596       76.415     7816.675    25152.753     5839.273       10.641        1.940      415.745       82.768        0.040      335.793        6.659      855.338
11/15/2013  01:15:00      -79.758      216.628       -6.584      105.809      187.090       68.484    11195.593    35002.762     4690.032        5.210        2.544      230.844       70.142        0.092      335.832        6.725      855.373
11/15/2013  01:16:00      -87.396      244.188      -18.686       81.208      154.182       56.547     6594.748    23771.964     3197.558        5.058        1.678      259.356       64.193        0.061      335.788        6.652      855.392
11/15/2013  01:17:00     -105.917      333.515      -33.504      112.944      140.064       66.335    12756.353    19617.894     4400.325        8.017        1.839      349.930       63.947        0.033      335.784        6.644      855.404
11/15/2013  01:18:00      -94.025      229.077      -20.845      110.960      162.125       78.944    12312.037    26284.513     6232.077        5.328        2.241      247.623       68.484        0.076      335.819        6.703      855.416
11/15/2013  01:19:00     -164.329      460.238      -67.922      131.582      140.712       71.651    17313.788    19799.904     5133.878       14.283        2.112      488.695       77.306        0.025      335.761        6.606      855.438
11/15/2013  01:20:00     -111.362      343.891      -42.584      105.893      160.047       74.497    11213.405    25615.165     5549.779        8.742        2.119      361.472       77.749        0.046      335.803        6.676      855.447
11/15/2013  01:21:00     -190.699      516.860      -66.339      124.139      186.327       86.889    15410.513    34717.825     7549.724       18.278        2.884      550.917       89.756        0.027      335.791        6.657      855.458
11/15/2013  01:22:00     -143.635      435.296      -51.255      120.054      180.176       76.775    14412.930    32463.503     5894.330       13.275        2.639      458.382       90.787        0.039      335.808        6.684      855.476
11/15/2013  01:23:00      -82.220      252.056      -13.205       88.204      121.749       65.468     7779.931    14822.855     4286.032        4.867        1.344      265.127       66.573        0.063      335.887        6.817      855.493
11/15/2013  01:24:00     -107.416      370.427      -30.948      119.908      171.014       72.919    14377.985    29245.739     5317.180        9.932        2.447      385.687       76.022        0.039      335.822        6.708      855.465
11/15/2013  01:25:00     -197.845      176.596      -33.569      114.333      131.058       61.149    13072.082    17176.320     3739.234        5.271        1.699      265.195       65.739        0.061      335.831        6.724      855.459
11/15/2013  01:26:00     -115.747      419.856      -54.612      113.562      164.062       78.647    12896.378    26916.314     6185.302       11.932        2.300      435.518       77.338        0.032      335.800        6.669      855.473
11/15/2013  01:27:00     -135.629      297.026      -30.207       97.719      177.747       66.349     9549.071    31594.162     4402.233        7.653        2.277      326.526       68.638        0.044      335.844        6.746      855.503
11/15/2013  01:28:00     -151.855      278.991      -39.041      110.093      122.656       58.276    12120.489    15044.607     3396.141        6.648        1.528      317.641       62.446        0.039      335.840        6.739      855.524
11/15/2013  01:29:00     -107.016      323.664      -36.570       94.382      124.377       51.637     8907.994    15469.611     2666.411        7.229        1.352      340.897       61.902        0.033      335.820        6.705      855.545
11/15/2013  01:30:00      -61.585      435.668      -49.656      111.846      147.176       58.017    12509.518    21660.636     3366.027       11.679        1.877      440.000       55.296        0.016      335.802        6.676      855.562
11/15/2013  01:31:00     -117.877      287.640      -34.820      116.364      126.276       70.198    13540.523    15945.572     4927.754        6.612        1.721      310.857       72.574        0.055      335.836        6.730      855.562
11/15/2013  01:32:00      -87.641      204.414      -19.067       74.030      125.659       68.700     5480.394    15790.100     4719.627        3.790        1.300      222.410       76.648        0.119      335.839        6.739      855.562
11/15/2013  01:33:00      -93.111      281.400      -34.047      114.270      131.221       63.202    13057.641    17218.919     3994.457        6.164        1.714      296.404       72.998        0.061      335.826        6.716      855.549
11/15/2013  01:34:00      -53.397      329.821      -39.759       94.299       85.885       55.223     8892.348     7376.193     3049.534        6.626        0.966      334.115       34.491        0.011      335.796        6.665      855.542
11/15/2013  01:35:00     -164.507      347.953      -41.054       91.220      121.046       63.268     8321.169    14652.070     4002.885        8.839        1.349      384.882       58.030        0.023      335.797        6.668      855.542
11/15/2013  01:36:00      -90.982      180.818      -26.840       81.932      114.143       44.561     6712.772    13028.543     1985.709        3.171        1.086      202.417       41.981        0.043      335.879        6.803      855.526
11/15/2013  01:37:00     -116.747      191.260      -24.400       81.027      115.624       53.655     6565.401    13368.883     2878.855        3.680        1.141      224.077       55.649        0.062      335.868        6.786      855.526
11/15/2013  01:38:00      -49.791      303.903      -32.551       78.406      115.309       52.086     6147.433    13296.268     2713.003        5.902        1.108      307.955       46.254        0.023      335.837        6.733      855.529
11/15/2013  01:39:00      -66.361      239.401       -5.798       83.821      142.043       71.460     7025.941    20176.301     5106.477        4.702        1.615      248.428       59.239        0.057      335.869        6.786      855.546
11/15/2013  01:40:00     -125.996      277.204      -24.481       89.491      125.253       62.824     8008.585    15688.278     3946.857        6.047        1.382      304.495       64.873        0.045      335.825        6.713      855.568
11/15/2013  01:41:00     -105.954      304.553      -27.602       84.865       97.290       48.386     7202.090     9465.396     2341.238        6.187        0.950      322.457       47.952        0.022      335.851        6.757      855.578
11/15/2013  01:42:00      -87.507      288.296      -30.328       90.390       90.691       51.100     8170.277     8224.946     2611.174        5.535        0.950      301.284       50.761        0.028      335.834        6.728      855.577
11/15/2013  01:43:00     -117.224      182.216      -20.745       84.113      117.388       55.960     7075.068    13779.951     3131.564        3.568        1.199      216.665       59.059        0.074      335.866        6.781      855.582
11/15/2013  01:44:00     -105.826      184.578      -15.017       83.589      109.704       52.479     6987.062    12034.886     2754.071        3.363        1.089      212.764       55.269        0.067      335.890        6.822      855.588
11/15/2013  01:45:00      -62.119      267.234      -36.638       67.547      117.283       42.156     4562.568    13755.403     1777.160        4.835        1.005      274.358       33.141        0.015      335.857        6.766      855.589
11/15/2013  01:46:00     -129.371      238.879      -36.633       90.563      125.968       61.692     8201.662    15867.855     3805.930        5.150        1.394      271.662       53.021        0.038      335.873        6.794      855.585
11/15/2013  01:47:00     -132.348      220.623      -28.076       72.243      104.773       53.145     5219.087    10977.426     2824.430        4.300        0.951      257.275       41.904        0.027      335.872        6.792      855.566
11/15/2013  01:48:00     -125.444      221.151      -29.048       81.828      118.968       57.374     6695.792    14153.487     3291.763        4.481        1.207      254.252       52.031        0.042      335.855        6.763      855.544
11/15/2013  01:49:00     -204.285      274.425      -42.746      109.643      136.481       65.892    12021.535    18627.077     4341.713        7.692        1.750      342.113       70.393        0.042      335.821        6.706      855.541
11/15/2013  01:50:00      -97.243      259.616      -27.190       91.103      100.593       48.449     8299.713    10119.024     2347.322        4.918        1.038      277.231       46.520        0.028      335.836        6.730      855.521
11/15/2013  01:51:00      -76.988      404.282      -46.856       87.302      156.214       53.599     7621.565    24402.833     2872.858       10.322        1.745      411.547       68.260        0.028      335.765        6.613      855.510
11/15/2013  01:52:00     -103.866      278.783      -37.593       85.128      104.606       54.625     7246.778    10942.417     2983.930        5.554        1.059      297.503       52.254        0.031      335.821        6.706      855.496
11/15/2013  01:53:00     -175.649      295.194      -32.612      107.744       89.506       57.178    11608.668     8011.348     3269.321        7.097        1.144      343.500       50.920        0.022      335.823        6.709      855.494
11/15/2013  01:54:00      -74.177      292.270      -30.481       89.407      120.206       52.753     7993.692    14449.376     2782.880        5.853        1.261      301.536       48.855        0.026      335.830        6.720      855.491
11/15/2013  01:55:00     -128.855      233.515      -31.227      113.426      121.121       59.155    12865.453    14670.335     3499.257        5.157        1.552      266.708       62.327        0.055      335.823        6.709      855.495
11/15/2013  01:56:00      -52.708      212.173      -14.848       79.299       90.264       52.241     6288.375     8147.595     2729.128        3.259        0.858      218.622       49.387        0.051      335.851        6.756      855.492
11/15/2013  01:57:00      -72.187      175.324      -24.497       44.911       75.986       28.973     2016.983     5773.850      839.431        2.259        0.432      189.604       28.354        0.022      335.882        6.809      855.507
11/15/2013  01:58:00      -64.156      235.063      -25.664       56.750      101.530       43.685     3220.545    10308.287     1908.341        3.773        0.772      243.661       44.506        0.033      335.842        6.741      855.508
11/15/2013  01:59:00     -132.668      306.178      -42.117       86.167      134.099       53.088     7424.797    17982.440     2818.293        7.067        1.411      333.685       49.161        0.022      335.773        6.626      855.501
11/15/2013  02:00:00     -115.546      262.954      -29.424       79.077       94.133       47.768     6253.143     8861.037     2281.815        5.038        0.870      287.221       41.013        0.020      335.775        6.630      855.514
11/15/2013  02:01:00     -119.109      240.121      -26.589       82.237      128.852       57.185     6762.975    16602.774     3270.148        4.959        1.332      268.040       55.263        0.043      335.766        6.615      855.519
11/15/2013  02:02:00     -104.760      159.628      -13.650       94.113      108.930       50.055     8857.219    11865.824     2505.468        2.993        1.161      190.934       56.845        0.089      335.832        6.725      855.536
11/15/2013  02:03:00     -173.164      186.566      -33.745       83.126       98.065       53.429     6909.955     9616.820     2854.615        4.265        0.969      254.544       44.810        0.031      335.747        6.584      855.543
11/15/2013  02:04:00     -121.639      252.578      -26.077      126.586      132.018       61.932    16024.098    17428.766     3835.635        5.827        1.864      280.342       55.494        0.039      335.745        6.582      855.558
11/15/2013  02:05:00      -61.675      168.518       -9.001       82.935      102.470       56.487     6878.209    10500.087     3190.805        2.642        1.028      179.450       56.935        0.101      335.792        6.659      855.561
11/15/2013  02:06:00     -135.302      166.680      -27.399      108.967      102.148       61.138    11873.727    10434.230     3737.821        3.644        1.302      214.683       57.023        0.071      335.742        6.576      855.579
11/15/2013  02:07:00     -167.489      291.655      -27.965      125.809      131.945       71.938    15827.840    17409.411     5175.066        7.615        1.921      336.326       74.605        0.049      335.645        6.413      855.591
11/15/2013  02:08:00      -87.953      146.042      -16.949       85.194       85.989       53.901     7257.991     7394.163     2905.271        2.345        0.878      170.482       47.581        0.078      335.665        6.448      855.617
11/15/2013  02:09:00      -29.027      240.948      -18.117       64.499       98.526       53.345     4160.171     9707.431     2845.731        3.797        0.836      242.690       47.409        0.038      335.661        6.440      855.626
11/15/2013  02:10:00      -42.651      208.910      -10.545       65.032      169.575       53.312     4229.195    28755.729     2842.167        4.069        1.791      213.220       78.551        0.136      335.664        6.447      855.634
11/15/2013  02:11:00      -35.396      151.042       -9.697       51.490       97.871       46.686     2651.218     9578.699     2179.539        1.928        0.720      155.134       53.494        0.119      335.678        6.470      855.640
11/15/2013  02:12:00       20.489      113.585       -0.627       71.108       82.663       46.242     5056.403     6833.123     2138.362        1.367        0.701      115.418       38.921        0.114      335.718        6.538      855.656
11/15/2013  02:13:00       -2.287       73.676       11.637       82.409       72.103       43.058     6791.226     5198.910     1854.002        0.970        0.692       73.712       48.669        0.436      335.671        6.460      855.671
11/15/2013  02:14:00      -64.491      233.838      -15.377       71.798      100.030       51.690     5154.989    10006.071     2671.827        3.845        0.892      242.568       56.825        0.055      335.635        6.397      855.694
11/15/2013  02:15:00      -25.204      140.414      -20.731       59.864       60.283       30.854     3583.667     3634.072      951.942        1.447        0.408      142.658       12.684        0.008      335.707        6.518      855.709
11/15/2013  02:16:00      -32.799      226.377      -15.219       85.174      121.434       60.001     7254.689    14746.210     3600.089        3.907        1.280      228.741       60.299        0.069      335.625        6.381      855.713
11/15/2013  02:17:00     -117.804      224.248      -30.134       79.050       93.069       48.453     6248.913     8661.762     2347.702        4.116        0.863      253.308       37.516        0.022      335.631        6.390      855.706
11/15/2013  02:18:00     -102.650      186.529      -26.645       63.493       83.239       38.092     4031.317     6928.667     1451.000        2.922        0.621      212.908       32.972        0.024      335.604        6.346      855.706
11/15/2013  02:19:00     -117.841      182.111      -34.936       57.833       82.697       40.131     3344.675     6838.724     1610.468        3.003        0.590      216.912       44.332        0.042      335.595        6.331      855.706
11/15/2013  02:20:00      -29.380      231.890      -20.565       64.981       86.773       53.909     4222.547     7529.582     2906.208        3.486        0.733      233.744       42.232        0.033      335.618        6.368      855.701
11/15/2013  02:21:00      -61.854      228.651      -31.318       70.166       98.853       37.264     4923.229     9771.873     1388.613        3.658        0.804      236.869       37.911        0.026      335.613        6.359      855.707
11/15/2013  02:22:00     -105.118      179.211      -21.138       76.450       88.634       45.424     5844.634     7856.023     2063.297        2.969        0.788      207.766       42.631        0.042      335.610        6.356      855.727
11/15/2013  02:23:00      -63.830      162.860       -9.725       87.675      101.623       49.342     7686.858    10327.264     2434.672        2.557        1.022      174.922       42.748        0.060      335.616        6.366      855.728
11/15/2013  02:24:00     -140.465      150.876      -38.262       57.871       74.486       35.227     3349.079     5548.099     1240.971        2.705        0.507      206.141       39.725        0.037      335.594        6.328      855.738
11/15/2013  02:25:00     -131.317       90.781      -19.571       69.577       54.247       37.657     4840.921     2942.694     1418.084        1.753        0.460      159.641       35.989        0.051      335.562        6.277      855.729
11/15/2013  02:26:00     -188.440      140.173      -33.779       82.182       70.953       49.253     6753.919     5034.298     2425.832        3.525        0.711      234.858       38.911        0.027      335.529        6.221      855.724
11/15/2013  02:27:00     -163.588      185.050      -20.643       84.100       95.513       62.389     7072.791     9122.776     3892.356        4.076        1.004      246.991       57.178        0.054      335.497        6.168      855.708
11/15/2013  02:28:00     -136.033      151.141      -29.126       78.326       90.234       54.104     6134.931     8142.245     2927.253        2.970        0.860      203.343       46.967        0.053      335.532        6.226      855.698
11/15/2013  02:29:00     -127.255      141.562      -20.104       59.127       71.578       43.280     3495.990     5123.427     1873.158        2.356        0.525      190.351       30.755        0.026      335.546        6.250      855.698
11/15/2013  02:30:00      -84.752       80.321        0.358       75.867       47.191       45.331     5755.838     2226.954     2054.943        1.183        0.502      116.767       33.621        0.083      335.548        6.254      855.706
11/15/2013  02:31:00     -143.129      159.079      -30.493       62.389       56.400       42.012     3892.415     3180.927     1765.044        2.778        0.442      213.990       33.131        0.024      335.507        6.185      855.719
11/15/2013  02:32:00     -141.767      183.302      -29.022       75.163       94.468       51.994     5649.512     8924.184     2703.424        3.590        0.864      231.727       45.376        0.038      335.485        6.147      855.732
11/15/2013  02:33:00     -134.064      205.568      -21.274       89.188       94.258       55.655     7954.578     8884.478     3097.478        4.031        0.997      245.421       50.690        0.043      335.453        6.094      855.742
11/15/2013  02:34:00      -90.483      167.437       -0.664      112.652      126.709       57.514    12690.469    16055.181     3307.807        3.413        1.603      190.322       55.353        0.085      335.486        6.151      855.746
11/15/2013  02:35:00     -131.695      182.469      -22.984       76.955       89.058       46.616     5922.015     7931.293     2173.091        3.359        0.801      225.030       41.370        0.034      335.444        6.079      855.759
11/15/2013  02:36:00     -218.695      223.515      -46.776      112.604      103.104       57.348    12679.569    10630.464     3288.836        6.328        1.330      312.709       52.612        0.028      335.366        5.949      855.774
11/15/2013  02:37:00     -135.267      127.710       -9.167      104.533      110.074       61.883    10927.111    12116.280     3829.544        3.078        1.344      186.030       52.671        0.080      335.410        6.023      855.795
11/15/2013  02:38:00     -122.341      178.960      -19.352      133.154      120.728       72.297    17729.944    14575.326     5226.888        4.244        1.877      216.781       80.780        0.139      335.398        6.002      855.821
11/15/2013  02:39:00     -151.600      269.844      -26.662      132.244      139.850       79.252    17488.372    19558.043     6280.863        6.991        2.166      309.514       86.295        0.078      335.340        5.906      855.844
11/15/2013  02:40:00     -179.208      203.324      -25.375      106.244      108.088       63.074    11287.736    11683.002     3978.335        5.052        1.347      271.028       58.380        0.046      335.328        5.885      855.845
11/15/2013  02:41:00      -85.528      176.408      -20.047      100.611       76.406       48.241    10122.530     5837.806     2327.148        2.856        0.914      196.048       35.868        0.033      335.362        5.944      855.856
11/15/2013  02:42:00     -136.536      135.849       -4.831       94.482       99.315       62.883     8926.775     9863.496     3954.247        2.993        1.137      192.606       51.665        0.072      335.331        5.892      855.858
11/15/2013  02:43:00      -65.452      184.327      -13.773       68.428      119.701       56.999     4682.388    14328.334     3248.866        3.035        1.113      195.603       69.789        0.127      335.340        5.907      855.866
11/15/2013  02:44:00     -131.972      144.332      -11.827       99.764      107.772       51.685     9952.764    11614.736     2671.322        3.131        1.212      195.572       50.852        0.068      335.316        5.865      855.881
11/15/2013  02:45:00     -159.606      205.415      -27.986      116.627       89.556       63.042    13601.806     8020.211     3974.250        4.702        1.280      260.133       52.091        0.040      335.257        5.766      855.886
11/15/2013  02:46:00      -55.704      253.124      -13.680       79.080      136.126       62.007     6253.608    18530.351     3844.924        4.799        1.431      259.180       71.030        0.075      335.261        5.774      855.882
11/15/2013  02:47:00     -104.335      202.893      -15.840       76.637      113.402       53.316     5873.298    12860.067     2842.557        3.693        1.079      228.148       52.242        0.052      335.306        5.849      855.873
11/15/2013  02:48:00     -117.675      136.391       -6.569       81.720       94.781       44.788     6678.078     8983.346     2005.961        2.508        0.883      180.139       52.872        0.086      335.278        5.804      855.870
11/15/2013  02:49:00      -75.451      151.848      -12.058       63.079       92.361       45.108     3978.974     8530.596     2034.716        2.172        0.727      169.560       49.902        0.087      335.306        5.852      855.859
11/15/2013  02:50:00      -89.981      192.057      -21.635       74.660      101.260       39.867     5574.121    10253.534     1589.350        3.143        0.871      212.090       49.873        0.055      335.273        5.796      855.835
11/15/2013  02:51:00     -117.125      235.921      -19.286       98.587      105.929       65.072     9719.306    11220.993     4234.378        4.746        1.259      263.395       56.040        0.045      335.228        5.720      855.813
11/15/2013  02:52:00     -126.335      157.512      -22.765       68.463       72.990       50.986     4687.190     5327.500     2599.594        2.695        0.631      201.917       51.006        0.064      335.198        5.671      855.805
11/15/2013  02:53:00     -142.499      331.942      -37.260      104.745      131.193       60.911    10971.540    17211.618     3710.132        8.188        1.595      361.236       64.422        0.032      335.152        5.593      855.796
11/15/2013  02:54:00     -117.462      245.380      -22.641       84.439      156.206       49.119     7130.025    24400.366     2412.691        5.423        1.697      272.045       66.719        0.060      335.156        5.601      855.786
11/15/2013  02:55:00     -122.236      249.335      -33.389       81.107      156.745       51.501     6578.424    24569.002     2652.324        5.601        1.690      277.686       44.289        0.025      335.182        5.645      855.771
11/15/2013  02:56:00     -224.641      210.115      -51.073      106.451      127.875       67.821    11331.826    16352.051     4599.654        6.475        1.614      307.591       66.689        0.047      335.128        5.553      855.758
11/15/2013  02:57:00     -169.638      232.160      -32.255      101.646       96.301       61.160    10331.836     9273.914     3740.535        5.353        1.167      287.534       61.748        0.046      335.084        5.481      855.760
11/15/2013  02:58:00     -137.274      200.546      -34.845       80.534       97.764       58.767     6485.658     9557.804     3453.585        3.988        0.975      243.028       51.123        0.044      335.084        5.482      855.749
11/15/2013  02:59:00     -155.009      258.366      -41.211       71.616       92.724       47.044     5128.912     8597.823     2213.181        5.421        0.797      301.299       39.458        0.017      335.078        5.471      855.729
11/15/2013  03:00:00     -177.179      211.522      -28.958      104.931      144.208       57.368    11010.449    20795.917     3291.140        5.603        1.755      275.924       51.204        0.034      335.074        5.465      855.710
11/15/2013  03:01:00     -159.423      239.193      -36.097      114.910      129.771       71.077    13204.402    16840.520     5051.932        5.951        1.755      287.452       84.565        0.087      335.080        5.475      855.695
11/15/2013  03:02:00      -77.584      255.355      -20.695       65.934       91.870       46.269     4347.252     8440.158     2140.796        4.329        0.746      266.881       40.716        0.023      335.056        5.434      855.689
11/15/2013  03:03:00      -93.692      152.822       -9.084      110.475      117.381       58.339    12204.783    13778.398     3403.450        3.080        1.469      179.256       56.073        0.098      335.098        5.507      855.687
11/15/2013  03:04:00     -122.333      217.198      -20.312       93.501      116.466       56.947     8742.455    13564.429     3243.015        4.405        1.277      249.280       50.654        0.041      335.067        5.453      855.680
11/15/2013  03:05:00     -101.175      190.117      -20.626       71.187       94.873       53.283     5067.654     9000.833     2839.034        3.185        0.845      215.362       48.636        0.051      335.043        5.414      855.682
11/15/2013  03:06:00     -178.590      285.302      -47.115       95.794      125.127       62.995     9176.528    15656.774     3968.309        7.215        1.440      336.588       56.222        0.028      334.964        5.282      855.674
11/15/2013  03:07:00     -160.766      270.374      -35.617      129.338      106.181       65.587    16728.236    11274.467     4301.643        6.625        1.615      314.560       65.598        0.043      334.998        5.338      855.660
11/15/2013  03:08:00     -142.327      293.618      -43.464       93.047      117.535       64.099     8657.828    13814.396     4108.626        6.746        1.329      326.295       65.794        0.041      334.990        5.324      855.658
11/15/2013  03:09:00     -160.496      260.700      -29.476       90.642      117.441       60.696     8216.034    13792.315     3683.960        6.014        1.285      306.143       63.238        0.043      334.972        5.295      855.664
11/15/2013  03:10:00      -94.216      263.946      -26.963      100.159      104.453       52.247    10031.857    10910.507     2729.735        5.147        1.184      280.258       58.815        0.044      335.050        5.425      855.679
11/15/2013  03:11:00      -72.702      292.275      -28.886       94.407      103.250       50.340     8912.756    10660.629     2534.075        5.682        1.105      301.181       38.591        0.016      335.001        5.343      855.697
11/15/2013  03:12:00      -79.279      275.894      -15.842       84.574      139.692       60.004     7152.776    19513.785     3600.424        5.645        1.513      287.059       67.460        0.055      335.019        5.372      855.703
11/15/2013  03:13:00     -100.132      181.593      -22.092       88.474       97.929       45.075     7827.730     9590.187     2031.719        3.147        0.972      207.370       34.260        0.027      335.057        5.436      855.719
11/15/2013  03:14:00     -208.803      191.483      -39.158      114.606       92.727       65.476    13134.488     8598.371     4287.094        5.390        1.301      283.310       58.263        0.042      334.961        5.277      855.726
11/15/2013  03:15:00      -90.271      299.553      -36.509       96.833      114.805       60.842     9376.661    13180.163     3701.741        6.273        1.313      312.859       51.129        0.027      334.950        5.258      855.697
11/15/2013  03:16:00     -160.981      349.955      -45.532      113.561      105.984       60.024    12896.190    11232.641     3602.923        8.909        1.387      385.206       55.518        0.021      334.935        5.232      855.670
11/15/2013  03:17:00     -134.882      305.004      -44.717       92.001      124.230       56.394     8464.145    15433.092     3180.321        7.014        1.354      333.497       51.206        0.024      334.962        5.278      855.652
11/15/2013  03:18:00     -161.791      303.276      -53.474      100.640       78.545       55.288    10128.321     6169.367     3056.785        7.018        0.968      343.733       47.715        0.019      334.927        5.220      855.644
11/15/2013  03:19:00     -140.038      237.887      -23.949       82.932       85.355       55.135     6877.737     7285.394     3039.898        4.699        0.860      276.045       45.272        0.027      334.912        5.195      855.658
11/15/2013  03:20:00     -126.197      218.536      -21.245      103.743       92.557       75.780    10762.646     8566.715     5742.568        4.460        1.254      252.356       67.085        0.071      334.948        5.254      855.665
11/15/2013  03:21:00     -142.981      306.674      -40.645      105.231      127.332       76.592    11073.626    16213.445     5866.376        7.464        1.658      338.367       56.007        0.027      334.904        5.181      855.688
11/15/2013  03:22:00     -186.618      308.595      -35.525       99.212      106.847       59.496     9842.985    11416.305     3539.832        7.805        1.240      360.634       54.558        0.023      334.855        5.100      855.705
11/15/2013  03:23:00      -65.264      337.748      -37.007       84.620      109.634       49.651     7160.490    12019.605     2465.243        7.067        1.082      343.996       39.760        0.013      334.848        5.088      855.718
11/15/2013  03:24:00     -186.734      393.840      -49.303      106.663      122.927       66.623    11376.980    15111.009     4438.679       11.166        1.546      435.867       64.618        0.022      334.793        4.996      855.723
11/15/2013  03:25:00      -72.534      316.444      -38.931      118.114      111.498       56.118    13950.938    12431.826     3149.202        6.822        1.477      324.650       38.842        0.014      334.823        5.046      855.714
11/15/2013  03:26:00     -203.306      260.342      -42.244       94.831      159.595       68.306     8992.906    25470.601     4665.754        7.500        1.956      330.320       58.662        0.032      334.769        4.957      855.718
11/15/2013  03:27:00     -141.708      340.694      -38.518       84.624      124.467       54.120     7161.165    15492.058     2928.943        8.160        1.279      368.990       49.388        0.018      334.743        4.913      855.711
11/15/2013  03:28:00     -103.665      127.073      -20.428       63.776       68.943       44.991     4067.391     4753.122     2024.167        1.908        0.542      163.994       40.765        0.062      334.820        5.043      855.701
11/15/2013  03:29:00      -79.559      236.364      -10.638       93.251      110.516       66.089     8695.757    12213.721     4367.699        4.379        1.264      249.394       55.432        0.049      334.785        4.984      855.685
11/15/2013  03:30:00      -93.836      247.776      -19.505       86.043      106.333       64.516     7403.373    11306.643     4162.363        4.672        1.144      264.949       60.332        0.052      334.773        4.963      855.658
11/15/2013  03:31:00     -159.499      283.644      -39.509      109.711      108.554       63.853    12036.416    11783.883     4077.188        6.767        1.395      325.414       57.942        0.032      334.738        4.905      855.645
11/15/2013  03:32:00     -103.534      142.155      -25.329       83.686       74.408       60.328     7003.421     5536.603     3639.461        2.387        0.809      175.862       49.813        0.080      334.766        4.951      855.644
11/15/2013  03:33:00      -64.533      134.415      -22.017       58.898       70.971       30.903     3468.999     5036.900      955.011        1.609        0.473      149.104       28.053        0.035      334.892        5.163      855.644
11/15/2013  03:34:00     -170.176      320.233      -48.157      120.987      102.304       71.680    14637.743    10466.026     5138.000        8.203        1.512      362.642       78.934        0.047      334.679        4.805      855.664
11/15/2013  03:35:00     -120.183      301.353      -36.023       90.351      168.523       59.144     8163.354    28400.104     3497.996        7.330        2.003      324.434       46.393        0.020      334.674        4.799      855.679
11/15/2013  03:36:00     -151.011      203.549      -32.849      115.041      123.722       62.679    13234.441    15307.108     3928.612        4.889        1.624      253.449       66.793        0.069      334.700        4.841      855.698
11/15/2013  03:37:00     -188.680      289.700      -48.894      126.225      104.883       58.466    15932.695    11000.459     3418.315        7.613        1.518      345.725       55.792        0.026      334.645        4.750      855.689
11/15/2013  03:38:00     -204.392      253.027      -40.186      106.014      106.320       59.068    11239.073    11303.998     3489.004        6.672        1.302      325.267       67.805        0.043      334.638        4.739      855.680
11/15/2013  03:39:00     -152.854      197.452      -31.087       94.343      123.367       48.737     8900.658    15219.442     2375.288        4.490        1.325      249.703       36.017        0.021      334.648        4.756      855.676
11/15/2013  03:40:00     -123.788      248.469      -29.344       86.551      127.785       55.671     7491.132    16328.994     3099.236        5.241        1.346      277.597       63.277        0.052      334.707        4.852      855.690
11/15/2013  03:41:00     -127.530      279.397      -38.864       76.838      112.761       52.986     5904.143    12714.978     2807.520        5.863        1.071      307.127       41.868        0.019      334.685        4.817      855.697
11/15/2013  03:42:00     -135.020      171.912      -32.080       73.454       99.173       44.610     5395.442     9835.260     1990.021        3.301        0.861      218.596       42.420        0.038      334.710        4.859      855.705
11/15/2013  03:43:00     -110.722      185.865      -29.314       64.430       97.242       46.425     4151.179     9456.039     2155.289        3.171        0.788      216.345       46.390        0.046      334.643        4.747      855.704
11/15/2013  03:44:00      -71.854      299.007      -19.502       68.962      135.614       61.601     4755.757    18391.099     3794.732        6.094        1.347      307.519       43.867        0.020      334.667        4.786      855.685
11/15/2013  03:45:00     -147.459      216.724      -42.945      106.804      114.085       52.979    11407.119    13015.471     2806.808        4.889        1.361      262.132       63.836        0.059      334.636        4.736      855.703
11/15/2013  03:46:00     -128.903      245.242      -36.662       99.721       98.426       64.783     9944.331     9687.694     4196.777        5.096        1.191      277.056       68.651        0.061      334.620        4.709      855.725
11/15/2013  03:47:00     -135.328      287.007      -34.490       73.527      108.738       46.608     5406.202    11823.947     2172.350        6.064        0.970      317.311       42.551        0.018      334.615        4.700      855.741
11/15/2013  03:48:00      -71.503      239.376      -12.228       80.412      106.821       54.206     6466.050    11410.757     2938.307        4.168        1.041      249.827       46.732        0.035      334.670        4.791      855.760
11/15/2013  03:49:00     -126.105      286.051      -28.761      101.204      128.894       60.920    10242.298    16613.725     3711.228        6.455        1.528      312.614       59.961        0.037      334.580        4.642      855.792
11/15/2013  03:50:00      -98.101      295.294      -29.952       83.169      125.770       69.977     6917.030    15818.076     4896.757        6.267        1.382      311.162       66.564        0.046      334.568        4.622      855.816
11/15/2013  03:51:00      -51.069      174.177       -9.073       69.426       79.702       44.501     4819.900     6352.332     1980.295        2.309        0.658      181.509       43.322        0.057      334.666        4.786      855.803
11/15/2013  03:52:00      -77.969      111.389      -18.492       78.929       82.079       35.422     6229.855     6736.892     1254.716        1.652        0.711      135.966       38.748        0.081      334.672        4.797      855.804
11/15/2013  03:53:00     -124.030      189.580      -24.058       80.083      106.756       54.507     6413.307    11396.915     2971.027        3.634        1.039      226.548       51.087        0.051      334.577        4.638      855.788
11/15/2013  03:54:00      -62.434      222.674      -26.275       76.827       70.646       47.968     5902.371     4990.887     2300.967        3.368        0.660      231.262       39.192        0.029      334.594        4.664      855.781
11/15/2013  03:55:00      -47.599      276.978      -23.272       61.108       76.122       41.321     3734.143     5794.527     1707.438        4.538        0.562      281.039       37.886        0.018      334.562        4.611      855.784
11/15/2013  03:56:00     -103.459      342.328      -34.464      105.192      112.714       60.825    11065.399    12704.455     3699.622        7.827        1.373      357.620       69.129        0.037      334.482        4.481      855.818
11/15/2013  03:57:00     -101.333      328.723      -28.334       73.644       97.508       55.651     5423.511     9507.872     3096.995        6.858        0.901      343.987       56.247        0.027      334.513        4.532      855.825
11/15/2013  03:58:00      -53.854      310.358      -26.543       52.791       80.891       32.848     2786.912     6543.346     1078.993        5.517        0.520      314.996       15.510        0.002      334.512        4.529      855.835
11/15/2013  03:59:00     -166.339      264.891      -36.281      111.228      101.769       57.193    12371.676    10356.978     3270.999        6.257        1.300      312.787       41.958        0.018      334.499        4.507      855.861
11/15/2013  04:00:00     -141.626      311.380      -37.039       71.439      112.719       50.878     5103.506    12705.602     2588.540        6.939        1.020      342.076       55.296        0.026      334.485        4.484      855.892
11/15/2013  04:01:00     -181.008      209.739      -46.012       75.490       76.673       46.615     5698.719     5878.791     2172.959        4.631        0.688      277.046       48.187        0.030      334.483        4.481      855.906
11/15/2013  04:02:00     -104.218      149.262      -22.661       58.772       90.488       42.366     3454.157     8188.054     1794.845        2.354        0.672      182.045       37.874        0.043      334.553        4.597      855.898
11/15/2013  04:03:00      -50.743      154.985      -19.570       44.403       65.202       37.272     1971.656     4251.255     1389.208        1.729        0.381      163.080       36.060        0.049      334.624        4.718      855.873
11/15/2013  04:04:00      -43.099      277.959      -25.413       49.311      114.147       38.852     2431.575    13029.484     1509.501        4.836        0.849      281.280       41.379        0.022      334.541        4.580      855.862
11/15/2013  04:05:00      -52.659      235.150      -30.062       62.588       80.212       42.812     3917.203     6434.014     1832.835        3.558        0.609      240.974       41.620        0.030      334.566        4.621      855.873
11/15/2013  04:06:00      -83.859       73.393       -8.481       63.383       60.184       40.780     4017.370     3622.101     1662.968        1.089        0.465      111.439       40.511        0.132      334.618        4.710      855.884
11/15/2013  04:07:00     -157.800      326.907      -45.231       91.131      118.876       63.844     8304.784    14131.459     4076.053        8.016        1.326      363.000       60.378        0.028      334.450        4.426      855.904
11/15/2013  04:08:00      -79.975      205.808      -21.061       65.986       89.161       45.290     4354.162     7949.714     2051.212        3.177        0.718      220.801       41.344        0.035      334.549        4.592      855.903
11/15/2013  04:09:00     -100.364      147.064      -12.580       78.564       80.835       47.690     6172.289     6534.244     2274.320        2.342        0.749      178.046       36.512        0.042      334.585        4.652      855.903
11/15/2013  04:10:00     -103.268      131.943       -6.263       62.534       88.368       43.504     3910.465     7808.843     1892.618        2.086        0.681      167.551       41.990        0.063      334.517        4.540      855.896
11/15/2013  04:11:00      -98.798      217.344       -9.932       75.175       88.149       62.416     5651.340     7770.180     3895.779        3.720        0.866      238.746       62.446        0.068      334.539        4.575      855.883
11/15/2013  04:12:00     -195.413      193.694      -53.761      103.144      106.249       57.517    10638.763    11288.915     3308.162        5.191        1.262      275.143       66.116        0.058      334.457        4.439      855.864
11/15/2013  04:13:00     -125.100      277.271      -28.351       90.202      123.384       56.603     8136.342    15223.648     3203.930        5.994        1.328      304.187       56.371        0.034      334.450        4.427      855.853
11/15/2013  04:14:00     -145.700      259.585      -25.208       84.661      120.459       60.523     7167.505    14510.417     3663.089        5.729        1.267      297.679       60.561        0.041      334.441        4.413      855.849
11/15/2013  04:15:00     -163.960      264.512      -43.218       71.611      113.420       61.997     5128.143    12864.145     3843.616        6.027        1.092      311.206       58.925        0.036      334.456        4.437      855.840
11/15/2013  04:16:00     -140.924      186.548      -30.277      108.757      107.445       55.759    11828.165    11544.475     3109.012        4.102        1.324      233.794       51.503        0.049      334.504        4.516      855.837
11/15/2013  04:17:00     -102.507      356.257      -43.765      112.934      141.916       64.008    12754.005    20140.064     4097.050        8.816        1.850      370.711       63.605        0.029      334.419        4.378      855.856
11/15/2013  04:18:00     -105.672      208.174      -35.607       72.261       94.876       43.170     5221.611     9001.379     1863.655        3.593        0.804      233.459       31.645        0.018      334.517        4.538      855.875
11/15/2013  04:19:00     -149.210      267.872      -31.374       95.246      117.993       63.696     9071.762    13922.318     4057.214        6.102        1.353      306.625       59.419        0.038      334.415        4.369      855.919
11/15/2013  04:20:00     -186.940      357.335      -43.479       99.653      160.361       61.844     9930.756    25715.629     3824.622       10.199        1.974      403.280       67.164        0.028      334.356        4.270      855.919
11/15/2013  04:21:00      -94.606      350.121      -38.052       91.994      102.008       58.691     8462.828    10405.660     3444.604        7.764        1.116      362.678       43.711        0.015      334.383        4.316      855.914
11/15/2013  04:22:00     -122.398      326.027      -30.136       69.029       91.814       56.572     4764.955     8429.799     3200.411        6.929        0.820      348.246       51.976        0.022      334.375        4.303      855.899
11/15/2013  04:23:00     -105.686      270.724      -32.269       74.810       75.223       49.207     5596.514     5658.481     2421.345        4.959        0.684      290.622       37.066        0.016      334.419        4.376      855.886
11/15/2013  04:24:00      -81.685      163.457       -6.376       66.180      111.110       56.127     4379.735    12345.538     3150.265        2.665        0.994      182.731       47.854        0.069      334.542        4.581      855.843
11/15/2013  04:25:00      -87.469      258.211      -22.154       83.072      139.487       46.583     6901.021    19456.657     2170.015        5.167        1.426      272.624       42.128        0.024      334.420        4.379      855.803
11/15/2013  04:26:00     -169.047      175.938      -35.857       77.987      100.960       51.617     6081.898    10192.829     2664.332        3.987        0.947      243.990       38.796        0.025      334.374        4.300      855.791
11/15/2013  04:27:00     -120.787      226.380      -23.890       67.445       90.211       49.885     4548.881     8137.947     2488.532        4.079        0.759      256.588       41.810        0.027      334.347        4.256      855.794
11/15/2013  04:28:00      -59.406      235.825      -13.730       68.155      104.622       51.985     4645.092    10945.804     2702.436        3.881        0.915      243.193       48.741        0.040      334.410        4.363      855.798
11/15/2013  04:29:00     -138.238      222.317      -36.403       70.882       80.171       42.678     5024.226     6427.406     1821.420        4.156        0.664      261.791       43.530        0.028      334.395        4.337      855.800
11/15/2013  04:30:00     -145.063      232.177      -15.869       86.222       90.727       68.670     7434.287     8231.344     4715.632        4.779        1.019      273.769       65.472        0.057      334.328        4.225      855.805
11/15/2013  04:31:00     -114.861      158.110      -28.230       80.949       99.538       49.090     6552.681     9907.827     2409.875        2.893        0.944      195.428       53.539        0.075      334.390        4.331      855.801
11/15/2013  04:32:00      -55.556      225.282      -23.383       75.928       70.746       47.727     5765.010     5005.004     2277.912        3.371        0.652      232.031       41.898        0.033      334.380        4.313      855.791
11/15/2013  04:33:00     -115.756      260.748      -37.190       86.435       73.322       50.594     7471.087     5376.160     2559.712        4.909        0.770      285.287       40.259        0.020      334.330        4.227      855.811
11/15/2013  04:34:00      -92.148      205.383      -19.274       77.814       94.003       49.742     6055.033     8836.555     2474.276        3.420        0.868      225.108       43.739        0.038      334.355        4.270      855.829
11/15/2013  04:35:00     -161.319      236.905      -33.541       66.819       85.552       50.474     4464.840     7319.218     2547.608        4.880        0.717      286.615       48.856        0.029      334.307        4.190      855.843
11/15/2013  04:36:00      -87.832      213.851      -18.211       70.598      134.927       55.939     4984.077    18205.417     3129.211        4.004        1.316      231.186       46.019        0.040      334.367        4.291      855.853
11/15/2013  04:37:00     -121.707      315.619      -26.513       68.388      115.014       57.269     4676.977    13228.305     3279.775        6.815        1.059      338.272       56.301        0.028      334.337        4.238      855.831
11/15/2013  04:38:00     -128.425      296.035      -29.933       88.313      117.282       50.394     7799.167    13755.049     2539.583        6.455        1.205      322.691       57.215        0.031      334.344        4.253      855.803
11/15/2013  04:39:00     -163.162      245.140      -33.724       95.902       90.689       51.551     9197.234     8224.411     2657.467        5.396        1.004      294.475       54.860        0.035      334.307        4.189      855.791
11/15/2013  04:40:00      -95.860      181.358      -19.474       87.584       75.037       55.696     7670.931     5630.614     3102.013        2.943        0.820      205.133       30.768        0.022      334.352        4.265      855.778
11/15/2013  04:41:00     -116.032      161.329       -9.210       98.796       71.969       55.928     9760.558     5179.600     3127.908        2.882        0.903      198.722       51.174        0.066      334.357        4.275      855.765
11/15/2013  04:42:00      -70.046      142.491      -10.013       76.318       74.504       49.346     5824.410     5550.901     2435.014        1.956        0.691      158.777       40.062        0.064      334.377        4.309      855.769
11/15/2013  04:43:00     -155.168      253.281      -43.240       74.575       74.008       49.449     5561.443     5477.195     2445.198        5.179        0.674      297.033       52.231        0.031      334.313        4.199      855.779
11/15/2013  04:44:00     -109.855      187.279      -14.760       79.709      106.364       45.742     6353.490    11313.212     2092.374        3.356        0.988      217.121       37.802        0.030      334.360        4.279      855.812
11/15/2013  04:45:00     -124.567      251.904      -34.493       72.295       88.308       50.199     5226.609     7798.361     2519.957        4.785        0.777      281.021       45.309        0.026      334.284        4.151      855.842
11/15/2013  04:46:00     -161.293      289.912      -40.647       90.617      103.778       59.526     8211.395    10769.805     3543.316        6.712        1.126      331.759       52.703        0.025      334.257        4.105      855.850
11/15/2013  04:47:00      -88.336      139.586      -11.583       51.920       81.080       42.741     2695.707     6574.040     1826.809        1.926        0.555      165.189       49.313        0.089      334.379        4.312      855.848
11/15/2013  04:48:00     -127.373      216.938      -30.390       82.768       90.291       57.032     6850.611     8152.399     3252.600        4.123        0.913      251.567       48.939        0.038      334.336        4.239      855.854
11/15/2013  04:49:00     -108.385      173.314      -26.617       49.265       74.845       38.021     2427.030     5601.781     1445.628        2.598        0.474      204.414       29.120        0.020      334.359        4.277      855.859
11/15/2013  04:50:00     -118.887      217.086      -29.977       64.054       67.992       40.030     4102.853     4622.848     1602.407        3.624        0.516      247.508       27.375        0.012      334.399        4.342      855.873
11/15/2013  04:51:00     -126.934      280.717      -30.780       82.599      111.486       51.706     6822.561    12429.036     2673.467        5.889        1.096      308.082       52.395        0.029      334.319        4.208      855.868
11/15/2013  04:52:00     -118.887      181.909      -18.557       87.823      150.974       55.221     7712.805    22793.060     3049.376        4.056        1.678      217.314       57.682        0.070      334.353        4.266      855.872
11/15/2013  04:53:00     -128.993      258.347      -33.603      106.762      108.174       55.619    11398.206    11701.640     3093.515        5.535        1.310      288.760       60.147        0.043      334.332        4.231      855.891
11/15/2013  04:54:00      -91.489      114.589      -10.899       75.416       69.775       43.248     5687.504     4868.613     1870.394        1.702        0.621      146.632       31.557        0.046      334.352        4.267      855.911
11/15/2013  04:55:00     -129.296      238.883      -37.887       89.822       90.434       51.341     8067.993     8178.293     2635.904        4.705        0.944      271.629       50.362        0.034      334.339        4.244      855.919
11/15/2013  04:56:00      -67.773      149.121       -4.011       74.673       67.677       50.551     5576.006     4580.115     2555.389        1.978        0.636      163.800       45.203        0.076      334.453        4.433      855.928
11/15/2013  04:57:00      -92.833      174.107      -19.389       75.964      106.488       57.534     5770.482    11339.612     3310.204        2.986        1.021      197.310       58.387        0.088      334.392        4.333      855.929
11/15/2013  04:58:00     -153.597      135.828      -32.083       89.472      104.279       47.336     8005.313    10874.065     2240.721        3.209        1.056      205.040       52.265        0.065      334.293        4.168      855.932
11/15/2013  04:59:00     -187.790      105.719      -17.087      125.197       95.664       57.583    15674.169     9151.649     3315.854        3.743        1.407      215.503       59.923        0.077      334.307        4.189      855.939
11/15/2013  05:00:00      -83.544      120.007      -13.033       57.439       71.375       42.362     3299.294     5094.398     1794.552        1.587        0.509      146.223       40.204        0.076      334.347        4.258      855.941
11/15/2013  05:01:00     -128.156      127.894      -25.328       78.513       82.002       34.570     6164.314     6724.331     1195.057        2.375        0.704      181.055       30.533        0.028      334.355        4.270      855.933
11/15/2013  05:02:00     -141.645       58.484      -12.472      119.755      100.295       57.303    14341.358    10059.080     3283.666        2.566        1.384      153.244       59.615        0.151      334.355        4.271      855.924
11/15/2013  05:03:00     -162.940      175.298      -31.644      111.729       86.168       50.789    12483.362     7424.843     2579.539        4.038        1.124      239.330       47.122        0.039      334.313        4.200      855.922
11/15/2013  05:04:00     -122.491      104.828        5.229      114.633       91.707       54.300    13140.650     8410.109     2948.509        2.525        1.225      161.224       57.919        0.129      334.343        4.251      855.916
11/15/2013  05:05:00      -80.175      183.602      -16.806       73.826       96.005       47.532     5450.311     9217.039     2259.252        2.867        0.846      200.344       51.936        0.067      334.417        4.372      855.913
11/15/2013  05:06:00      -88.403      173.188      -16.522       65.326      103.512       50.581     4267.528    10714.637     2558.395        2.781        0.877      194.446       44.953        0.053      334.335        4.237      855.910
11/15/2013  05:07:00      -98.796      150.977      -16.059       51.165       64.972       39.638     2617.828     4221.368     1571.200        2.061        0.421      180.429       31.055        0.030      334.346        4.256      855.906
11/15/2013  05:08:00      -92.961      136.149      -27.175       64.485       88.766       43.428     4158.333     7879.446     1885.963        2.092        0.696      164.859       46.696        0.080      334.309        4.196      855.908
11/15/2013  05:09:00      -85.606      202.934      -22.994       65.722       90.690       46.278     4319.395     8224.758     2141.629        3.186        0.734      220.251       45.482        0.043      334.317        4.208      855.878
11/15/2013  05:10:00     -110.753      266.522      -16.500       81.218       89.105       47.732     6596.375     7939.703     2278.325        5.019        0.841      288.618       50.580        0.031      334.282        4.147      855.856
11/15/2013  05:11:00      -92.836      147.289      -15.511       58.176       75.025       40.524     3384.414     5628.774     1642.194        2.060        0.533      174.105       43.884        0.064      334.258        4.110      855.862
11/15/2013  05:12:00      -61.741       73.840       -5.015       52.726       49.697       41.213     2780.015     2469.777     1698.536        0.812        0.347       96.251       29.962        0.097      334.339        4.247      855.869
11/15/2013  05:13:00      -31.879       54.299        2.422       37.675       53.037       42.026     1419.378     2812.940     1766.170        0.498        0.300       62.966       28.005        0.198      334.321        4.218      855.877
11/15/2013  05:14:00      -85.421      128.522      -22.960       70.118       69.471       38.574     4916.504     4826.203     1487.987        1.778        0.562      154.321       30.804        0.040      334.307        4.192      855.872
11/15/2013  05:15:00     -101.913      177.502      -28.515       85.666       90.777       50.934     7338.744     8240.514     2594.255        3.044        0.909      204.679       56.401        0.076      334.243        4.084      855.864
11/15/2013  05:16:00      -72.592      206.603      -16.339       62.362       89.932       41.410     3889.000     8087.680     1714.805        3.095        0.685      218.985       46.328        0.045      334.247        4.092      855.854
11/15/2013  05:17:00      -95.380      131.207      -10.267       78.736       56.601       40.454     6199.292     3203.665     1636.555        1.873        0.552      162.212       37.868        0.054      334.259        4.113      855.852
11/15/2013  05:18:00       30.090      150.620       -5.177       70.876       62.072       48.004     5023.363     3852.980     2304.355        1.740        0.559      153.596       40.077        0.068      334.299        4.178      855.845
11/15/2013  05:19:00      -12.023       90.097        7.551       54.003       70.380       36.023     2916.364     4953.352     1297.646        0.874        0.458       90.896       40.933        0.203      334.389        4.329      855.849
11/15/2013  05:20:00       51.484      152.670       -3.994       54.823      110.736       46.078     3005.614    12262.458     2123.224        2.168        0.870      161.117       45.294        0.079      334.310        4.196      855.849
11/15/2013  05:21:00       62.623      176.766      -10.511       55.908       72.372       51.162     3125.759     5237.723     2617.510        2.313        0.549      187.531       43.367        0.053      334.248        4.092      855.864
11/15/2013  05:22:00       92.331       48.768       14.388       52.334       51.194       41.044     2738.804     2620.788     1684.636        0.908        0.352      104.419       34.116        0.107      334.246        4.093      855.872
11/15/2013  05:23:00       42.349      102.254        2.779       44.413       69.327       42.368     1972.493     4806.201     1795.077        1.041        0.429      110.677       43.804        0.157      334.258        4.112      855.875
11/15/2013  05:24:00       84.087       52.927       28.649       48.968       34.815       46.899     2397.887     1212.075     2199.539        0.825        0.290       99.357       33.626        0.115      334.245        4.091      855.883
11/15/2013  05:25:00       30.316       15.220       19.188       57.828       27.866       25.832     3344.030      776.505      667.295        0.315        0.239       33.922       20.224        0.355      334.325        4.225      855.892
11/15/2013  05:26:00       66.016       80.820      -16.434       75.834       50.460       35.597     5750.768     2546.222     1267.129        1.036        0.478      104.355       32.710        0.098      334.254        4.107      855.894
11/15/2013  05:27:00        7.701      101.553      -11.171       45.582       54.703       33.416     2077.698     2992.437     1116.627        0.834        0.309      101.844       36.439        0.128      334.325        4.224      855.898
11/15/2013  05:28:00       33.165       94.224       -8.895       70.446       59.411       36.672     4962.695     3529.678     1344.844        0.995        0.492       99.890       32.020        0.103      334.303        4.187      855.905
11/15/2013  05:29:00      -39.513      149.165      -16.373       46.226       56.800       32.248     2136.864     3226.277     1039.952        1.524        0.320      154.309       31.980        0.043      334.377        4.308      855.912
11/15/2013  05:30:00        3.712       63.148        9.451       46.568       37.232       25.941     2168.582     1386.228      672.933        0.416        0.211       63.257       19.817        0.098      334.356        4.275      855.904
11/15/2013  05:31:00      -19.379      118.507       -5.476       55.472       59.282       34.679     3077.126     3514.403     1202.645        1.112        0.390      120.082       27.259        0.052      334.308        4.194      855.906
11/15/2013  05:32:00      -33.024      117.516        0.665       62.115       68.420       52.392     3858.262     4681.283     2744.873        1.309        0.564      122.068       47.260        0.150      334.364        4.287      855.906
11/15/2013  05:33:00      -33.470      158.924       -9.120       80.044      126.843       46.464     6407.063    16089.036     2158.928        2.555        1.233      162.410       53.407        0.108      334.354        4.270      855.905
11/15/2013  05:34:00     -129.279      178.437      -35.194       75.478       77.501       42.863     5696.928     6006.431     1837.247        3.166        0.677      220.347       43.572        0.039      334.292        4.167      855.921
11/15/2013  05:35:00      -85.958      221.023      -31.774       80.781       81.787       40.429     6525.513     6689.175     1634.530        3.605        0.742      237.150       36.654        0.024      334.340        4.243      855.907
11/15/2013  05:36:00      -40.803      123.176       -7.926       91.280       69.651       45.027     8332.022     4851.271     2027.394        1.605        0.761      129.758       50.835        0.153      334.356        4.274      855.897
11/15/2013  05:37:00      -78.005      130.268       -8.398       62.833       96.077       44.996     3947.978     9230.768     2024.655        1.916        0.760      151.837       48.914        0.104      334.393        4.335      855.886
11/15/2013  05:38:00      -80.346      265.268      -28.023       57.558       96.321       38.608     3312.951     9277.789     1490.565        4.584        0.704      277.169       35.718        0.017      334.316        4.205      855.888
11/15/2013  05:39:00      -47.222      200.655      -17.715       64.554       94.668       38.330     4167.182     8961.959     1469.189        2.870        0.730      206.136       41.250        0.040      334.401        4.346      855.887
11/15/2013  05:40:00     -154.345      121.743      -23.200       76.782       84.011       50.252     5895.497     7057.930     2525.275        2.733        0.774      196.580       47.490        0.058      334.360        4.278      855.886
11/15/2013  05:41:00      -71.658      141.333      -18.632       60.388       88.074       41.279     3646.762     7757.040     1703.969        1.928        0.655      158.461       32.581        0.042      334.426        4.388      855.886
11/15/2013  05:42:00      -45.236      208.612      -17.574       62.177       90.899       41.863     3865.962     8262.683     1752.516        2.987        0.694      213.460       43.230        0.041      334.448        4.424      855.877
11/15/2013  05:43:00     -106.114      277.675      -35.572       94.188       90.796       48.183     8871.302     8243.989     2321.590        5.453        0.972      297.260       45.685        0.024      334.332        4.232      855.875
11/15/2013  05:44:00      -92.241      162.909      -20.594       82.849      122.445       52.615     6863.904    14992.768     2768.317        3.004        1.231      187.211       47.860        0.065      334.411        4.365      855.882
11/15/2013  05:45:00     -103.767      143.126      -13.768       75.179       81.303       49.946     5651.817     6610.146     2494.591        2.310        0.738      176.784       54.020        0.093      334.415        4.371      855.891
11/15/2013  05:46:00     -149.579      171.683      -35.198       75.495       72.984       50.057     5699.526     5326.664     2505.720        3.331        0.677      227.704       48.636        0.046      334.381        4.313      855.897
11/15/2013  05:47:00     -113.667      172.480      -33.517       69.584       78.687       45.033     4841.886     6191.721     2028.003        2.842        0.653      206.566       43.494        0.044      334.386        4.323      855.920
11/15/2013  05:48:00     -155.019      164.830      -27.591       70.745      130.897       38.574     5004.901    17134.136     1487.932        3.779        1.181      226.274       29.842        0.017      334.357        4.274      855.955
11/15/2013  05:49:00      -77.105      124.868      -11.914       44.470       85.407       39.330     1977.617     7294.321     1546.876        1.625        0.541      146.755       31.398        0.046      334.463        4.451      855.998
11/15/2013  05:50:00      -74.256       82.256       -7.090       46.609       57.986       30.101     2172.419     3362.343      906.092        0.938        0.322      110.815       17.677        0.025      334.511        4.531      856.030
11/15/2013  05:51:00      -92.112      135.895      -11.856       50.979       62.828       35.827     2598.850     3947.410     1283.539        1.746        0.391      164.171       24.732        0.023      334.414        4.370      856.053
11/15/2013  05:52:00      -93.661       87.323       -0.881       66.067       81.762       38.143     4364.815     6685.101     1454.883        1.445        0.625      128.054       32.684        0.065      334.468        4.458      856.063
11/15/2013  05:53:00     -181.346      140.715      -41.551       71.455       84.544       44.148     5105.862     7147.747     1949.021        3.431        0.710      229.537       40.052        0.030      334.381        4.312      856.077
11/15/2013  05:54:00      -91.719       95.171      -10.599       59.960       48.165       35.043     3595.219     2319.887     1228.017        1.236        0.357      132.174       23.785        0.032      334.423        4.385      856.076
11/15/2013  05:55:00     -107.956       87.308       -6.104       73.404       65.576       35.816     5388.186     4300.234     1282.770        1.514        0.549      138.842       29.955        0.047      334.420        4.379      856.075
11/15/2013  05:56:00     -119.546      116.939        1.910      101.015       89.935       51.909    10204.127     8088.287     2694.496        2.447        1.049      167.230       45.141        0.073      334.455        4.437      856.076
11/15/2013  05:57:00      -68.912      100.193      -11.986       38.964       49.905       32.729     1518.202     2490.535     1071.175        1.000        0.254      121.604       28.116        0.053      334.520        4.546      856.066
11/15/2013  05:58:00     -110.131      154.990      -19.073       81.383       79.440       47.256     6623.148     6310.754     2233.172        2.584        0.758      190.133       32.329        0.029      334.477        4.473      856.062
11/15/2013  05:59:00     -128.021       73.219      -15.647       66.415       56.983       36.267     4410.942     3247.092     1315.331        1.548        0.449      147.480       33.788        0.052      334.429        4.396      856.053
11/15/2013  06:00:00     -138.369      212.233      -32.787       81.991       88.484       42.969     6722.506     7829.442     1846.335        4.083        0.820      253.355       44.338        0.031      334.410        4.361      856.054
11/15/2013  06:01:00     -108.741      184.735      -35.951       52.975       61.514       38.382     2806.307     3783.965     1473.187        2.765        0.403      214.363       32.805        0.023      334.410        4.362      856.063
11/15/2013  06:02:00     -102.006      216.592      -31.602       54.913       77.012       44.980     3015.440     5930.815     2023.173        3.464        0.548      239.410       39.595        0.027      334.454        4.434      856.063
11/15/2013  06:03:00     -101.549      175.321      -18.902       55.087       68.835       43.675     3034.553     4738.198     1907.545        2.554        0.484      202.607       39.831        0.039      334.506        4.520      856.067
11/15/2013  06:04:00     -129.129      128.375      -31.465       56.624       61.287       42.333     3206.242     3756.107     1792.050        2.145        0.438      182.083       32.999        0.033      334.438        4.410      856.074
11/15/2013  06:05:00      -66.254      180.094      -19.631       56.793       75.353       33.571     3225.439     5678.149     1127.005        2.362        0.502      191.895       30.585        0.025      334.443        4.416      856.082
11/15/2013  06:06:00     -105.638      188.626      -20.936       67.652      101.987       43.040     4576.800    10401.447     1852.402        3.200        0.842      216.193       49.980        0.053      334.440        4.410      856.089
11/15/2013  06:07:00     -106.654      118.637      -18.472       66.666       59.620       34.127     4444.314     3554.500     1164.665        1.748        0.458      159.530       28.428        0.032      334.540        4.578      856.098
11/15/2013  06:08:00     -114.809      127.039      -17.325       59.896       62.926       37.291     3587.476     3959.659     1390.593        1.928        0.447      171.231       30.882        0.033      334.487        4.491      856.115
11/15/2013  06:09:00     -145.140      169.475      -39.340       50.068       57.361       31.251     2506.786     3290.264      976.608        2.905        0.339      223.131       25.721        0.013      334.422        4.381      856.130
11/15/2013  06:10:00     -128.199      196.975      -33.281       70.026       71.873       45.135     4903.599     5165.736     2037.192        3.422        0.605      235.019       37.952        0.026      334.405        4.353      856.149
11/15/2013  06:11:00     -122.782      199.004      -31.418       66.584       60.654       38.598     4433.439     3678.850     1489.818        3.263        0.480      233.834       37.245        0.025      334.421        4.381      856.155
11/15/2013  06:12:00      -91.478      146.736       -2.970       66.115       97.577       48.135     4371.187     9521.262     2316.976        2.306        0.810      172.916       55.774        0.104      334.480        4.477      856.167
11/15/2013  06:13:00      -83.299       75.843       -7.664       38.209       61.735       33.064     1459.906     3811.202     1093.211        0.956        0.318      112.654       33.436        0.088      334.506        4.522      856.174
11/15/2013  06:14:00     -104.612      171.810      -23.386       66.897       76.090       41.956     4475.161     5789.665     1760.312        2.651        0.601      201.153       35.572        0.031      334.424        4.386      856.188
11/15/2013  06:15:00      -62.839      114.627       -5.507       48.845       64.453       36.786     2385.869     4154.210     1353.207        1.250        0.395      130.721       22.608        0.030      334.481        4.481      856.189
11/15/2013  06:16:00      -53.029      184.179       -8.161       55.654      114.857       44.169     3097.417    13192.040     1950.940        2.752        0.912      191.661       54.439        0.081      334.471        4.462      856.187
11/15/2013  06:17:00      -51.829      106.383       -5.816       65.073       53.823       37.925     4234.554     2896.968     1438.272        1.130        0.428      118.337       30.362        0.066      334.500        4.514      856.191
11/15/2013  06:18:00     -136.948      139.554      -35.751       68.279       62.581       35.807     4662.075     3916.375     1282.150        2.468        0.493      195.525       28.759        0.022      334.408        4.359      856.191
11/15/2013  06:19:00     -115.389      160.625      -26.494       66.129       95.042       41.226     4373.005     9033.047     1699.556        2.746        0.755      197.775       50.871        0.066      334.399        4.344      856.188
11/15/2013  06:20:00     -102.936      169.309      -17.638       70.745       64.951       48.360     5004.814     4218.598     2338.678        2.556        0.578      198.145       40.186        0.041      334.384        4.318      856.199
11/15/2013  06:21:00     -119.859      276.938      -38.371       70.817       65.555       42.050     5015.047     4297.515     1768.188        5.180        0.554      301.763       39.371        0.017      334.358        4.272      856.205
11/15/2013  06:22:00     -164.677      193.575      -44.284       58.726       53.420       37.244     3448.754     2853.717     1387.124        3.712        0.384      254.145       27.825        0.012      334.362        4.279      856.210
11/15/2013  06:23:00     -135.080       85.516      -22.549       42.860       57.771       42.668     1836.969     3337.516     1820.544        1.653        0.350      159.873       37.270        0.054      334.333        4.236      856.229
11/15/2013  06:24:00      -80.321      144.484      -12.312       45.234       65.027       37.792     2046.125     4228.493     1428.200        1.759        0.385      165.309       32.702        0.039      334.394        4.336      856.252
11/15/2013  06:25:00     -134.132      125.786      -23.081       64.641       55.444       39.185     4178.429     3074.001     1535.456        2.157        0.439      183.884       26.618        0.021      334.366        4.288      856.266
11/15/2013  06:26:00     -154.367      148.536      -36.634       74.907       72.751       42.543     5611.033     5292.776     1809.904        2.997        0.636      214.224       40.466        0.036      334.343        4.250      856.289
11/15/2013  06:27:00     -167.308      264.695      -49.092       52.738       64.142       36.058     2781.281     4114.195     1300.145        5.433        0.410      313.138       26.980        0.007      334.287        4.154      856.317
11/15/2013  06:28:00     -156.366      137.836      -42.384       84.223       71.240       42.167     7093.444     5075.164     1778.029        2.959        0.697      208.444       42.884        0.042      334.334        4.236      856.337
11/15/2013  06:29:00      -88.690      116.287      -26.486       65.081       55.179       34.347     4235.557     3044.775     1179.709        1.527        0.423      146.248       35.776        0.060      334.376        4.307      856.349
11/15/2013  06:30:00      -64.706      112.760      -11.642       50.105       57.772       31.214     2510.548     3337.646      974.317        1.193        0.341      130.007       26.127        0.040      334.416        4.373      856.361
11/15/2013  06:31:00     -150.972      120.759      -31.583       89.418       62.306       36.127     7995.541     3882.037     1305.158        2.578        0.659      193.327       41.548        0.046      334.383        4.316      856.381
11/15/2013  06:32:00     -171.156      197.245      -49.800       72.525       56.347       42.099     5259.877     3174.949     1772.308        4.044        0.510      261.152       42.739        0.027      334.275        4.136      856.399
11/15/2013  06:33:00     -139.424      269.740      -44.272       66.694       73.332       44.452     4448.054     5377.560     1976.002        5.298        0.590      303.642       34.658        0.013      334.267        4.122      856.412
11/15/2013  06:34:00      -59.177       89.948      -12.083       49.105       50.498       28.212     2411.340     2550.032      795.899        0.875        0.288      107.669       16.305        0.023      334.403        4.353      856.428
11/15/2013  06:35:00      -60.538      122.275      -15.313       68.652       63.013       33.681     4713.097     3970.655     1134.390        1.433        0.491      136.441       34.598        0.064      334.462        4.448      856.430
11/15/2013  06:36:00      -31.195      134.196       -7.357       45.499       85.025       45.755     2070.182     7229.323     2093.476        1.521        0.570      137.774       51.715        0.141      334.440        4.413      856.441
11/15/2013  06:37:00      -73.085      184.532      -14.831       54.124       96.392       32.978     2929.451     9291.479     1087.566        2.646        0.665      198.478       42.287        0.045      334.380        4.310      856.449
11/15/2013  06:38:00      -47.224      177.735      -16.352       57.614       52.209       30.594     3319.331     2725.816      935.966        2.053        0.349      183.902       24.140        0.017      334.335        4.237      856.461
11/15/2013  06:39:00      -85.674      232.805      -25.268       70.504      100.601       44.809     4970.762    10120.480     2007.865        3.963        0.855      248.070       42.693        0.030      334.270        4.128      856.474
11/15/2013  06:40:00      -75.825      208.201      -32.256       84.328       52.962       39.238     7111.160     2804.992     1539.641        3.079        0.573      221.578       27.762        0.016      334.270        4.129      856.470
11/15/2013  06:41:00      -60.310      232.109      -18.839       60.415       80.381       34.544     3649.988     6461.109     1193.312        3.458        0.565      239.817       38.468        0.026      334.291        4.163      856.471
11/15/2013  06:42:00      -57.425      239.170      -28.482       53.481       59.519       35.648     2860.219     3542.541     1270.779        3.449        0.384      245.967       28.412        0.013      334.283        4.149      856.458
11/15/2013  06:43:00     -106.438       93.591      -19.547       62.665       63.229       40.637     3926.913     3997.893     1651.390        1.502        0.479      141.733       37.823        0.071      334.380        4.313      856.453
11/15/2013  06:44:00      -84.717      168.472      -27.008       54.898       99.641       36.034     3013.756     9928.320     1298.461        2.526        0.712      188.573       39.887        0.045      334.381        4.314      856.450
11/15/2013  06:45:00     -108.040      208.728      -35.527       53.031       85.742       37.535     2812.250     7351.639     1408.912        3.404        0.579      235.032       28.649        0.015      334.308        4.190      856.464
11/15/2013  06:46:00      -22.810      170.357      -14.743       60.037       80.160       41.611     3604.390     6425.557     1731.514        2.076        0.588      171.877       40.895        0.057      334.359        4.278      856.481
11/15/2013  06:47:00      -53.729      218.126      -32.546       69.015       82.431       33.618     4763.037     6794.811     1130.187        3.210        0.634      224.646       34.092        0.023      334.349        4.257      856.514
11/15/2013  06:48:00      -67.386      297.813      -29.432       60.055       92.425       48.056     3606.622     8542.408     2309.367        5.428        0.723      305.341       41.976        0.019      334.303        4.183      856.533
11/15/2013  06:49:00      -51.159      235.136      -30.386       83.111       97.837       44.956     6907.393     9572.049     2021.065        3.866        0.925      240.637       54.196        0.051      334.315        4.202      856.554
11/15/2013  06:50:00      -42.158      225.996      -18.416       63.739      104.971       42.461     4062.684    11018.982     1802.975        3.503        0.844      229.895       46.143        0.040      334.339        4.244      856.558
11/15/2013  06:51:00      -47.654      244.540      -30.219       57.349       73.246       37.785     3288.918     5365.025     1427.706        3.653        0.504      249.140       31.544        0.016      334.310        4.195      856.559
11/15/2013  06:52:00       -5.259      259.406      -33.700       57.202       52.906       32.069     3272.080     2799.026     1028.421        3.778        0.355      259.459       27.552        0.011      334.302        4.177      856.561
11/15/2013  06:53:00       -8.786      285.471      -37.503       30.012       55.233       28.974      900.716     3050.711      839.515        4.388        0.240      285.606       27.732        0.009      334.277        4.138      856.567
11/15/2013  06:54:00      -75.161      215.020      -25.406       56.422       77.800       37.141     3183.461     6052.854     1379.422        3.157        0.531      227.778       35.220        0.024      334.359        4.276      856.566
11/15/2013  06:55:00     -146.770      300.586      -41.275       70.410       89.825       44.071     4957.603     8068.495     1942.256        6.428        0.748      334.505       33.918        0.010      334.281        4.145      856.565
11/15/2013  06:56:00     -140.772      241.203      -43.581       73.170       57.825       46.126     5353.871     3343.714     2127.575        4.536        0.541      279.277       42.364        0.023      334.277        4.137      856.550
11/15/2013  06:57:00     -108.095      227.206      -29.224       53.275       69.829       39.781     2838.181     4876.114     1582.517        3.673        0.465      251.610       39.344        0.024      334.285        4.153      856.538
11/15/2013  06:58:00      -63.951      188.242      -24.334       64.366       65.849       37.266     4143.000     4336.047     1388.792        2.499        0.493      198.808       36.812        0.034      334.306        4.189      856.542
11/15/2013  06:59:00      -77.765       89.572      -13.447       47.420       71.471       34.066     2248.624     5108.079     1160.471        1.138        0.426      118.619       26.842        0.051      334.434        4.404      856.561
11/15/2013  07:00:00      -73.502       96.967      -16.076       52.470       67.837       33.469     2753.109     4601.812     1120.159        1.177        0.424      121.677       36.716        0.091      334.381        4.315      856.576
11/15/2013  07:01:00     -134.799      140.190      -25.193       85.831      118.198       49.775     7367.000    13970.748     2477.597        3.113        1.191      194.484       62.634        0.104      334.330        4.230      856.577
11/15/2013  07:02:00      -43.585      120.287      -15.390       41.692       69.746       24.194     1738.249     4864.535      585.327        1.190        0.359      127.940       22.221        0.030      334.375        4.305      856.584
11/15/2013  07:03:00      -50.307      250.545      -26.746       56.191       66.480       33.106     3157.470     4419.633     1096.032        3.734        0.434      255.546       21.805        0.007      334.273        4.132      856.584
11/15/2013  07:04:00      -96.332      195.664      -26.979       51.469       78.716       46.449     2649.093     6196.244     2157.551        2.965        0.550      218.092       43.399        0.040      334.292        4.167      856.575
11/15/2013  07:05:00      -81.831      249.962      -25.681       53.126       69.141       34.399     2822.365     4780.432     1183.274        3.931        0.439      263.016       35.432        0.018      334.306        4.188      856.588
11/15/2013  07:06:00      -34.072      258.213      -36.582       40.448       51.807       25.733     1636.079     2683.914      662.200        3.708        0.249      260.451       20.075        0.006      334.251        4.095      856.602
11/15/2013  07:07:00      -36.340      188.422      -16.004       57.955       69.625       28.971     3358.795     4847.630      839.312        2.306        0.452      191.894       33.332        0.030      334.321        4.213      856.600
11/15/2013  07:08:00      -60.635      171.937      -13.311       51.358       77.248       37.913     2637.676     5967.259     1437.431        2.173        0.502      182.315       36.324        0.040      334.353        4.266      856.587
11/15/2013  07:09:00      -34.328      268.522      -15.547       72.740       86.912       48.438     5291.113     7553.727     2346.268        4.435        0.760      270.707       44.505        0.027      334.286        4.155      856.566
11/15/2013  07:10:00      -98.822      287.971      -31.883       60.777       75.612       45.044     3693.801     5717.174     2028.979        5.257        0.572      304.456       41.261        0.018      334.200        4.012      856.554
11/15/2013  07:11:00      -31.181      281.247      -27.323       53.173       92.689       48.791     2827.406     8591.179     2380.516        4.731        0.690      282.970       52.732        0.035      334.211        4.030      856.548
11/15/2013  07:12:00      -93.184      232.538      -31.195       65.193       85.021       43.390     4250.083     7228.508     1882.700        3.854        0.668      250.514       43.056        0.030      334.237        4.072      856.571
11/15/2013  07:13:00     -125.417      205.625      -27.407       91.202       87.522       55.911     8317.858     7660.039     3126.093        3.893        0.955      240.855       31.453        0.017      334.253        4.101      856.588
11/15/2013  07:14:00      -32.192      263.692      -34.263       47.229       64.830       29.457     2230.596     4202.955      867.739        3.952        0.365      265.650       29.268        0.012      334.223        4.050      856.610
11/15/2013  07:15:00      -83.779      198.600      -16.012       62.179      120.314       46.259     3866.183    14475.487     2139.919        3.360        1.024      215.548       45.418        0.044      334.184        3.987      856.617
11/15/2013  07:16:00      -86.984      199.743      -19.326       59.190      140.880       40.872     3503.430    19847.093     1670.533        3.642        1.251      217.861       42.734        0.038      334.217        4.042      856.618
11/15/2013  07:17:00     -109.651      139.928       -6.545      101.983       66.653       48.037    10400.608     4442.623     2307.586        2.439        0.858      177.773       45.696        0.066      334.269        4.128      856.592
11/15/2013  07:18:00     -150.367      201.287      -31.305       69.626       89.388       55.322     4847.807     7990.211     3060.543        4.000        0.795      251.250       50.866        0.041      334.136        3.906      856.576
11/15/2013  07:19:00     -107.744      121.893      -17.519       59.081       66.629       35.862     3490.531     4439.409     1286.083        1.799        0.461      162.686       32.777        0.041      334.176        3.974      856.573
11/15/2013  07:20:00      -64.482      120.634       -2.521       60.988       80.108       36.365     3719.516     6417.332     1322.430        1.509        0.573      136.786       31.871        0.054      334.279        4.145      856.593
11/15/2013  07:21:00      -49.352      135.614      -16.956       43.800       83.719       24.124     1918.453     7008.858      581.952        1.531        0.475      144.315       30.593        0.045      334.342        4.250      856.609
11/15/2013  07:22:00      -97.251      228.939      -24.874       69.257      116.912       53.223     4796.579    13668.505     2832.706        4.189        1.065      248.739       55.292        0.049      334.170        3.961      856.622
11/15/2013  07:23:00     -119.171      200.606      -23.428       78.246      104.141       49.776     6122.388    10845.298     2477.611        3.722        0.972      233.333       36.262        0.024      334.115        3.873      856.624
11/15/2013  07:24:00     -105.606      251.195      -24.258       73.479      102.961       52.117     5399.235    10600.929     2716.162        4.677        0.936      272.491       50.075        0.034      334.083        3.819      856.625
11/15/2013  07:25:00     -137.519      187.811      -30.054       79.144       84.478       47.183     6263.832     7136.452     2226.227        3.535        0.781      232.776       49.367        0.045      334.110        3.863      856.637
11/15/2013  07:26:00      -63.752      103.386       -9.359       70.029       59.328       41.300     4904.014     3519.860     1705.653        1.248        0.506      121.461       40.212        0.110      334.194        4.004      856.653
11/15/2013  07:27:00      -57.487      124.362      -13.027       51.203      134.995       37.805     2621.758    18223.636     1429.205        2.060        1.114      137.006       50.902        0.138      334.199        4.010      856.667
11/15/2013  07:28:00      -56.711      251.417      -21.669       43.923       69.886       38.808     1929.231     4884.060     1506.059        3.761        0.416      257.733       28.732        0.012      334.127        3.889      856.685
11/15/2013  07:29:00      -62.804      179.549      -16.802       56.267       86.214       39.621     3166.019     7432.898     1569.806        2.431        0.608      190.216       32.216        0.029      334.212        4.033      856.706
11/15/2013  07:30:00      -61.491      127.103        1.485       90.465       92.153       37.174     8183.882     8492.126     1381.895        1.899        0.903      141.196       31.508        0.050      334.248        4.092      856.717
11/15/2013  07:31:00      -34.469      179.833       -6.277       57.820      106.854       42.949     3343.169    11417.708     1844.631        2.508        0.830      183.107       46.834        0.065      334.237        4.076      856.724
11/15/2013  07:32:00        1.544      231.612      -30.170       48.909       82.557       39.553     2392.133     6815.641     1564.439        3.266        0.539      231.617       39.646        0.029      334.116        3.874      856.724
11/15/2013  07:33:00      -52.686      207.184      -19.663       40.387      115.987       35.625     1631.133    13453.007     1269.144        3.122        0.818      213.778       48.454        0.051      334.157        3.944      856.724
11/15/2013  07:34:00      -22.921      131.305      -25.292       41.972       48.880       27.138     1761.672     2389.210      736.483        1.165        0.244      133.291       26.773        0.040      334.223        4.053      856.734
11/15/2013  07:35:00      -42.211      150.122      -21.074       45.366       56.384       33.328     2058.044     3179.145     1110.776        1.555        0.317      155.944       32.995        0.045      334.238        4.077      856.746
11/15/2013  07:36:00      -23.818      119.721       -6.310       69.014       74.975       41.867     4762.929     5621.191     1752.832        1.354        0.607      122.067       45.685        0.140      334.295        4.173      856.753
11/15/2013  07:37:00     -114.601      152.025      -28.601       82.576       56.123       38.407     6818.740     3149.774     1475.091        2.425        0.572      190.382       22.951        0.015      334.233        4.068      856.769
11/15/2013  07:38:00      -47.007       96.321       -0.737       49.375       62.886       33.400     2437.873     3954.594     1115.587        0.950        0.375      107.179       31.867        0.088      334.224        4.054      856.773
11/15/2013  07:39:00      -21.667       89.937       -4.970       44.314       77.746       36.506     1963.708     6044.466     1332.696        0.896        0.467       92.510       37.899        0.168      334.173        3.970      856.752
11/15/2013  07:40:00      -98.394      158.941      -29.982       65.390      115.042       44.616     4275.887    13234.553     1990.576        2.767        0.975      186.932       43.563        0.054      334.096        3.840      856.723
11/15/2013  07:41:00     -162.521      217.270      -30.983      100.431      102.150       56.804    10086.425    10434.644     3226.684        4.916        1.187      271.329       48.864        0.032      334.059        3.779      856.703
11/15/2013  07:42:00      -84.086      209.816      -21.442       53.134       92.190       40.957     2823.203     8499.022     1677.483        3.227        0.650      226.039       35.565        0.025      334.033        3.737      856.696
11/15/2013  07:43:00      -66.943      226.935      -24.236       51.043       83.236       41.651     2605.411     6928.176     1734.770        3.392        0.563      236.603       43.673        0.034      334.035        3.740      856.695
11/15/2013  07:44:00      -52.790      281.371      -35.341       43.436       75.416       31.219     1886.687     5687.568      974.631        4.588        0.427      286.281       30.614        0.011      334.028        3.727      856.690
11/15/2013  07:45:00      -46.123      207.189      -19.231       59.588       68.359       38.438     3550.689     4672.908     1477.463        2.756        0.485      212.261       32.161        0.023      334.126        3.889      856.695
11/15/2013  07:46:00      -39.955      236.224      -17.730       47.002       67.381       36.085     2209.224     4540.265     1302.109        3.288        0.403      239.579       27.137        0.013      334.074        3.803      856.714
11/15/2013  07:47:00      -15.294      173.034       -4.749       36.926      117.750       41.282     1363.510    13865.146     1704.224        2.356        0.847      173.708       46.204        0.071      334.121        3.881      856.730
11/15/2013  07:48:00      -33.699      178.612       -9.351       46.221      110.491       46.066     2136.398    12208.321     2122.095        2.479        0.823      181.763       32.253        0.031      334.083        3.822      856.744
11/15/2013  07:49:00      -20.604      235.229      -29.291       50.492       62.175       29.653     2549.447     3865.692      879.293        3.195        0.365      236.130       29.656        0.016      334.021        3.715      856.737
11/15/2013  07:50:00      -30.593      256.434      -26.537       48.181       79.721       35.406     2321.388     6355.368     1253.589        3.866        0.497      258.253       34.976        0.018      333.968        3.628      856.715
11/15/2013  07:51:00      -34.369      277.766      -33.829       42.460       69.660       31.612     1802.853     4852.540      999.315        4.357        0.383      279.884       31.068        0.012      333.964        3.620      856.696
11/15/2013  07:52:00      -15.894      252.750      -41.695       46.202       61.175       33.509     2134.583     3742.348     1122.846        3.644        0.350      253.250       25.568        0.010      333.990        3.664      856.709
11/15/2013  07:53:00      -62.391      191.454      -19.993       47.678       94.461       44.675     2273.186     8922.799     1995.818        2.707        0.660      201.363       50.998        0.064      334.115        3.872      856.734
11/15/2013  07:54:00      -50.635      271.869      -29.582       69.278      100.439       43.069     4799.463    10087.990     1854.896        4.704        0.837      276.544       45.900        0.028      333.964        3.622      856.735
11/15/2013  07:55:00      -50.228      228.652      -17.291       60.413       76.367       42.741     3649.761     5831.870     1826.776        3.320        0.565      234.104       39.641        0.029      334.067        3.792      856.730
11/15/2013  07:56:00      -73.603      261.628      -26.005       70.988       77.455       39.984     5039.315     5999.214     1598.751        4.359        0.632      271.784       39.862        0.022      333.975        3.640      856.730
11/15/2013  07:57:00      -91.323      237.188      -28.121       47.973       92.029       38.407     2301.407     8469.258     1475.111        3.881        0.612      254.162       39.700        0.024      333.977        3.641      856.723
11/15/2013  07:58:00     -109.917      129.397      -21.875       68.692       74.622       37.415     4718.523     5568.513     1399.914        2.049        0.584      169.780       37.229        0.048      334.089        3.831      856.716
11/15/2013  07:59:00      -81.109      229.127      -25.419       63.428       78.985       39.939     4023.122     6238.574     1595.133        3.579        0.593      243.060       40.132        0.027      334.035        3.739      856.727
11/15/2013  08:00:00      -77.041      245.033      -28.091       52.236       96.791       38.139     2728.599     9368.462     1454.552        4.016        0.678      256.859       38.021        0.022      334.044        3.752      856.731
11/15/2013  08:01:00      -43.043      167.594      -11.634       43.335       64.386       33.497     1877.956     4145.551     1122.020        1.861        0.357      173.034       31.713        0.034      334.229        4.063      856.741
11/15/2013  08:02:00      -52.989      235.038      -19.995       65.950       68.153       41.226     4349.405     4644.831     1699.615        3.457        0.535      240.937       29.921        0.015      334.108        3.859      856.733
11/15/2013  08:03:00      -30.914      242.435      -25.094       50.512       88.785       42.176     2551.492     7882.698     1778.844        3.628        0.611      244.398       40.308        0.027      334.104        3.854      856.714
11/15/2013  08:04:00     -111.410      226.113      -25.277       55.168       55.321       35.152     3043.523     3060.362     1235.630        3.576        0.367      252.070       27.403        0.012      334.118        3.875      856.693
11/15/2013  08:05:00      -75.593      176.921      -21.279       51.448       94.768       37.897     2646.864     8981.067     1436.218        2.526        0.653      192.394       40.009        0.043      334.158        3.944      856.668
11/15/2013  08:06:00      -93.591      117.282      -24.062       64.205       86.841       37.764     4122.325     7541.323     1426.146        1.809        0.654      150.048       38.866        0.067      334.306        4.191      856.647
11/15/2013  08:07:00      -82.825       75.198      -12.629       39.056       44.590       34.538     1525.373     1988.251     1192.876        0.869        0.235      111.869       28.126        0.063      334.364        4.288      856.641
11/15/2013  08:08:00      -18.528      119.181        0.801       39.331       78.392       34.760     1546.934     6145.327     1208.237        1.172        0.445      120.613       38.310        0.101      334.459        4.443      856.636
11/15/2013  08:09:00      -37.171      212.440      -11.240       36.766       57.752       34.766     1351.739     3335.285     1208.678        2.627        0.295      215.667       27.234        0.016      334.386        4.320      856.627
11/15/2013  08:10:00      -16.900      186.906      -11.694       30.829       77.527       35.962      950.451     6010.412     1293.234        2.180        0.413      187.669       38.373        0.042      334.383        4.316      856.625
11/15/2013  08:11:00      -42.281      255.029      -15.903       49.108       84.716       37.638     2411.594     7176.837     1416.652        3.904        0.550      258.510       37.611        0.021      334.302        4.181      856.613
11/15/2013  08:12:00      -53.743      115.588       -6.443       47.545       52.646       30.502     2260.567     2771.637      930.372        1.113        0.298      127.472       29.549        0.054      334.478        4.478      856.612
11/15/2013  08:13:00       -6.297      164.567       -4.604       34.230       66.786       40.552     1171.726     4460.328     1644.486        1.721        0.364      164.687       38.959        0.056      334.496        4.505      856.593
11/15/2013  08:14:00      -51.754       84.185       -0.381       41.207       54.287       29.161     1697.982     2947.104      850.351        0.763        0.275       98.821       28.121        0.081      334.548        4.593      856.597
11/15/2013  08:15:00      -74.780       86.390      -14.440       40.993       71.473       23.980     1680.397     5108.361      575.052        1.031        0.368      114.260       22.830        0.040      334.427        4.391      856.610
11/15/2013  08:16:00      -17.404      116.330        1.417       47.914       58.634       41.027     2295.706     3437.966     1683.192        1.063        0.371      117.625       38.134        0.105      334.601        4.682      856.637
11/15/2013  08:17:00       -9.192      225.126      -27.361       47.774       51.583       31.361     2282.309     2660.856      983.502        2.872        0.296      225.313       16.323        0.005      334.435        4.402      856.662
11/15/2013  08:18:00      -19.620      104.215      -16.188       34.554       94.069       31.463     1193.992     8849.029      989.899        1.127        0.552      106.046       41.751        0.155      334.587        4.658      856.678
11/15/2013  08:19:00      -33.265      227.781      -18.124       28.337       99.653       32.609      802.988     9930.731     1063.366        3.256        0.590      230.197       46.617        0.041      334.277        4.140      856.677
11/15/2013  08:20:00      -27.110      180.893      -19.437       28.380       80.687       27.840      805.425     6510.388      775.058        2.096        0.405      182.913       33.073        0.033      334.307        4.190      856.670
11/15/2013  08:21:00      -27.392      203.632      -24.788       42.483       47.703       28.672     1804.817     2275.576      822.104        2.387        0.245      205.466       21.628        0.011      334.283        4.151      856.647
11/15/2013  08:22:00      -15.768      113.957       -9.377       26.333       40.716       22.241      693.424     1657.760      494.668        0.808        0.142      115.043       17.493        0.023      334.352        4.267      856.625
11/15/2013  08:23:00      -77.995       83.220      -19.638       73.890       37.093       26.566     5459.777     1375.889      705.735        1.047        0.377      114.056       28.143        0.061      334.313        4.204      856.617
11/15/2013  08:24:00      -73.254       51.059      -11.286       38.234       42.397       25.682     1461.866     1797.493      659.564        0.601        0.196       89.293       22.732        0.065      334.264        4.121      856.616
11/15/2013  08:25:00     -101.280       68.435      -28.311       29.579       59.789       24.771      874.932     3574.741      613.590        1.040        0.253      122.233       23.104        0.036      334.144        3.922      856.638
11/15/2013  08:26:00      -37.261       47.626      -18.569       35.687       35.158       13.482     1273.538     1236.079      181.767        0.335        0.135       60.471       14.197        0.055      334.211        4.036      856.654
11/15/2013  08:27:00      -59.643       16.742       -4.411       64.852       26.798       14.235     4205.789      718.124      202.649        0.449        0.256       61.948       17.431        0.079      334.309        4.198      856.676
11/15/2013  08:28:00      -35.016       58.538      -12.906       45.450       63.284       27.708     2065.687     4004.877      767.732        0.583        0.342       68.212       26.745        0.154      334.283        4.154      856.701
11/15/2013  08:29:00      -12.030      136.234       -9.042       33.090       59.733       27.993     1094.964     3568.020      783.609        1.212        0.272      136.764       32.678        0.057      334.371        4.299      856.722
11/15/2013  08:30:00       -6.474      186.767      -16.972       19.874       22.417       13.420      394.991      502.542      180.099        1.814        0.054      186.879       10.334        0.003      334.165        3.956      856.729
11/15/2013  08:31:00        2.211      165.373      -17.680       25.269       33.117       20.798      638.507     1096.706      432.552        1.492        0.108      165.388       20.293        0.015      334.194        4.005      856.731
11/15/2013  08:32:00      -38.814       98.275       -0.260       44.041       49.861       29.448     1939.589     2486.167      867.176        0.823        0.265      105.662       27.936        0.070      334.331        4.233      856.731
11/15/2013  08:33:00      -54.659      101.339      -24.571       24.871       35.501       25.274      618.576     1260.298      638.798        0.819        0.126      115.140       26.314        0.052      334.356        4.273      856.731
11/15/2013  08:34:00        5.427       96.141       -8.689       17.724       30.660       19.675      314.149      940.012      387.109        0.549        0.082       96.294       18.567        0.037      334.436        4.409      856.725
11/15/2013  08:35:00      -49.357       67.481      -16.888       42.517       27.664       22.003     1807.667      765.313      484.114        0.517        0.153       83.605       20.627        0.061      334.327        4.227      856.724
11/15/2013  08:36:00      -30.312       53.722       -9.737       40.304       30.984       23.127     1624.376      960.024      534.850        0.351        0.156       61.684       21.282        0.119      334.455        4.440      856.720
11/15/2013  08:37:00      -29.024       31.020        6.226       35.595       18.747       18.063     1267.029      351.451      326.267        0.189        0.097       42.481       17.293        0.166      334.601        4.680      856.707
11/15/2013  08:38:00      -16.431      124.120      -13.779       28.766       48.066       21.775      827.489     2310.306      474.163        0.974        0.181      125.203       24.678        0.039      334.540        4.580      856.694
11/15/2013  08:39:00        5.761      128.343      -12.561       30.246       50.273       29.294      914.847     2527.373      858.120        1.048        0.215      128.473       32.558        0.064      334.486        4.490      856.686
11/15/2013  08:40:00      -25.162       97.340      -12.211       25.780       58.876       23.370      664.624     3466.382      546.176        0.747        0.234      100.539       23.847        0.056      334.448        4.428      856.681
11/15/2013  08:41:00      -22.860      120.662      -15.804       22.560       48.024       22.555      508.938     2306.280      508.726        0.933        0.166      122.809       24.011        0.038      334.540        4.581      856.688
11/15/2013  08:42:00        4.364       63.733       -9.130       28.176       37.873       16.070      793.900     1434.379      258.241        0.332        0.124       63.882        9.822        0.024      334.675        4.805      856.686
11/15/2013  08:43:00       69.013       37.829        1.716       54.986       39.720       21.818     3023.496     1577.676      476.033        0.564        0.254       78.701       15.350        0.038      334.710        4.862      856.691
11/15/2013  08:44:00      127.946       81.435        8.961       35.581       23.728       31.760     1265.977      563.034     1008.670        1.296        0.142      151.664       14.534        0.009      334.574        4.636      856.693
11/15/2013  08:45:00      105.140      111.146       65.688       48.171       35.187       41.791     2320.405     1238.148     1746.509        1.651        0.265      152.996       29.492        0.037      334.541        4.581      856.709
11/15/2013  08:46:00      115.645       61.357       40.425       43.260       39.184       39.785     1871.465     1535.368     1582.816        1.188        0.249      130.914       27.281        0.043      334.586        4.656      856.729
11/15/2013  08:47:00       47.167       67.629       79.423       53.372       43.860       34.141     2848.574     1923.675     1165.620        0.952        0.297       82.452       27.921        0.115      334.604        4.685      856.743
11/15/2013  08:48:00       46.034       66.675       91.389       69.219       53.992       38.956     4791.262     2915.142     1517.568        1.207        0.461       81.022       40.307        0.247      334.537        4.576      856.730
11/15/2013  08:49:00      102.547      115.409      107.031       57.085       49.715       42.239     3258.738     2471.630     1784.153        2.140        0.376      154.386       32.497        0.044      334.445        4.421      856.716
11/15/2013  08:50:00       65.572       88.338       89.090       49.571       47.800       29.888     2457.302     2284.851      893.320        1.284        0.282      110.015       23.154        0.044      334.549        4.593      856.699
11/15/2013  08:51:00       95.785      -27.163       37.867       75.999       67.234       55.345     5775.833     4520.351     3063.060        1.235        0.668       99.562       55.571        0.312      334.577        4.640      856.690
11/15/2013  08:52:00       37.897       52.368       69.604       54.183       47.385       39.249     2935.783     2245.366     1540.458        0.787        0.336       64.642       30.166        0.218      334.827        5.057      856.684
11/15/2013  08:53:00      167.935      119.317       96.590       98.662       87.091       72.589     9734.242     7584.868     5269.151        3.717        1.129      206.006       62.656        0.093      334.579        4.641      856.676
11/15/2013  08:54:00      197.470      109.763       82.838       92.531       73.664       69.771     8562.014     5426.383     4867.978        3.838        0.943      225.925       57.779        0.065      334.530        4.558      856.665
11/15/2013  08:55:00      159.983       65.715       80.765       91.796       73.174       53.991     8426.495     5354.410     2915.016        2.656        0.835      172.954       39.962        0.053      334.627        4.722      856.638
11/15/2013  08:56:00      138.321       91.920       29.835       72.884       59.918       50.271     5312.062     3590.222     2527.184        1.995        0.571      166.078       32.278        0.038      334.572        4.630      856.624
11/15/2013  08:57:00       35.222       96.931      110.438       70.012       63.176       51.622     4901.661     3991.173     2664.864        1.719        0.578      103.132       47.423        0.211      334.863        5.117      856.612
11/15/2013  08:58:00      100.972      108.677       89.006      112.056       55.244       69.173    12556.473     3051.881     4784.919        2.516        1.020      148.344       71.622        0.233      334.557        4.605      856.617
11/15/2013  08:59:00      115.996       13.244       55.536      105.936       84.843       64.979    11222.400     7198.356     4222.324        1.967        1.132      116.750       67.042        0.330      334.558        4.607      856.626
11/15/2013  09:00:00      106.879       89.573       70.640       79.657       66.101       75.478     6345.312     4369.373     5696.927        2.042        0.821      139.451       60.440        0.188      334.494        4.501      856.615
11/15/2013  09:01:00      133.512       74.881       45.617       71.982       56.983       58.101     5181.458     3247.112     3375.730        1.866        0.590      153.077       51.019        0.111      334.513        4.534      856.607
11/15/2013  09:02:00       53.175      108.365       97.404       62.410       65.319       53.046     3895.003     4266.514     2813.907        1.751        0.549      120.708       52.531        0.189      334.636        4.740      856.595
11/15/2013  09:03:00      115.495       62.996       25.373       38.115       34.176       35.954     1452.761     1167.997     1292.676        1.093        0.196      131.558       20.394        0.024      334.406        4.356      856.611
11/15/2013  09:04:00      103.751       70.362       38.284       55.032       53.851       43.659     3028.506     2899.931     1906.090        1.251        0.392      125.360       24.904        0.039      334.638        4.740      856.619
11/15/2013  09:05:00      105.109       68.978       26.713       76.179       57.546       46.325     5803.227     3311.539     2145.998        1.389        0.563      125.721       31.879        0.064      334.688        4.824      856.634
11/15/2013  09:06:00       66.877       57.889       57.686       47.694       48.343       36.937     2274.752     2337.023     1364.374        0.856        0.299       88.452       18.833        0.045      334.640        4.745      856.648
11/15/2013  09:07:00       34.457       34.687       74.306       38.556       31.570       26.944     1486.568      996.663      725.997        0.556        0.160       48.893       20.445        0.175      335.070        5.462      856.665
11/15/2013  09:08:00       77.291       -3.120       54.800       34.271       88.432       45.610     1174.526     7820.300     2080.315        1.003        0.554       77.354       49.913        0.416      334.937        5.239      856.674
11/15/2013  09:09:00       45.302       64.159       58.877       61.318       47.529       53.408     3759.909     2258.975     2852.384        0.925        0.444       78.541       39.001        0.247      334.828        5.057      856.681
11/15/2013  09:10:00        9.962       62.429       78.547       36.781       50.481       27.117     1352.810     2548.347      735.308        0.740        0.232       63.219       21.814        0.119      334.945        5.253      856.691
11/15/2013  09:11:00       89.086     -101.771      -12.939       49.856       51.496       42.727     2485.582     2651.883     1825.561        1.271        0.348      135.254       42.504        0.099      334.580        4.645      856.683
11/15/2013  09:12:00       79.691      -46.590       17.460       64.613       88.804       52.950     4174.826     7886.110     2803.704        1.184        0.743       92.311       69.625        0.569      334.651        4.764      856.658
11/15/2013  09:13:00       -3.080       48.903       80.131       24.531       42.360       21.139      601.758     1794.356      446.876        0.583        0.142       49.000       25.200        0.264      335.232        5.731      856.637
11/15/2013  09:14:00       41.650       91.302      109.446       49.963       48.490       33.767     2496.333     2351.272     1140.213        1.402        0.299      100.354       30.068        0.090      334.956        5.271      856.627
11/15/2013  09:15:00       67.817       62.553       87.063       63.514       62.216       49.462     4034.001     3870.783     2446.511        1.322        0.518       92.260       45.923        0.248      335.056        5.436      856.626
11/15/2013  09:16:00       60.910       87.556       88.488       39.062       50.441       31.622     1525.802     2544.276      999.941        1.214        0.254      106.658       25.016        0.055      334.695        4.837      856.621
11/15/2013  09:17:00       -2.718       87.697       95.788       45.836       60.832       46.097     2100.978     3700.509     2124.905        1.240        0.396       87.739       38.764        0.195      334.986        5.321      856.610
11/15/2013  09:18:00       93.183       87.107       13.677       50.493       43.105       50.563     2549.550     1858.076     2556.585        1.171        0.348      127.557       22.263        0.030      334.767        4.957      856.622
11/15/2013  09:19:00      118.236       50.608        3.707       47.031       25.123       34.262     2211.961      631.142     1173.918        1.029        0.201      128.611       26.880        0.044      334.680        4.811      856.625
11/15/2013  09:20:00       20.586       70.104        8.158       37.532       33.137       30.029     1408.681     1098.081      901.756        0.441        0.170       73.064       25.507        0.122      334.799        5.009      856.620
11/15/2013  09:21:00       60.076       58.581       44.287       53.499       45.264       37.748     2862.118     2048.825     1424.916        0.767        0.317       83.910       20.833        0.062      335.002        5.347      856.609
11/15/2013  09:22:00       41.571       79.024       69.532       44.449       52.545       46.761     1975.679     2760.943     2186.554        0.986        0.346       89.291       22.109        0.061      334.960        5.278      856.598
11/15/2013  09:23:00       65.126       52.756       56.547       56.546       71.328       48.767     3197.440     5087.658     2378.247        1.044        0.533       83.812       50.109        0.357      334.896        5.171      856.585
11/15/2013  09:24:00       77.696       52.550       35.809       51.053       38.737       41.438     2606.392     1500.517     1717.139        0.795        0.291       93.798       27.425        0.085      334.855        5.102      856.589
11/15/2013  09:25:00       80.536       83.828       18.650       45.637       31.559       32.796     2082.705      995.976     1075.590        0.901        0.208      116.246       27.518        0.056      334.788        4.992      856.591
11/15/2013  09:26:00       36.579       34.312       24.801       34.074       20.993       25.482     1161.035      440.726      649.337        0.269        0.113       50.153       15.508        0.096      334.938        5.242      856.604
11/15/2013  09:27:00       43.512       45.566       13.363       28.135       24.808       25.662      791.600      615.461      658.546        0.311        0.103       63.004       20.193        0.103      335.044        5.418      856.606
11/15/2013  09:28:00       28.255       21.104      -12.497       24.371       43.603       21.429      593.938     1901.188      459.195        0.218        0.148       35.267       21.670        0.378      334.914        5.202      856.603
11/15/2013  09:29:00      105.244       56.620       44.497       66.540       59.939       53.827     4427.618     3592.634     2897.382        1.359        0.546      119.508       34.399        0.083      335.066        5.453      856.597
11/15/2013  09:30:00      198.660      142.677       19.614       57.953       49.795       52.488     3358.556     2479.507     2755.014        3.440        0.430      244.586       24.521        0.010      334.631        4.724      856.596
11/15/2013  09:31:00      151.510      104.453       42.969       45.058       44.189       40.586     2030.224     1952.699     1647.242        2.067        0.282      184.027       22.512        0.015      334.752        4.930      856.609
11/15/2013  09:32:00       60.715       47.543       26.911       47.033       34.460       37.745     2212.063     1187.503     1424.713        0.575        0.241       77.115       31.852        0.171      334.897        5.172      856.619
11/15/2013  09:33:00       36.272       -6.821        7.432       35.714       51.248       31.377     1275.494     2626.318      984.506        0.315        0.244       36.907       19.000        0.265      335.118        5.540      856.618
11/15/2013  09:34:00       30.545       50.264       59.863       45.318       55.907       41.840     2053.709     3125.588     1750.618        0.699        0.346       58.817       39.083        0.442      335.605        6.351      856.613
11/15/2013  09:35:00      135.010       90.877       13.288       53.198       44.409       48.688     2830.074     1972.129     2370.506        1.692        0.359      162.746       23.079        0.020      334.925        5.219      856.629
11/15/2013  09:36:00       68.460       84.639        2.960       52.234       36.455       30.362     2728.349     1328.951      921.849        0.842        0.249      108.861       15.954        0.021      335.050        5.426      856.645
11/15/2013  09:37:00       71.441      111.276        8.564       99.209       43.694       33.143     9842.353     1909.194     1098.469        1.520        0.643      132.235       27.923        0.045      335.277        5.803      856.663
11/15/2013  09:38:00      102.659       81.815        4.421       57.255       38.251       28.553     3278.127     1463.143      815.287        1.140        0.278      131.272       11.604        0.008      334.863        5.117      856.701
11/15/2013  09:39:00      123.866      100.532        7.661       56.690       52.953       49.872     3213.809     2804.012     2487.197        1.700        0.425      159.529       32.454        0.041      334.925        5.217      856.736
11/15/2013  09:40:00      131.170       77.643       13.058       57.345       46.001       44.556     3288.459     2116.090     1985.222        1.540        0.369      152.427       36.045        0.056      334.818        5.041      856.749
11/15/2013  09:41:00       86.064       94.196        5.135       62.924       51.422       46.121     3959.456     2644.177     2127.136        1.252        0.437      127.593       27.749        0.047      335.010        5.361      856.749
11/15/2013  09:42:00       57.950       54.643        7.068       65.511       50.542       38.102     4291.688     2554.486     1451.786        0.734        0.415       79.650       16.629        0.044      335.333        5.897      856.762
11/15/2013  09:43:00      168.493      103.978       16.099       60.396       47.883       42.616     3647.679     2292.810     1816.157        2.361        0.388      197.993        5.577        0.001      334.999        5.340      856.779
11/15/2013  09:44:00      160.929       78.391        9.704       56.437       44.588       34.439     3185.146     1988.098     1186.045        1.925        0.318      179.007       20.058        0.013      334.869        5.124      856.788
11/15/2013  09:45:00       86.040      111.565      109.090       61.189       56.813       51.461     3744.052     3227.706     2648.240        2.068        0.481      140.888       38.753        0.076      335.159        5.607      856.804
11/15/2013  09:46:00       83.496       75.596       53.761       88.265       41.856       57.611     7790.690     1751.887     3319.075        1.422        0.643      112.633       60.354        0.287      335.116        5.536      856.841
11/15/2013  09:47:00       21.996      111.655      143.794       71.963       67.039       53.307     5178.664     4494.171     2841.668        2.307        0.626      113.801       46.911        0.170      335.299        5.840      856.837
11/15/2013  09:48:00       74.581       71.125       49.719       61.603       63.563       59.942     3794.900     4040.268     3593.043        1.226        0.571      103.059       49.421        0.230      335.254        5.765      856.855
11/15/2013  09:49:00       99.607      111.440       74.442       88.784       66.128       66.708     7882.663     4372.849     4449.962        2.229        0.835      149.468       58.985        0.156      335.064        5.448      856.854
11/15/2013  09:50:00       41.808       75.331       11.508       47.025       36.256       36.812     2211.309     1314.514     1355.137        0.622        0.244       86.155       25.345        0.087      334.982        5.315      856.852
11/15/2013  09:51:00       62.154       92.745      -14.030       50.305       53.482       28.843     2530.606     2860.313      831.928        0.944        0.311      111.645       19.728        0.031      335.308        5.857      856.871
11/15/2013  09:52:00       72.763       47.797        2.745       33.824       26.600       35.238     1144.068      707.545     1241.726        0.534        0.155       87.058       24.590        0.080      335.061        5.445      856.877
11/15/2013  09:53:00      -44.181       61.789       -0.554       44.822       47.064       31.052     2009.005     2215.016      964.228        0.548        0.259       75.959       34.157        0.202      335.348        5.922      856.902
11/15/2013  09:54:00      -92.792      109.097      -16.636       47.951       42.745       28.263     2299.319     1827.156      798.817        1.286        0.246      143.222       19.210        0.018      335.138        5.574      856.924
11/15/2013  09:55:00      -52.861      143.646      -29.841       48.643       55.741       32.418     2366.144     3107.097     1050.927        1.542        0.326      153.063       25.291        0.027      334.976        5.303      856.942
11/15/2013  09:56:00       70.728       71.186       20.048       72.512       48.492       43.096     5258.036     2351.488     1857.247        0.997        0.473      100.349       31.781        0.100      335.376        5.969      856.951
11/15/2013  09:57:00       82.189       94.222       15.652       68.868       52.148       46.598     4742.778     2719.366     2171.361        1.275        0.482      125.032       34.213        0.075      335.214        5.699      856.955
11/15/2013  09:58:00      231.218      127.383       11.039      109.171       78.883       65.747    11918.219     6222.520     4322.709        4.613        1.123      263.985       54.651        0.043      335.131        5.558      856.958
11/15/2013  09:59:00      166.234      130.609       12.376       73.029       68.196       50.996     5333.251     4650.744     2600.608        2.871        0.629      211.406       33.414        0.025      335.224        5.714      856.990
11/15/2013  10:00:00       61.511      185.392      -13.734       57.512       97.230       58.599     3307.685     9453.698     3433.811        2.727        0.810      195.330       61.823        0.100      335.269        5.789      857.026
11/15/2013  10:01:00       93.013       97.875        4.364      120.976       53.243       50.626    14635.266     2834.809     2563.014        1.914        1.002      135.022       47.620        0.124      335.164        5.616      857.039
11/15/2013  10:02:00      199.757      101.390       21.122      102.731       73.002       62.641    10553.654     5329.255     3923.862        3.521        0.990      224.016       22.430        0.010      335.399        6.004      857.044
11/15/2013  10:03:00      -12.202       38.419      -31.160       50.085       86.199       27.493     2508.521     7430.345      755.841        0.664        0.535       40.310       37.348        0.858      334.988        5.324      857.084
11/15/2013  10:04:00       25.962       16.011       22.570       45.580       57.812       39.691     2077.546     3342.232     1575.367        0.422        0.350       30.502       29.418        0.930      335.679        6.474      857.058
11/15/2013  10:05:00       45.897       47.111       20.420       42.427       28.677       31.211     1800.011      822.370      974.136        0.417        0.180       65.772       19.631        0.089      335.671        6.460      857.074
11/15/2013  10:06:00      -13.048      169.950      -10.456       51.382      125.340       35.814     2640.110    15710.085     1282.628        2.439        0.982      170.450       37.876        0.049      335.409        6.020      857.098
11/15/2013  10:07:00      -47.527      230.674      -14.161       38.703       82.723       38.764     1497.897     6843.019     1502.630        3.275        0.492      235.520       39.865        0.029      335.183        5.645      857.119
11/15/2013  10:08:00       -3.723      189.891      -19.372       48.461       88.817       43.138     2348.472     7888.539     1860.914        2.427        0.605      189.928       46.737        0.061      335.334        5.897      857.131
11/15/2013  10:09:00       -5.588      133.149       -0.750       48.277       69.484       39.512     2330.716     4828.083     1561.170        1.324        0.436      133.266       45.228        0.115      335.276        5.804      857.153
11/15/2013  10:10:00       96.127       86.380       31.859       93.344       54.550       42.771     8713.013     2975.726     1829.354        1.561        0.676      129.236       36.058        0.078      335.493        6.163      857.176
11/15/2013  10:11:00       23.266       66.861       86.568       75.469       55.990       54.712     5695.535     3134.865     2993.385        1.216        0.591       70.793       44.165        0.389      335.789        6.656      857.180
11/15/2013  10:12:00       97.463       94.189       39.303      128.567       71.571       61.288    16529.394     5122.386     3756.209        2.266        1.270      135.538       49.997        0.136      335.509        6.188      857.188
11/15/2013  10:13:00       57.249      222.625      -19.905       71.832      110.954       63.479     5159.840    12310.862     4029.611        3.736        1.075      229.868       66.767        0.084      335.364        5.947      857.234
11/15/2013  10:14:00       66.627      226.413      -13.083      106.644      158.937       57.642    11373.045    25260.817     3322.582        4.791        1.998      236.013       80.868        0.117      335.325        5.880      857.241
11/15/2013  10:15:00      109.994      131.340       -4.103       83.304       92.338       54.276     6939.601     8526.362     2945.867        2.389        0.921      171.316       50.409        0.087      335.540        6.240      857.256
11/15/2013  10:16:00       12.444      214.007      -23.768       64.543      117.810       51.740     4165.758    13879.184     2676.981        3.362        1.036      214.368       59.704        0.078      335.393        5.996      857.278
11/15/2013  10:17:00        5.419      155.562       -9.284       52.278      104.950       50.944     2732.967    11014.587     2595.266        2.033        0.817      155.657       66.155        0.181      335.346        5.919      857.276
11/15/2013  10:18:00       73.230       73.255       11.741       59.761       56.852       48.309     3571.332     3232.176     2333.728        1.000        0.457      103.580       38.599        0.139      335.506        6.185      857.279
11/15/2013  10:19:00      114.035      157.204       -1.057       86.357       78.269       65.351     7457.546     6125.958     4270.752        2.778        0.893      194.209       53.442        0.076      335.329        5.889      857.280
11/15/2013  10:20:00      118.737      136.268       -7.486       83.400       62.092       52.703     6955.570     3855.357     2777.614        2.315        0.679      180.741       38.741        0.046      335.268        5.788      857.267
11/15/2013  10:21:00      114.096       92.833       20.950       83.809       71.175       59.067     7023.903     5065.930     3488.902        1.882        0.779      147.091       41.818        0.081      335.262        5.776      857.257
11/15/2013  10:22:00      160.851      117.004       -0.804       69.755       58.589       46.822     4865.777     3432.701     2192.294        2.502        0.525      198.904       24.849        0.016      335.186        5.650      857.240
11/15/2013  10:23:00       67.249      168.958      -10.559       76.308       71.779       49.859     5822.921     5152.169     2485.937        2.332        0.673      181.850       37.819        0.043      335.197        5.668      857.240
11/15/2013  10:24:00       49.245       97.611       10.243       62.247       72.886       39.247     3874.702     5312.332     1540.359        1.139        0.536      109.330       33.406        0.093      335.341        5.909      857.232
11/15/2013  10:25:00      129.335       95.977       31.972       74.860       51.747       59.899     5604.091     2677.797     3587.853        1.941        0.593      161.056       27.916        0.030      335.306        5.851      857.221
11/15/2013  10:26:00      110.691       88.288       26.964       60.643       47.108       45.044     3677.594     2219.119     2028.918        1.435        0.396      141.588       27.745        0.038      335.213        5.697      857.189
11/15/2013  10:27:00      152.874      111.212       17.004       76.341       70.654       46.432     5827.936     4992.019     2155.910        2.450        0.649      189.046       29.231        0.024      335.323        5.878      857.162
11/15/2013  10:28:00      188.229      111.813       10.496       74.766       62.078       44.640     5589.900     3853.671     1992.730        2.974        0.572      218.934       22.346        0.010      335.122        5.544      857.146
11/15/2013  10:29:00      205.610      136.512       20.561       82.048       64.140       54.540     6731.794     4113.989     2974.584        3.757        0.691      246.802       39.375        0.025      335.105        5.515      857.122
11/15/2013  10:30:00      191.502      134.526       26.041       68.824       62.537       55.460     4736.810     3910.857     3075.840        3.358        0.586      234.030       32.415        0.019      335.050        5.424      857.122
11/15/2013  10:31:00      155.373       91.210       37.067       53.575       43.397       44.534     2870.262     1883.265     1983.260        2.028        0.337      180.167       14.612        0.007      335.082        5.479      857.103
11/15/2013  10:32:00      138.548       96.136       10.205       85.328       73.153       56.654     7280.853     5351.308     3209.723        2.219        0.792      168.635       52.589        0.097      335.222        5.710      857.089
11/15/2013  10:33:00      119.013      186.917       -6.158       85.219      108.351       68.776     7262.209    11740.014     4730.206        3.643        1.187      221.589       67.197        0.092      335.097        5.503      857.083
11/15/2013  10:34:00       99.191      200.248      -12.256       94.657      114.623       80.001     8959.892    13138.432     6400.224        3.929        1.425      223.469       78.292        0.123      335.023        5.380      857.052
11/15/2013  10:35:00       53.664      147.057      -22.783       68.557       93.009       63.245     4700.122     8650.749     3999.966        2.118        0.868      156.543       57.854        0.137      334.987        5.322      857.025
11/15/2013  10:36:00       62.151      143.120       -4.265       55.455       78.550       47.939     3075.233     6170.080     2298.102        1.795        0.577      156.032       46.370        0.088      335.077        5.471      856.975
11/15/2013  10:37:00      101.093       60.359       21.467       89.962       61.403       48.235     8093.104     3770.344     2326.568        1.425        0.710      117.741       25.768        0.048      335.280        5.807      856.938
11/15/2013  10:38:00      150.944      128.211       12.888       73.663       48.108       47.185     5426.178     2314.422     2226.409        2.468        0.498      198.046       35.857        0.033      335.150        5.592      856.914
11/15/2013  10:39:00       50.834       92.402        2.760       92.442       84.596       50.892     8545.551     7156.459     2590.037        1.471        0.915      105.462       35.273        0.112      335.225        5.716      856.896
11/15/2013  10:40:00       31.490      106.703       -8.832       51.838       67.457       37.616     2687.151     4550.463     1414.930        1.055        0.433      111.253       33.939        0.093      335.322        5.878      856.879
11/15/2013  10:41:00       39.275       98.159      -14.150       45.342       44.599       28.844     2055.880     1989.077      831.969        0.813        0.244      105.724       25.519        0.058      335.157        5.604      856.852
11/15/2013  10:42:00       52.060       84.629        4.153       51.257       45.186       36.169     2627.269     2041.780     1308.199        0.793        0.299       99.359       34.915        0.123      335.089        5.493      856.838
11/15/2013  10:43:00      154.058       99.138        6.220       49.251       44.126       36.129     2425.686     1947.111     1305.326        1.964        0.284      183.200       26.174        0.020      335.139        5.573      856.826
11/15/2013  10:44:00      151.669      117.561       33.959       82.650       53.891       53.662     6830.979     2904.243     2879.624        2.529        0.631      191.896       26.381        0.019      335.205        5.682      856.812
11/15/2013  10:45:00      255.844      187.180       28.720       83.695       76.124       61.206     7004.862     5794.856     3746.147        5.893        0.827      317.005       33.484        0.011      334.962        5.277      856.807
11/15/2013  10:46:00      194.456      154.941       10.658       75.150       61.737       48.639     5647.464     3811.506     2365.736        3.688        0.591      248.636       27.009        0.012      334.988        5.320      856.799
11/15/2013  10:47:00      126.989      103.210        2.457       76.785       68.204       44.263     5895.903     4651.833     1959.207        1.964        0.625      163.641       32.470        0.039      335.010        5.358      856.783
11/15/2013  10:48:00      135.845      103.735        9.134       51.668       39.892       43.149     2669.632     1591.389     1861.815        1.771        0.306      170.924       29.590        0.030      334.968        5.290      856.760
11/15/2013  10:49:00       70.054       87.763       18.063       65.581       53.080       48.983     4300.846     2817.508     2399.377        1.123        0.476      112.294       34.709        0.096      335.136        5.570      856.737
11/15/2013  10:50:00       66.130      105.533        0.820       84.383       90.977       57.539     7120.425     8276.895     3310.708        1.711        0.935      124.541       57.190        0.211      335.164        5.615      856.720
11/15/2013  10:51:00       26.712      166.446      -23.972       57.490       63.091       41.425     3305.068     3980.417     1716.052        1.900        0.450      168.576       40.616        0.058      335.109        5.524      856.690
11/15/2013  10:52:00      -27.492      175.441       -9.082       44.927       55.944       36.187     2018.412     3129.705     1309.466        1.904        0.323      177.582       34.806        0.038      335.190        5.658      856.660
11/15/2013  10:53:00      -45.483      150.429      -12.805       24.680       55.611       26.056      609.093     3092.615      678.919        1.462        0.219      157.155       30.778        0.038      335.040        5.409      856.625
11/15/2013  10:54:00      -18.028      145.812      -15.829       19.697       22.693       13.713      387.975      514.981      188.043        1.146        0.055      146.922       11.561        0.006      334.954        5.268      856.587
11/15/2013  10:55:00      -11.902      108.609      -12.882        9.441       21.513       12.188       89.124      462.805      148.557        0.640        0.035      109.259        5.854        0.003      334.963        5.282      856.566
11/15/2013  10:56:00      -27.319      103.496       -6.958       24.220       35.058       22.975      586.627     1229.062      527.842        0.692        0.117      107.041       20.064        0.035      335.318        5.872      856.543
11/15/2013  10:57:00        0.206       79.107        1.625       37.846       80.042       33.390     1432.295     6406.684     1114.878        0.761        0.448       79.107       45.908        0.337      335.506        6.185      856.528
11/15/2013  10:58:00       23.588       91.257       12.252       35.675       55.680       36.452     1272.714     3100.297     1328.779        0.737        0.285       94.256       33.643        0.127      335.493        6.164      856.487
11/15/2013  10:59:00       -6.056       74.962       -5.009       25.480       42.972       24.986      649.252     1846.629      624.307        0.440        0.156       75.206       24.312        0.105      335.572        6.297      856.465
11/15/2013  11:00:00        7.332       34.847        8.568       22.842       33.418       22.751      521.741     1116.751      517.604        0.175        0.108       35.611       20.557        0.333      335.743        6.580      856.436
11/15/2013  11:01:00      -65.343       63.949      -15.800       39.376       55.977       28.339     1550.505     3133.379      803.088        0.705        0.274       91.428       28.709        0.099      335.300        5.843      856.401
11/15/2013  11:02:00      -20.238       -5.484      -13.961       24.865       18.790       18.180      618.255      353.071      330.528        0.097        0.065       20.968       18.643        0.791      335.239        5.743      856.374
11/15/2013  11:03:00        4.506       12.501      -12.474       32.628       47.980       20.201     1064.619     2302.124      408.098        0.205        0.189       13.288       19.294        2.108      335.667        6.453      856.344
11/15/2013  11:04:00       26.319       61.936       15.043       42.768       48.609       39.026     1829.119     2362.844     1523.027        0.523        0.286       67.296       36.652        0.297      336.044        7.082      856.351
11/15/2013  11:05:00      -58.068      102.384      -18.695       49.577       91.625       36.991     2457.868     8395.123     1368.349        1.321        0.611      117.705       30.655        0.068      335.712        6.528      856.359
11/15/2013  11:06:00      -91.057       96.570      -10.703       66.211       63.249       37.930     4383.850     4000.397     1438.711        1.378        0.491      132.729       42.006        0.100      335.682        6.478      856.352
11/15/2013  11:07:00      -44.760      106.839       -6.671       45.288       51.849       34.998     2050.999     2688.318     1224.845        0.971        0.298      115.836       31.823        0.075      335.746        6.585      856.358
11/15/2013  11:08:00       66.379       90.197        7.824       63.891       62.664       46.532     4082.093     3926.718     2165.222        1.139        0.509      111.990       39.170        0.122      335.755        6.600      856.360
11/15/2013  11:09:00      -19.924      162.839      -19.333       29.871       51.329       29.597      892.251     2634.626      876.010        1.584        0.220      164.053       26.236        0.026      335.632        6.395      856.343
11/15/2013  11:10:00      -18.726       39.940       18.214       35.638       55.782       33.704     1270.051     3111.630     1135.973        0.390        0.276       44.112       34.234        0.602      336.414        7.702      856.340
11/15/2013  11:11:00       41.291       59.397       15.049       59.485       48.251       38.521     3538.498     2328.191     1483.867        0.640        0.368       72.339       31.367        0.188      336.134        7.232      856.326
11/15/2013  11:12:00       78.492       65.313       19.564       52.145       45.128       41.130     2719.113     2036.513     1691.704        0.863        0.322      102.112       28.095        0.076      335.604        6.348      856.323
11/15/2013  11:13:00       15.337       66.762       33.775       44.962       47.995       47.905     2021.617     2303.539     2294.894        0.623        0.331       68.501       32.913        0.231      336.177        7.303      856.329
11/15/2013  11:14:00       31.484       55.532       77.154       45.060       62.788       56.311     2030.360     3942.296     3170.926        0.958        0.457       63.836       42.371        0.441      335.914        6.866      856.331
11/15/2013  11:15:00       99.082       76.691       84.612       78.238       71.816       56.128     6121.223     5157.466     3150.307        1.864        0.721      125.294       48.968        0.153      335.987        6.985      856.348
11/15/2013  11:16:00      168.645       79.373       43.494       74.577       53.907       54.084     5561.710     2905.928     2925.043        2.401        0.570      186.390       42.386        0.052      335.711        6.525      856.350
11/15/2013  11:17:00      208.223      128.658       36.196       83.572       80.123       69.636     6984.328     6419.637     4849.144        3.973        0.913      244.764       32.511        0.018      335.708        6.518      856.326
11/15/2013  11:18:00      171.995      116.755       94.152      122.561       98.067       76.276    15021.239     9617.202     5817.958        4.126        1.523      207.880       60.629        0.085      335.609        6.353      856.319
11/15/2013  11:19:00       73.346       85.519       87.066       44.806       51.134       42.092     2007.564     2614.734     1771.730        1.333        0.320      112.664       30.912        0.075      335.842        6.745      856.322
11/15/2013  11:20:00       62.976       40.077       60.213       38.091       66.536       34.972     1450.917     4427.021     1223.036        0.815        0.355       74.646       38.803        0.270      335.859        6.772      856.305
11/15/2013  11:21:00       91.003       49.744       46.804       83.619       79.626       54.754     6992.177     6340.356     2998.035        1.464        0.817      103.711       45.345        0.191      335.903        6.845      856.286
11/15/2013  11:22:00       54.447      -26.384      -12.550       35.345       50.849       27.399     1249.246     2585.590      750.702        0.420        0.229       60.503       18.225        0.091      335.608        6.356      856.288
11/15/2013  11:23:00       19.531       17.507       17.074       19.158       17.900       15.522      367.044      320.426      240.944        0.095        0.046       26.229        9.759        0.138      336.024        7.048      856.268
11/15/2013  11:24:00      -86.841      -43.276       -5.669       51.056       48.563       25.999     2606.712     2358.318      675.954        0.754        0.282       97.027       27.166        0.078      335.794        6.664      856.231
11/15/2013  11:25:00      -80.195      -32.314        0.888       43.651       41.152       28.631     1905.386     1693.446      819.761        0.595        0.221       86.461       24.365        0.079      335.764        6.615      856.190
11/15/2013  11:26:00       18.005        7.781       21.040       56.467       38.051       26.860     3188.498     1447.887      721.447        0.309        0.268       19.614       28.664        2.136      336.384        7.649      856.163
11/15/2013  11:27:00       32.818       79.382       11.290       43.802       52.161       40.172     1918.579     2720.734     1613.753        0.688        0.313       85.898       28.290        0.108      336.168        7.289      856.144
11/15/2013  11:28:00       72.131       89.427        9.635       56.582       63.076       43.775     3201.529     3978.545     1916.270        1.119        0.455      114.891       35.376        0.095      335.956        6.935      856.128
11/15/2013  11:29:00       91.321       86.140       -4.693       46.794       40.772       35.173     2189.691     1662.390     1237.128        1.043        0.254      125.537       23.590        0.035      335.593        6.331      856.108
11/15/2013  11:30:00        9.582       58.504       -3.387       26.879       35.405       28.386      722.462     1253.540      805.763        0.315        0.139       59.284       28.362        0.229      335.907        6.855      856.092
11/15/2013  11:31:00       62.129       49.414       14.635       83.118       51.258       43.005     6908.554     2627.368     1849.467        0.895        0.569       79.384       34.611        0.190      336.195        7.333      856.071
11/15/2013  11:32:00      133.043      135.692       46.419       39.169       44.118       37.892     1534.205     1946.378     1435.808        2.159        0.246      190.033       23.354        0.015      335.852        6.759      856.048
11/15/2013  11:33:00      138.472       84.145       55.369       79.555       52.998       51.800     6329.064     2808.831     2683.288        2.057        0.591      162.034       32.569        0.040      336.156        7.266      856.022
11/15/2013  11:34:00      194.688      148.782       16.320      120.372       87.540       67.732    14489.507     7663.281     4587.667        4.352        1.337      245.029       32.274        0.017      335.780        6.638      855.975
11/15/2013  11:35:00      155.870      125.523        0.260      106.936       69.767       66.871    11435.355     4867.421     4471.765        3.041        1.039      200.129       42.848        0.046      335.842        6.743      855.910
11/15/2013  11:36:00      203.453      152.455       21.646      110.812       76.334       63.335    12279.385     5826.931     4011.362        4.361        1.106      254.236       35.596        0.020      335.889        6.821      855.869
11/15/2013  11:37:00      113.233       87.219       12.369       62.424       46.682       38.318     3896.793     2179.219     1468.259        1.406        0.377      142.930       18.451        0.017      335.635        6.400      855.869
11/15/2013  11:38:00       34.665       51.808       11.521       26.871       44.538       33.645      722.033     1983.638     1132.006        0.393        0.192       62.336       27.094        0.189      335.733        6.564      855.849
11/15/2013  11:39:00       40.653       70.003        5.555       27.484       55.033       30.295      755.387     3028.585      917.766        0.564        0.235       80.951       24.251        0.090      335.722        6.546      855.820
11/15/2013  11:40:00      103.121       96.842       35.298       56.974       33.521       51.429     3246.049     1123.680     2644.954        1.413        0.351      141.464       39.559        0.078      335.795        6.667      855.806
11/15/2013  11:41:00      126.233      111.996       20.411       59.949       49.159       54.063     3593.873     2416.617     2922.842        1.891        0.447      168.754       30.122        0.032      335.587        6.319      855.806
11/15/2013  11:42:00       27.505       70.448      -14.063       51.224       69.433       33.029     2623.933     4820.956     1090.930        0.722        0.427       75.627       43.863        0.336      335.603        6.345      855.788
11/15/2013  11:43:00       26.663       92.565      -11.442       39.212       52.647       29.658     1537.605     2771.754      879.585        0.730        0.259       96.328       28.395        0.087      335.672        6.461      855.759
11/15/2013  11:44:00       38.133       38.599        8.620       37.262       38.009       24.224     1388.422     1444.685      586.813        0.322        0.171       54.259       17.452        0.103      335.728        6.556      855.742
11/15/2013  11:45:00      132.305       46.244       16.018       51.842       36.060       39.429     2687.601     1300.355     1554.634        1.272        0.277      140.154       15.386        0.012      335.611        6.361      855.711
11/15/2013  11:46:00       59.387       48.847       10.213       35.822       29.056       31.262     1283.241      844.273      977.343        0.456        0.155       76.895       12.961        0.028      335.711        6.527      855.699
11/15/2013  11:47:00       23.329        2.506       16.138       27.783       30.905       42.550      771.902      955.097     1810.526        0.217        0.177       23.463       25.832        1.212      335.886        6.818      855.669
11/15/2013  11:48:00       17.669        6.265       26.399       48.312       42.273       35.674     2334.024     1787.001     1272.639        0.322        0.270       18.747       32.678        3.038      336.074        7.134      855.649
11/15/2013  11:49:00      -16.650       15.740       25.966       36.572       33.806       27.446     1337.476     1142.847      753.263        0.222        0.162       22.912       22.620        0.975      336.375        7.633      855.614
11/15/2013  11:50:00      -82.600       54.495      -10.389       38.436       38.074       25.862     1477.364     1449.633      668.850        0.675        0.180       98.957       19.606        0.039      335.930        6.892      855.605
11/15/2013  11:51:00      -15.507       94.415       -1.378       25.877       60.113       26.418      669.641     3613.535      697.935        0.707        0.249       95.680       28.956        0.092      336.246        7.419      855.591
11/15/2013  11:52:00       32.564       21.312       -8.446       50.268       18.407       24.381     2526.882      338.820      594.426        0.252        0.173       38.918       25.243        0.421      335.846        6.752      855.590
11/15/2013  11:53:00      105.542       55.222       -4.251       71.471       55.536       30.730     5108.111     3084.253      944.339        1.167        0.457      119.116       25.506        0.046      335.903        6.845      855.584
11/15/2013  11:54:00       97.805       93.517       82.912       83.995       78.483       59.098     7055.116     6159.548     3492.516        2.094        0.835      135.319       50.913        0.142      335.943        6.912      855.569
11/15/2013  11:55:00      145.627       75.295       39.855       85.130       68.624       52.053     7247.063     4709.241     2709.540        2.156        0.733      163.941       32.211        0.039      335.860        6.772      855.563
11/15/2013  11:56:00       44.551       61.698      115.375       73.503      101.001       75.159     5402.669    10201.141     5648.868        2.017        1.063       76.101       73.054        0.922      336.093        7.163      855.548
11/15/2013  11:57:00      116.981      -27.478       38.515       90.226      123.298       66.890     8140.649    15202.352     4474.298        2.186        1.391      120.164       85.588        0.507      335.918        6.869      855.544
11/15/2013  11:58:00       31.982       43.565      111.171       70.905      121.240       75.946     5027.471    14699.236     5767.834        2.038        1.275       54.044       92.844        2.951      336.050        7.091      855.543
11/15/2013  11:59:00       85.581      -87.399       10.191       65.823      107.945       51.814     4332.722    11652.021     2684.690        1.686        0.933      122.323       58.237        0.227      336.030        7.057      855.548
11/15/2013  12:00:00       16.172      -54.589        7.609       26.223       67.567       40.170      687.640     4565.311     1613.653        0.508        0.343       56.935       47.820        0.705      336.094        7.165      855.538
11/15/2013  12:01:00      -13.126      -45.284       -5.448       28.940       46.185       23.783      837.551     2133.032      565.635        0.289        0.177       47.148        9.250        0.038      336.227        7.386      855.496
11/15/2013  12:02:00      -55.092      -18.040        9.313       41.535       30.657       27.411     1725.148      939.873      751.374        0.343        0.171       57.971        9.730        0.028      336.353        7.599      855.462
11/15/2013  12:03:00      -83.337      -20.777        7.521       72.523       43.667       25.510     5259.656     1906.843      650.752        0.762        0.391       85.888       37.352        0.189      336.129        7.224      855.422
11/15/2013  12:04:00      -40.598       13.577       18.691       51.516       29.286       22.778     2653.888      857.658      518.845        0.311        0.202       42.808       30.260        0.500      336.189        7.324      855.419
11/15/2013  12:05:00      -49.637      -22.085       -7.457       25.557       24.872       20.190      653.168      618.594      407.651        0.234        0.084       54.328        9.876        0.033      336.014        7.031      855.422
11/15/2013  12:06:00      -25.472       -5.532       -0.243       18.985       18.042       12.820      360.447      325.519      164.358        0.076        0.043       26.066        7.668        0.087      336.271        7.460      855.435
11/15/2013  12:07:00      -11.747      -54.354       -0.396       26.138       41.955       24.459      683.174     1760.258      598.236        0.307        0.152       55.609       15.247        0.075      336.374        7.633      855.426
11/15/2013  12:08:00      -14.784      -22.824       17.038       69.877       61.804       29.813     4882.824     3819.733      888.795        0.531        0.480       27.194       19.413        0.510      336.187        7.319      855.408
11/15/2013  12:09:00       19.308       36.843       22.278       51.666       33.196       28.384     2669.369     1101.994      805.674        0.340        0.229       41.596       28.187        0.459      336.281        7.479      855.402
11/15/2013  12:10:00       33.756      104.737       -1.549       38.601       61.623       35.609     1490.062     3797.398     1267.975        0.933        0.328      110.042       37.605        0.117      335.965        6.950      855.376
11/15/2013  12:11:00       16.071      150.781      -11.438       48.266       73.621       37.070     2329.622     5420.013     1374.179        1.612        0.456      151.635       35.838        0.056      335.984        6.981      855.359
11/15/2013  12:12:00      104.183       77.317        9.219       69.948       68.526       50.001     4892.789     4695.794     2500.052        1.450        0.604      129.738       39.298        0.092      335.927        6.885      855.356
11/15/2013  12:13:00      100.965       85.312       19.320       53.824       44.710       48.192     2897.004     1999.028     2322.457        1.253        0.361      132.182       30.865        0.055      335.843        6.746      855.357
11/15/2013  12:14:00       48.159       62.605        2.638       51.156       51.866       32.971     2616.927     2690.074     1087.100        0.632        0.320       78.986       26.820        0.115      336.009        7.023      855.351
11/15/2013  12:15:00      123.951       67.296        8.672       84.447       57.336       44.066     7131.357     3287.464     1941.836        1.616        0.618      141.040       23.482        0.028      335.987        6.984      855.351
11/15/2013  12:16:00      146.317       94.336       14.852       75.217       62.317       54.400     5657.529     3883.391     2959.400        2.151        0.625      174.092       26.952        0.024      335.842        6.742      855.363
11/15/2013  12:17:00       51.420       69.309       -2.058       43.001       45.543       43.674     1849.108     2074.167     1907.443        0.664        0.292       86.301       25.616        0.088      335.974        6.965      855.363
11/15/2013  12:18:00       32.146       65.105      -32.555       31.192       42.804       18.614      972.917     1832.163      346.494        0.474        0.158       72.609       10.749        0.022      335.886        6.819      855.377
11/15/2013  12:19:00      -23.056       83.348      -10.612       45.656       45.447       23.875     2084.444     2065.402      570.038        0.615        0.236       86.478       25.553        0.087      335.869        6.791      855.394
11/15/2013  12:20:00      -21.096      147.272      -15.704       40.451       68.774       30.530     1636.311     4729.843      932.066        1.484        0.365      148.775       32.276        0.047      335.946        6.917      855.394
11/15/2013  12:21:00      -13.706       60.526       11.841       36.273      102.048       35.049     1315.760    10413.846     1228.459        0.847        0.648       62.058       48.403        0.608      336.156        7.269      855.391
11/15/2013  12:22:00      -53.177      199.989      -22.799       26.958       59.603       28.325      726.746     3552.529      802.282        2.421        0.254      206.938       32.804        0.025      335.747        6.585      855.376
11/15/2013  12:23:00      -60.855      102.401      -19.446       28.033       38.373       21.054      785.831     1472.492      443.280        0.863        0.135      119.119       19.297        0.026      335.789        6.657      855.366
11/15/2013  12:24:00      -89.681       35.945      -16.065       24.345       35.740       19.450      592.671     1277.332      378.305        0.592        0.112       96.617       17.677        0.033      335.732        6.562      855.353
11/15/2013  12:25:00      -60.504       29.218       -1.834       36.620       19.897       23.296     1341.006      395.875      542.681        0.340        0.114       67.189       24.683        0.135      335.879        6.807      855.353
11/15/2013  12:26:00       -3.241       53.982        6.122       32.537       59.460       23.914     1058.646     3535.482      571.894        0.406        0.258       54.079       31.172        0.332      336.122        7.211      855.374
11/15/2013  12:27:00       56.306      109.313       -5.800       64.842       50.515       48.576     4204.525     2551.771     2359.579        1.213        0.456      122.962       32.585        0.070      335.967        6.951      855.409
11/15/2013  12:28:00       38.154      162.924      -26.551       30.960       36.631       33.453      958.505     1341.840     1119.112        1.606        0.171      167.332       22.472        0.018      335.833        6.729      855.440
11/15/2013  12:29:00       31.957       92.550       -8.962       55.598       60.240       36.646     3091.143     3628.800     1342.955        0.886        0.403       97.912       26.633        0.074      335.968        6.954      855.441
11/15/2013  12:30:00       72.476       68.140       33.399       43.826       40.462       39.593     1920.701     1637.184     1567.594        0.807        0.256       99.478       16.364        0.027      336.139        7.241      855.415
11/15/2013  12:31:00      163.373      107.510        7.511       87.737       72.626       47.089     7697.821     5274.523     2217.367        2.674        0.759      195.573       34.502        0.031      335.974        6.962      855.393
11/15/2013  12:32:00      154.677       99.312       34.054       49.487       44.909       37.950     2448.955     2016.782     1440.190        2.043        0.295      183.815       27.828        0.023      335.876        6.800      855.357
11/15/2013  12:33:00      179.346       87.649       36.000       58.380       45.756       45.156     3408.278     2093.581     2039.093        2.434        0.377      199.618       20.272        0.010      335.869        6.787      855.329
11/15/2013  12:34:00      104.774      101.455      101.940       91.809       80.132       74.106     8428.834     6421.178     5491.762        2.600        1.017      145.845       72.203        0.245      336.080        7.139      855.289
11/15/2013  12:35:00       64.960      156.354      147.534       86.611       93.083       69.890     7501.433     8664.438     4884.651        3.574        1.053      169.311       58.144        0.118      336.114        7.195      855.256
11/15/2013  12:36:00      112.526       53.890       76.265       68.342       76.048       56.197     4670.596     5783.305     3158.141        1.749        0.681      124.765       45.450        0.133      336.141        7.242      855.250
11/15/2013  12:37:00      162.493      102.861       13.570       57.467       44.118       44.279     3302.423     1946.403     1960.645        2.219        0.360      192.314       30.323        0.025      336.052        7.093      855.259
11/15/2013  12:38:00      157.665      108.958       18.786       54.542       42.909       42.999     2974.859     1841.167     1848.914        2.187        0.333      191.651       20.914        0.012      335.947        6.917      855.262
11/15/2013  12:39:00       79.897       66.288       -1.195       51.041       41.353       33.461     2605.208     1710.039     1119.643        0.811        0.272      103.816       23.308        0.050      336.096        7.166      855.254
11/15/2013  12:40:00       57.030       23.393       -3.192       58.044       62.963       39.649     3369.140     3964.355     1572.039        0.636        0.445       61.641       43.760        0.504      336.057        7.103      855.243
11/15/2013  12:41:00       17.027       40.827        8.817       31.100       28.442       23.594      967.184      808.963      556.690        0.218        0.117       44.235        8.688        0.039      336.331        7.560      855.245
11/15/2013  12:42:00       12.282       11.610        7.004       16.482       22.466       13.082      271.649      504.724      171.130        0.064        0.047       16.901       11.330        0.449      336.704        8.185      855.229
11/15/2013  12:43:00       22.330       38.858       -6.815       18.680       27.402       20.864      348.940      750.862      435.291        0.179        0.077       44.817       18.945        0.179      336.394        7.666      855.206
11/15/2013  12:44:00        3.192       28.119        6.717       25.905       29.159       21.103      671.080      850.237      445.342        0.141        0.098       28.300       18.399        0.423      336.839        8.411      855.182
11/15/2013  12:45:00      -26.781       16.549        9.487       26.427       50.021       23.319      698.389     2502.145      543.792        0.241        0.187       31.482       23.428        0.554      336.935        8.572      855.180
11/15/2013  12:46:00       47.133       77.295       18.832       58.288       37.498       32.682     3397.486     1406.133     1068.107        0.721        0.294       90.532       29.981        0.110      336.618        8.041      855.191
11/15/2013  12:47:00      116.827       72.765       25.617       84.849       45.990       45.046     7199.434     2115.057     2029.132        1.547        0.567      137.635       24.529        0.032      336.435        7.733      855.210
11/15/2013  12:48:00      120.277       78.821       14.812       73.685       51.511       54.137     5429.457     2653.415     2930.800        1.595        0.551      143.802       39.380        0.075      336.306        7.519      855.211
11/15/2013  12:49:00      126.380       65.219       26.218       40.082       37.966       35.560     1606.591     1441.430     1264.511        1.261        0.216      142.216       21.264        0.022      336.124        7.215      855.215
11/15/2013  12:50:00       79.456       33.136       40.899       73.685       58.080       45.628     5429.451     3373.326     2081.875        0.998        0.544       86.088       27.931        0.105      336.198        7.339      855.189
11/15/2013  12:51:00       48.315       50.933       24.367       40.602       39.373       25.603     1648.531     1550.246      655.518        0.469        0.193       70.203       20.881        0.088      336.380        7.641      855.156
11/15/2013  12:52:00       27.767       13.164       22.558       30.613       38.518       19.924      937.172     1483.610      396.982        0.213        0.141       30.729       15.862        0.266      336.663        8.116      855.151
11/15/2013  12:53:00       38.377       48.296       15.400       41.196       24.381       19.356     1697.128      594.420      374.651        0.335        0.133       61.687       14.645        0.056      336.706        8.188      855.157
11/15/2013  12:54:00       57.181       84.353       14.577       64.781       62.210       48.668     4196.576     3870.038     2368.547        1.051        0.522      101.907       37.963        0.139      336.779        8.311      855.133
11/15/2013  12:55:00      171.511      106.363       31.713       93.766       71.902       57.675     8792.152     5169.968     3326.349        2.951        0.864      201.815       42.689        0.045      336.729        8.225      855.114
11/15/2013  12:56:00       69.795      102.149       88.757       72.582       71.727       73.749     5268.171     5144.829     5438.866        1.951        0.793      123.717       60.562        0.240      336.784        8.316      855.094
11/15/2013  12:57:00       67.723       74.369       40.549       52.116       40.996       40.107     2716.043     1680.643     1608.534        0.888        0.300      100.584       34.345        0.117      336.385        7.652      855.067
11/15/2013  12:58:00       77.186      114.471       -3.796       87.104       56.097       45.952     7587.181     3146.907     2111.581        1.596        0.642      138.063       39.930        0.084      336.531        7.895      855.043
11/15/2013  12:59:00      185.070      146.453       31.120       95.350       56.879       56.570     9091.572     3235.255     3200.160        3.609        0.776      236.007       36.118        0.023      336.288        7.486      855.018
11/15/2013  13:00:00       92.648       83.732        1.066       77.402       65.911       42.585     5991.105     4344.207     1813.496        1.387        0.607      124.879       28.662        0.053      336.394        7.666      854.996
11/15/2013  13:01:00       41.960       83.831       -1.795       50.645       50.423       34.752     2564.878     2542.515     1207.711        0.755        0.316       93.746       29.360        0.098      336.480        7.811      854.970
11/15/2013  13:02:00      -39.598      131.800       -6.745       45.311       52.795       34.963     2053.046     2787.321     1222.408        1.252        0.303      137.620       28.095        0.042      336.579        7.975      854.952
11/15/2013  13:03:00       10.099       66.006       -2.219       26.491       55.416       20.086      701.792     3070.878      403.447        0.432        0.209       66.774       23.828        0.127      336.566        7.955      854.931
11/15/2013  13:04:00       93.761       15.977       35.560       62.832       66.484       45.952     3947.846     4420.078     2111.614        1.039        0.524       95.113       35.379        0.138      336.752        8.264      854.900
11/15/2013  13:05:00      126.879      112.094      104.608       88.780       68.215       65.034     7881.909     4653.250     4229.383        2.818        0.838      169.303       63.282        0.140      336.390        7.656      854.861
11/15/2013  13:06:00       97.336       83.702       44.780       77.416       51.990       40.526     5993.273     2702.994     1642.372        1.441        0.517      128.376       24.870        0.038      336.655        8.103      854.830
11/15/2013  13:07:00      104.870       57.008       32.419       85.116       82.809       47.528     7244.674     6857.346     2258.890        1.583        0.818      119.363       20.030        0.028      336.851        8.429      854.786
11/15/2013  13:08:00      141.063       95.614       50.058       66.872       56.323       65.521     4471.814     3172.265     4293.058        2.174        0.597      170.413       37.804        0.049      336.631        8.060      854.760
11/15/2013  13:09:00      138.874       76.873       10.587       63.910       50.029       34.927     4084.447     2502.860     1219.866        1.656        0.390      158.731       19.511        0.015      336.515        7.867      854.734
11/15/2013  13:10:00       96.416       93.357       14.311       67.654       46.997       43.556     4577.014     2208.732     1897.099        1.345        0.434      134.207       36.078        0.072      336.487        7.821      854.719
11/15/2013  13:11:00       46.723       14.346       43.415       46.564       64.595       37.198     2168.238     4172.556     1383.670        0.600        0.386       48.875       41.456        0.719      336.554        7.934      854.679
11/15/2013  13:12:00       18.002      -17.709       27.784       45.473       58.434       34.365     2067.801     3414.489     1180.949        0.404        0.333       25.252       39.652        2.466      336.743        8.249      854.663
11/15/2013  13:13:00       86.053       55.324       33.349       61.409       59.997       45.251     3771.004     3599.673     2047.657        1.050        0.471      102.303       30.543        0.089      336.636        8.071      854.651
11/15/2013  13:14:00      155.385       93.374       53.096       86.132       49.732       48.674     7418.735     2473.318     2369.163        2.397        0.613      181.282       16.926        0.009      336.461        7.777      854.655
11/15/2013  13:15:00      185.466      133.795      106.131       81.051       85.358       72.808     6569.215     7286.048     5300.987        4.136        0.958      228.689       41.479        0.033      336.366        7.616      854.623
11/15/2013  13:16:00       68.433       61.141       29.381       68.118       68.938       46.627     4640.117     4752.496     2174.110        1.042        0.578       91.768       44.804        0.238      336.642        8.080      854.615
11/15/2013  13:17:00       40.692       71.753       -2.304       52.633       46.109       34.961     2770.245     2126.051     1222.296        0.646        0.306       82.488       21.920        0.071      336.514        7.867      854.587
11/15/2013  13:18:00       31.219       79.308       20.398       54.807       56.862       36.459     3003.839     3233.319     1329.272        0.762        0.378       85.231       17.972        0.044      336.554        7.936      854.545
11/15/2013  13:19:00       49.476      140.043      -18.540       47.331       43.692       39.358     2240.204     1909.006     1549.035        1.405        0.285      148.526       21.264        0.020      336.344        7.583      854.514
11/15/2013  13:20:00       83.359       72.740        3.602       35.805       43.129       34.960     1281.985     1860.142     1222.188        0.831        0.218      110.633       18.268        0.027      336.301        7.509      854.493
11/15/2013  13:21:00       -2.290       17.800      -16.737       13.409       20.097       16.050      179.798      403.891      257.600        0.072        0.042       17.946       12.359        0.474      336.513        7.866      854.471
11/15/2013  13:22:00       21.053       32.577        4.243       43.295       20.704       22.891     1874.429      428.653      523.983        0.217        0.141       38.788       19.340        0.249      336.569        7.959      854.453
11/15/2013  13:23:00      -36.807       92.887      -14.934       47.766       48.255       26.516     2281.609     2328.514      703.119        0.776        0.266       99.913       28.074        0.079      336.682        8.148      854.455
11/15/2013  13:24:00      -33.673      152.859      -11.703       42.346       48.164       33.073     1793.198     2319.819     1093.819        1.492        0.260      156.524       13.123        0.007      336.478        7.805      854.449
11/15/2013  13:25:00       -4.397      178.687      -17.462       37.910       30.246       23.064     1437.147      914.848      531.940        1.757        0.144      178.741       16.063        0.008      336.298        7.506      854.456
11/15/2013  13:26:00      -44.225      100.764       -9.752       28.330       40.322       22.670      802.586     1625.846      513.918        0.757        0.147      110.042       19.493        0.031      336.562        7.946      854.447
11/15/2013  13:27:00      -64.711        0.035        1.139       34.931       28.524       20.503     1220.182      813.608      420.368        0.332        0.123       64.711        7.641        0.014      336.537        7.905      854.424
11/15/2013  13:28:00       27.013       28.141       21.478       50.132       23.235       24.518     2513.260      539.880      601.141        0.282        0.183       39.008       26.547        0.463      336.732        8.234      854.404
11/15/2013  13:29:00      103.482       70.885       21.041       71.844       45.621       34.359     5161.517     2081.300     1180.573        1.230        0.421      125.432       17.686        0.020      336.661        8.110      854.365
11/15/2013  13:30:00      201.234      104.571       29.155       87.747       57.040       52.423     7699.541     3253.579     2748.153        3.299        0.685      226.782       43.583        0.037      336.503        7.845      854.303
11/15/2013  13:31:00      147.821       56.261       11.952       74.104       49.613       57.076     5491.370     2461.498     3257.652        1.818        0.561      158.165       33.933        0.046      336.598        8.007      854.245
11/15/2013  13:32:00       46.701       57.628       37.237       48.381       57.046       58.705     2340.674     3254.287     3446.293        0.796        0.452       74.175       40.820        0.303      337.049        8.760      854.204
11/15/2013  13:33:00       66.142       62.345       54.620       76.256       52.624       44.013     5814.924     2769.242     1937.148        1.088        0.526       90.893       35.224        0.150      336.811        8.362      854.180
11/15/2013  13:34:00      110.658       73.450       18.213       78.252       50.864       43.752     6123.441     2587.107     1914.202        1.430        0.531      132.816       20.092        0.023      336.703        8.183      854.158
11/15/2013  13:35:00       30.627       35.399       28.448       60.060       31.989       30.761     3607.148     1023.327      946.243        0.429        0.279       46.809       24.804        0.281      337.044        8.751      854.145
11/15/2013  13:36:00       65.123      -11.795       53.530       76.921      105.489       72.592     5916.873    11127.903     5269.572        1.478        1.116       66.183       69.666        1.108      337.073        8.801      854.107
11/15/2013  13:37:00       87.948       -7.385       90.794       99.230       94.144       69.220     9846.541     8863.020     4791.458        1.976        1.175       88.257       58.742        0.443      336.898        8.507      854.074
11/15/2013  13:38:00       64.409       14.124       87.546       80.851      125.996       71.167     6536.933    15874.998     5064.774        1.974        1.374       65.940       78.097        1.403      337.033        8.731      854.048
11/15/2013  13:39:00       66.340     -102.495       20.253       68.550      120.471       58.479     4699.070    14513.155     3419.787        1.897        1.132      122.091       58.711        0.231      337.135        8.901      854.025
11/15/2013  13:40:00       72.608       60.409       81.186       74.824       60.482       59.111     5598.567     3658.130     3494.052        1.413        0.638       94.452       49.130        0.271      336.789        8.326      854.014
11/15/2013  13:41:00       87.630       58.658       22.884       40.096       42.326       52.569     1607.663     1791.531     2763.542        0.890        0.308      105.450       20.531        0.038      336.653        8.101      853.976
11/15/2013  13:42:00       90.235       75.645       28.924       15.505       12.056       19.274      240.398      145.355      371.501        0.773        0.038      117.748        3.530        0.001      336.380        7.643      853.948
11/15/2013  13:43:00       58.372       61.155        7.720       41.694       38.033       14.932     1738.411     1446.503      222.955        0.531        0.170       84.542       11.940        0.020      336.498        7.842      853.916
11/15/2013  13:44:00       -2.595       37.930       12.657       28.070       28.203       24.442      787.917      795.411      597.408        0.189        0.109       38.019       16.148        0.180      336.865        8.454      853.897
11/15/2013  13:45:00       28.313      -16.239       14.465       51.744      113.842       42.702     2677.423    12959.972     1823.474        0.936        0.873       32.640       19.971        0.374      336.923        8.550      853.893
11/15/2013  13:46:00      107.900       40.429       48.486      117.967       79.557       45.209    13916.203     6329.364     2043.853        1.895        1.114      115.226       46.267        0.161      336.980        8.644      853.886
11/15/2013  13:47:00      136.686       28.835       15.293       86.905       55.822       48.403     7552.511     3116.075     2342.825        1.638        0.651      139.695       33.306        0.057      336.698        8.173      853.888
11/15/2013  13:48:00       93.155       65.490       -8.422       72.020       45.057       45.212     5186.865     2030.122     2044.119        1.115        0.463      113.871       30.775        0.073      336.690        8.161      853.865
11/15/2013  13:49:00       23.085       36.405       -3.708       52.383       62.511       32.413     2743.942     3907.619     1050.620        0.479        0.385       43.108       26.537        0.379      336.922        8.549      853.839
11/15/2013  13:50:00       -3.633      122.936      -12.782       42.774       55.679       32.787     1829.612     3100.144     1074.984        1.065        0.300      122.990       34.919        0.081      336.744        8.253      853.818
11/15/2013  13:51:00        1.013       65.668       -3.453       55.510       53.321       31.116     3081.361     2843.082      968.197        0.561        0.345       65.676       28.660        0.190      336.785        8.320      853.784
11/15/2013  13:52:00       88.185       30.794       53.364      100.092      109.300       77.154    10018.490    11946.443     5952.742        1.974        1.396       93.407       69.674        0.556      337.192        8.999      853.744
11/15/2013  13:53:00      110.906      125.103      116.900       87.799       93.408       80.381     7708.674     8725.132     6461.075        3.225        1.145      167.185       68.650        0.169      337.141        8.912      853.694
11/15/2013  13:54:00       61.990      -97.187       38.296      116.496      162.260       84.877    13571.368    26328.398     7204.084        3.092        2.355      115.273      104.611        0.824      337.398        9.344      853.643
11/15/2013  13:55:00      136.679      -51.456       66.487      136.900      197.600       94.267    18741.660    39045.858     8886.227        4.620        3.334      146.044      129.042        0.781      336.980        8.643      853.604
11/15/2013  13:56:00       52.675       39.244      105.294      101.668       97.896       71.968    10336.481     9583.632     5179.420        2.025        1.255       65.687       79.728        1.473      336.946        8.586      853.602
11/15/2013  13:57:00      111.043     -107.091       13.391       84.828      109.738       58.975     7195.774    12042.324     3478.008        2.334        1.136      154.270       53.759        0.121      337.056        8.770      853.593
11/15/2013  13:58:00      165.688     -224.705      -26.961       81.463       81.467       50.528     6636.248     6636.844     2553.053        4.725        0.791      279.186       49.751        0.032      336.886        8.484      853.584
11/15/2013  13:59:00       52.801      -83.455       48.942       64.407       99.023       51.098     4148.200     9805.652     2610.973        1.435        0.828       98.756       56.736        0.330      337.284        9.153      853.607
11/15/2013  14:00:00       84.390       43.146       75.654       80.740      108.652       71.988     6518.981    11805.295     5182.336        1.910        1.175       94.780       85.654        0.817      336.941        8.579      853.623
11/15/2013  14:01:00       59.339      -76.750       48.802       91.514      119.424       57.110     8374.797    14262.193     3261.519        1.884        1.295       97.013       74.342        0.587      337.212        9.032      853.644
11/15/2013  14:02:00      163.827      -87.502       17.662      116.772      195.269       89.579    13635.724    38130.173     8024.430        4.729        2.990      185.730      117.209        0.398      336.754        8.265      853.666
11/15/2013  14:03:00      155.008      112.797      116.129      104.921       94.342       75.889    11008.328     8900.443     5759.107        3.795        1.283      191.705       72.789        0.144      336.718        8.206      853.712
11/15/2013  14:04:00      173.481      146.986      124.874      110.902       68.789       82.667    12299.362     4731.936     6833.804        4.557        1.193      227.377       65.824        0.084      336.647        8.086      853.731
11/15/2013  14:05:00      112.869       65.582       65.918       59.674       82.302       69.284     3560.984     6773.639     4800.248        1.826        0.757      130.539       57.645        0.195      336.684        8.151      853.770
11/15/2013  14:06:00      105.761       46.124       29.666       68.580       67.646       35.085     4703.175     4575.936     1230.967        1.235        0.526      115.381       30.112        0.068      336.619        8.043      853.762
11/15/2013  14:07:00       57.031       82.574       79.979       74.947       67.831       63.878     5617.076     4601.013     4080.355        1.538        0.715      100.354       58.926        0.345      336.839        8.408      853.725
11/15/2013  14:08:00       89.656       55.368       14.758       33.020       43.271       44.264     1090.314     1872.353     1959.258        0.812        0.246      105.374       12.206        0.013      336.808        8.357      853.709
11/15/2013  14:09:00      117.628       64.095       52.238       73.807       50.625       40.887     5447.505     2562.925     1671.747        1.518        0.484      133.957       29.957        0.050      336.828        8.392      853.699
11/15/2013  14:10:00       75.670       26.260       39.049       54.290       63.228       51.822     2947.360     3997.832     2685.561        0.878        0.482       80.097       50.697        0.401      336.813        8.366      853.703
11/15/2013  14:11:00       40.213      -64.717       17.821       63.362       77.746       50.023     4014.792     6044.508     2502.311        0.934        0.628       76.193       49.807        0.427      337.007        8.690      853.706
11/15/2013  14:12:00        8.466      -99.183      -11.246       41.768       64.042       28.799     1744.603     4101.369      829.384        0.835        0.334       99.543       24.109        0.059      336.846        8.421      853.727
11/15/2013  14:13:00       40.584       -4.822       34.165       48.407       83.576       61.325     2343.274     6984.987     3760.715        0.796        0.654       40.869       67.607        2.736      337.005        8.687      853.738
11/15/2013  14:14:00       66.868      -11.742       72.136       60.233      112.480       66.771     3627.968    12651.684     4458.402        1.527        1.037       67.891       81.382        1.437      336.865        8.452      853.748
11/15/2013  14:15:00       87.080     -127.527        4.697       58.474       72.412       40.580     3419.259     5243.526     1646.735        1.709        0.515      154.422       40.694        0.069      336.886        8.487      853.756
11/15/2013  14:16:00      137.742     -165.228      -36.784       86.740       84.739       48.327     7523.877     7180.715     2335.509        3.233        0.852      215.112       47.534        0.049      336.736        8.236      853.758
11/15/2013  14:17:00       72.272     -104.446        3.712       62.146       67.772       45.406     3862.102     4593.004     2061.682        1.333        0.526      127.013       48.661        0.147      336.814        8.367      853.785
11/15/2013  14:18:00       36.977      -50.382        3.605       30.230       50.534       27.956      913.844     2553.713      781.517        0.408        0.212       62.495       32.816        0.276      336.954        8.603      853.779
11/15/2013  14:19:00       57.307      -38.029       11.213       43.689       53.885       35.874     1908.754     2903.558     1286.922        0.548        0.305       68.777       42.164        0.376      336.833        8.400      853.764
11/15/2013  14:20:00       33.836      -51.712      -10.934       28.312       49.769       27.108      801.594     2476.921      734.841        0.398        0.201       61.798       23.348        0.143      336.746        8.255      853.755
11/15/2013  14:21:00       -2.881       28.934       35.572       21.766       40.022       39.870      473.757     1601.779     1589.618        0.289        0.183       29.077       32.459        1.246      336.923        8.551      853.745
11/15/2013  14:22:00       58.103       89.825       80.044       43.296       30.061       28.728     1874.503      903.681      825.291        1.073        0.180      106.979       14.593        0.019      336.760        8.278      853.745
11/15/2013  14:23:00       30.869       72.991       72.369       31.915       37.414       22.576     1018.536     1399.836      509.683        0.722        0.146       79.250       23.521        0.088      336.911        8.530      853.775
11/15/2013  14:24:00       74.011       15.646       14.143       30.305       26.557       34.055      918.370      705.263     1159.773        0.435        0.139       75.647       26.407        0.122      336.817        8.373      853.795
11/15/2013  14:25:00        2.950       12.839      -10.093       17.599       30.625       16.064      309.723      937.877      258.041        0.089        0.075       13.174       10.258        0.606      336.771        8.298      853.813
11/15/2013  14:26:00       -5.939       84.117      -10.621       17.517       29.109       14.471      306.857      847.340      209.417        0.429        0.068       84.327        8.023        0.009      336.700        8.179      853.811
11/15/2013  14:27:00        3.032       82.170      -14.351       15.118       27.059       20.322      228.539      732.207      412.993        0.417        0.069       82.226       16.779        0.042      336.749        8.260      853.799
11/15/2013  14:28:00       44.879       49.094       18.247       36.180       28.805       23.226     1309.010      829.725      539.429        0.372        0.134       66.515       20.720        0.097      336.846        8.422      853.803
11/15/2013  14:29:00       69.474       19.876        8.255       37.128       23.605       21.493     1378.515      557.190      461.951        0.384        0.120       72.261       17.987        0.062      336.839        8.409      853.806
11/15/2013  14:30:00       -5.202       54.498        0.289       28.500       28.926       20.061      812.246      836.739      402.446        0.252        0.103       54.746       16.417        0.090      336.871        8.463      853.810
11/15/2013  14:31:00       12.254       70.422        0.427       22.798       29.624       20.870      519.770      877.576      435.548        0.347        0.092       71.480       14.639        0.042      336.934        8.568      853.820
11/15/2013  14:32:00       20.235       29.907       13.647       23.552       20.778       22.809      554.705      431.743      520.232        0.150        0.075       36.110        9.327        0.067      337.014        8.702      853.813
11/15/2013  14:33:00       20.090       54.605       82.602       45.804       39.588       31.380     2098.010     1567.238      984.730        0.743        0.232       58.183       29.021        0.249      337.091        8.831      853.788
11/15/2013  14:34:00       34.141       64.029       60.623       43.933       44.362       53.541     1930.095     1967.973     2866.648        0.785        0.338       72.563       38.871        0.287      337.121        8.881      853.763
11/15/2013  14:35:00       86.385      110.588       80.716       70.929       53.163       57.781     5030.933     2826.339     3338.607        1.870        0.560      140.328       42.377        0.091      337.164        8.951      853.752
11/15/2013  14:36:00      141.674      118.467       26.239       56.416       43.351       41.972     3182.814     1879.304     1761.672        2.081        0.341      184.678       24.487        0.018      337.045        8.751      853.767
11/15/2013  14:37:00      167.602       89.900       17.290       62.307       59.802       45.240     3882.206     3576.234     2046.639        2.299        0.475      190.190       22.557        0.014      336.908        8.522      853.781
11/15/2013  14:38:00      159.045       89.119       20.768       63.375       44.935       53.303     4016.446     2019.125     2841.251        2.127        0.444      182.312       25.597        0.020      336.940        8.578      853.803
11/15/2013  14:39:00      112.247       93.679       56.060       64.654       45.625       52.888     4180.082     2081.630     2797.161        1.679        0.453      146.203       27.865        0.036      336.944        8.584      853.807
11/15/2013  14:40:00      101.704      118.165       74.141       66.820       30.637       47.260     4464.967      938.653     2233.480        1.872        0.382      155.907       42.420        0.074      336.929        8.559      853.816
11/15/2013  14:41:00       33.786       33.704       68.209       35.912       53.916       28.804     1289.678     2906.957      829.666        0.598        0.251       47.723       34.521        0.523      337.229        9.062      853.818
11/15/2013  14:42:00       57.758       16.005       13.918       37.618       22.971       38.203     1415.098      527.689     1459.443        0.359        0.170       59.934       23.826        0.158      337.076        8.805      853.811
11/15/2013  14:43:00      -13.454       25.809      -21.897       32.963       22.418       14.323     1086.529      502.550      205.150        0.156        0.090       29.105       13.529        0.216      336.868        8.459      853.799
11/15/2013  14:44:00      -62.741       43.298      -10.413       23.855       58.431       24.005      569.050     3414.134      576.244        0.524        0.228       76.231       18.765        0.061      337.130        8.898      853.782
11/15/2013  14:45:00     -107.355       63.425      -10.854       38.952       44.721       31.030     1517.239     1999.928      962.848        1.007        0.224      124.691       22.754        0.033      337.247        9.092      853.768
11/15/2013  14:46:00     -115.368       23.561      -18.158       34.731       60.810       28.169     1206.231     3697.825      793.476        0.994        0.285      117.749       21.160        0.032      337.297        9.177      853.748
11/15/2013  14:47:00      -64.335      -16.347        4.880       49.402       31.561       24.103     2440.544      996.107      580.963        0.422        0.201       66.379       22.319        0.113      337.581        9.652      853.743
11/15/2013  14:48:00      -38.403      -38.775        4.606       45.215       22.717       16.971     2044.422      516.072      288.029        0.292        0.142       54.574       17.460        0.102      337.493        9.505      853.738
11/15/2013  14:49:00       62.928       53.821       12.204       36.730       32.420       25.541     1349.117     1051.077      652.364        0.503        0.153       82.805       24.315        0.086      337.063        8.783      853.722
11/15/2013  14:50:00       92.951       46.464       28.045       39.057       39.419       39.576     1525.473     1553.847     1566.269        0.811        0.232      103.917       23.719        0.052      337.020        8.711      853.706
11/15/2013  14:51:00       83.708       23.845        3.187       29.280       34.232       20.998      857.345     1171.808      440.917        0.503        0.124       87.038       19.691        0.051      336.794        8.338      853.701
11/15/2013  14:52:00       26.972        8.133       18.707       29.301       27.178       23.760      858.566      738.640      564.521        0.165        0.108       28.172       15.090        0.287      337.077        8.807      853.690
11/15/2013  14:53:00       65.913       37.634       20.920       41.240       37.060       42.097     1700.728     1373.422     1772.160        0.552        0.242       75.900       19.440        0.066      337.144        8.919      853.678
11/15/2013  14:54:00       49.017       50.111       35.068       36.440       27.558       35.071     1327.889      759.462     1229.947        0.473        0.166       70.098       16.029        0.052      337.220        9.048      853.657
11/15/2013  14:55:00       25.124       63.444       72.301       56.438       35.464       56.151     3185.194     1257.695     3152.892        0.874        0.380       68.238       47.991        0.495      337.268        9.128      853.623
11/15/2013  14:56:00       42.332      -21.084       15.601       33.410       35.955       22.361     1116.224     1292.777      499.995        0.269        0.145       47.292       18.786        0.158      337.420        9.381      853.593
11/15/2013  14:57:00       17.685       -8.420        6.998       36.760       54.650       28.454     1351.329     2986.627      809.612        0.279        0.257       19.587       27.033        1.905      337.491        9.502      853.551
11/15/2013  14:58:00       53.037      -69.045        9.734       64.252       47.267       35.517     4128.285     2234.165     1261.433        0.765        0.381       87.064       40.459        0.216      337.366        9.292      853.496
11/15/2013  14:59:00       63.012     -144.275      -17.160       64.709       73.400       31.551     4187.253     5387.492      995.454        1.782        0.529      157.435       41.249        0.069      337.278        9.142      853.455
11/15/2013  15:00:00       24.082      -35.426       17.040       53.125       66.681       45.207     2822.226     4446.351     2043.641        0.572        0.466       42.836       47.316        1.220      337.374        9.305      853.439
11/15/2013  15:01:00      -27.609      -56.704       -8.303       29.369       54.758       25.585      862.556     2998.387      654.574        0.428        0.226       63.068       21.193        0.113      337.820       10.053      853.421
11/15/2013  15:02:00        9.411      -70.856      -22.507       70.100       69.161       44.629     4913.993     4783.234     1991.747        0.865        0.584       71.478       48.114        0.453      337.748        9.931      853.414
11/15/2013  15:03:00       61.758      -74.786        6.067       90.014       59.547       42.387     8102.465     3545.842     1796.669        1.144        0.672       96.990       41.699        0.185      337.529        9.564      853.393
11/15/2013  15:04:00       -8.004      -23.530       13.043       54.806       55.006       40.556     3003.696     3025.703     1644.821        0.423        0.384       24.854       30.062        1.463      337.579        9.647      853.351
11/15/2013  15:05:00      120.185     -221.184      -21.446       70.935       84.798       49.470     5031.751     7190.749     2447.329        3.925        0.733      251.728       45.706        0.033      337.253        9.098      853.315
11/15/2013  15:06:00      100.321     -145.057      -32.875       75.213       91.610       46.911     5657.051     8392.442     2200.656        2.422        0.813      176.369       41.230        0.055      337.392        9.333      853.301
11/15/2013  15:07:00       62.256      -65.984       14.594       47.607       69.503       39.476     2266.417     4830.615     1558.380        0.855        0.433       90.718       48.854        0.290      337.254        9.103      853.296
11/15/2013  15:08:00       52.675      -53.176       17.655       57.667       37.400       38.330     3325.516     1398.745     1469.176        0.605        0.310       74.849       23.414        0.098      337.517        9.545      853.278
11/15/2013  15:09:00       97.141       28.452       64.905       74.430       64.159       44.892     5539.784     4116.434     2015.259        1.306        0.584      101.222       39.893        0.155      337.214        9.037      853.267
11/15/2013  15:10:00       94.850      -27.700       37.721       91.695      129.920       68.558     8407.899    16879.187     4700.215        2.058        1.499       98.812       89.411        0.819      337.134        8.902      853.229
11/15/2013  15:11:00       84.547      -87.686       13.146       56.121       95.886       52.059     3149.575     9194.213     2710.128        1.503        0.753      121.808       65.529        0.289      337.185        8.988      853.188
11/15/2013  15:12:00       77.133     -122.402        6.443       49.035       48.828       38.236     2404.405     2384.165     1461.978        1.361        0.313      144.679       26.418        0.033      337.433        9.403      853.153
11/15/2013  15:13:00       62.014      -96.695      -13.367       45.837       41.109       25.807     2101.039     1689.936      666.019        0.891        0.223      114.872       21.318        0.034      337.561        9.619      853.129
11/15/2013  15:14:00       38.140      -49.442       32.348       69.915       57.967       55.279     4888.162     3360.154     3055.812        0.812        0.565       62.443       47.989        0.591      337.610        9.700      853.104
11/15/2013  15:15:00       43.558      -66.451       36.431       70.060      118.620       70.030     4908.373    14070.623     4904.202        1.576        1.194       79.454       79.745        1.007      337.485        9.491      853.088
11/15/2013  15:16:00       43.379      -16.280       48.519       67.576       93.862       66.705     4566.531     8810.097     4449.491        1.116        0.891       46.333       69.279        2.236      337.267        9.126      853.073
11/15/2013  15:17:00       -4.762       -5.881       45.819       51.519       53.768       35.254     2654.235     2890.981     1242.815        0.447        0.339        7.567       31.780       17.639      337.603        9.687      853.060
11/15/2013  15:18:00        5.699      -18.338        7.149       73.828       55.387       33.441     5450.598     3067.715     1118.328        0.503        0.482       19.203       23.439        1.490      337.533        9.571      853.066
11/15/2013  15:19:00       46.076      -15.420       44.155       73.187       71.261       44.598     5356.309     5078.172     1988.965        0.836        0.621       48.588       49.104        1.021      337.554        9.607      853.060
11/15/2013  15:20:00       39.445       19.567       79.067       76.811       97.457       79.536     5899.911     9497.803     6325.904        1.495        1.086       44.031       72.917        2.742      337.324        9.221      853.057
11/15/2013  15:21:00       36.107      -55.138       35.718       87.011       98.185       80.456     7570.862     9640.358     6473.190        1.465        1.184       65.908       84.410        1.640      337.331        9.232      853.048
11/15/2013  15:22:00       34.518      -44.387       38.830       74.928       79.478       59.822     5614.149     6316.829     3578.721        1.009        0.775       56.229       58.454        1.081      337.502        9.519      853.052
11/15/2013  15:23:00      -24.362       48.857      130.269       42.184      130.050       78.830     1779.527    16913.048     6214.109        2.242        1.245       54.594       85.733        2.466      337.395        9.340      853.038
11/15/2013  15:24:00        8.648        5.125       53.167       28.220       51.542       32.319      796.365     2656.581     1044.495        0.371        0.225       10.053       30.739        9.350      337.480        9.481      853.056
11/15/2013  15:25:00       61.720      -89.169        2.871       62.108       80.207       57.493     3857.397     6433.180     3305.412        1.268        0.680      108.446       59.523        0.301      337.386        9.325      853.063
11/15/2013  15:26:00       92.176      -99.064        4.486       66.068       66.737       46.696     4364.982     4453.845     2180.516        1.466        0.550      135.315       41.877        0.096      337.461        9.450      853.068
11/15/2013  15:27:00       65.762      -46.606       22.794       60.257       60.899       41.854     3630.849     3708.742     1751.716        0.805        0.455       80.602       35.229        0.191      337.391        9.332      853.073
11/15/2013  15:28:00        2.896       23.230       26.438       31.602       28.025       20.065      998.660      785.381      402.606        0.172        0.109       23.410       18.419        0.619      337.329        9.230      853.060
11/15/2013  15:29:00        8.836       28.775       21.137       18.747       29.934       23.438      351.437      896.058      549.341        0.157        0.090       30.102       15.342        0.260      337.473        9.471      853.047
11/15/2013  15:30:00        3.497       31.563       12.958       34.965       21.612       13.090     1222.559      467.065      171.343        0.152        0.093       31.756       13.106        0.170      337.241        9.083      853.037
11/15/2013  15:31:00       30.311       28.551       10.240       15.050       13.411       13.237      226.515      179.845      175.213        0.121        0.029       41.640        8.674        0.043      337.200        9.014      853.028
11/15/2013  15:32:00       -4.624       24.836        2.083       13.326       12.255       11.412      177.577      150.190      130.243        0.055        0.023       25.262        9.167        0.132      337.352        9.269      853.030
11/15/2013  15:33:00      -15.738       10.157        7.929       21.937       21.268       16.466      481.218      452.309      271.137        0.081        0.060       18.732        8.993        0.230      337.579        9.649      853.026
11/15/2013  15:34:00      -74.398      -19.007       -9.355       28.873       33.814       21.108      833.669     1143.389      445.553        0.420        0.121       76.788       16.935        0.049      337.372        9.302      853.037
11/15/2013  15:35:00       -1.278      -58.444      -12.334       45.564       43.419       17.298     2076.090     1885.177      299.227        0.391        0.213       58.458       10.126        0.030      337.342        9.250      853.041
11/15/2013  15:36:00       66.237       10.133       56.787       58.814       63.512       48.481     3459.095     4033.792     2350.375        0.878        0.492       67.008       43.668        0.425      337.309        9.195      853.022
11/15/2013  15:37:00       53.070       51.531      106.758       55.664       70.591       39.968     3098.442     4983.053     1597.408        1.327        0.484       73.972       39.538        0.286      337.374        9.303      852.989
11/15/2013  15:38:00       89.102       17.512       43.647       45.500       87.633       59.793     2070.206     7679.554     3575.171        1.174        0.666       90.806       58.110        0.410      337.214        9.037      852.958
11/15/2013  15:39:00       51.800       23.536       58.284       55.434       78.028       58.930     3072.958     6088.293     3472.801        0.963        0.632       56.896       59.536        1.095      337.216        9.040      852.922
11/15/2013  15:40:00       64.227      -47.734       36.520       81.598      102.141       70.674     6658.313    10432.860     4994.870        1.491        1.104       80.022       82.352        1.059      337.298        9.176      852.900
11/15/2013  15:41:00      -26.289      -45.293       16.940       89.344       65.801       46.241     7982.369     4329.732     2138.207        0.874        0.723       52.370       29.136        0.310      337.521        9.551      852.883
11/15/2013  15:42:00      -24.228      -25.331       31.509       41.355       55.197       33.216     1710.277     3046.742     1103.305        0.404        0.293       35.052       28.746        0.673      337.616        9.711      852.855
11/15/2013  15:43:00      -10.448       30.499       61.789       26.683       38.477       22.832      711.963     1480.510      521.283        0.378        0.136       32.239       21.561        0.447      337.463        9.453      852.808
11/15/2013  15:44:00       57.592      -33.469       32.088       57.056       88.364       65.529     3255.418     7808.260     4294.027        1.041        0.768       66.611       70.046        1.106      337.309        9.196      852.750
11/15/2013  15:45:00      116.631     -155.747       -2.867       69.761       87.090       49.301     4866.619     7584.738     2430.544        2.637        0.744      194.576       59.521        0.094      337.300        9.178      852.703
11/15/2013  15:46:00       91.615      -58.135       12.435       71.251       97.062       60.127     5076.685     9421.031     3615.209        1.502        0.906      108.503       70.745        0.425      337.286        9.156      852.673
11/15/2013  15:47:00       43.105      -35.770       34.032       47.499       61.020       40.665     2256.166     3723.393     1653.612        0.596        0.382       56.014       40.970        0.535      337.396        9.341      852.658
11/15/2013  15:48:00       92.198     -138.393       -9.548       41.632       39.136       32.671     1733.214     1531.613     1067.375        1.604        0.217      166.293       26.206        0.025      337.475        9.473      852.664
11/15/2013  15:49:00       85.858     -151.462       -6.004       88.595       89.550       52.981     7848.985     8019.115     2807.004        2.451        0.934      174.104       48.600        0.078      337.376        9.307      852.678
11/15/2013  15:50:00       89.929     -149.787      -12.731       62.955       85.515       40.362     3963.343     7312.880     1629.126        2.179        0.645      174.710       46.814        0.072      337.339        9.245      852.688
11/15/2013  15:51:00       31.411       49.654      114.862       59.001       95.395       64.958     3481.164     9100.219     4219.579        1.672        0.840       58.755       69.123        1.384      337.345        9.255      852.689
11/15/2013  15:52:00       42.313      -19.627       52.321       39.492       47.261       34.693     1559.594     2233.644     1203.590        0.495        0.250       46.643       19.354        0.172      337.315        9.208      852.695
11/15/2013  15:53:00      101.784      -17.439       41.585      100.517       78.110       53.980    10103.598     6101.142     2913.867        1.575        0.956      103.267       62.802        0.370      337.263        9.118      852.712
11/15/2013  15:54:00       48.779      -14.929       50.739       51.115       64.133       48.417     2612.790     4113.007     2344.169        0.712        0.453       51.012       42.318        0.688      337.266        9.125      852.749
11/15/2013  15:55:00      122.587       89.145       47.439       77.552       63.632       55.971     6014.292     4049.078     3132.737        1.921        0.660      151.573       38.534        0.065      337.173        8.968      852.780
11/15/2013  15:56:00      103.846       87.083       63.958       62.749       49.205       46.373     3937.485     2421.157     2150.425        1.548        0.425      135.526       36.137        0.071      337.140        8.912      852.809
11/15/2013  15:57:00      106.056       12.645       23.806       62.335       42.696       44.834     3885.663     1822.966     2010.112        0.985        0.386      106.807       40.916        0.147      337.189        8.995      852.848
11/15/2013  15:58:00       55.083       49.247       34.740       56.676       46.808       41.221     3212.192     2190.993     1699.210        0.688        0.355       73.888       32.856        0.198      337.217        9.043      852.866
11/15/2013  15:59:00       66.808       31.713        4.614       44.045       29.304       21.556     1939.997      858.731      464.648        0.438        0.163       73.953       17.080        0.053      337.063        8.784      852.880
11/15/2013  16:00:00       81.529       37.763       11.426       56.361       44.015       34.730     3176.617     1937.295     1206.144        0.726        0.316       89.850       22.482        0.063      337.079        8.809      852.903
11/15/2013  16:01:00      163.165      110.077       20.157       53.437       40.846       37.907     2855.512     1668.408     1436.960        2.255        0.298      196.824       19.440        0.010      337.052        8.763      852.896
11/15/2013  16:02:00      153.071       98.433       20.181       55.237       43.563       30.950     3051.144     1897.734      957.928        1.972        0.295      181.989       28.563        0.025      337.038        8.739      852.890
11/15/2013  16:03:00      147.144      101.483       15.288       57.641       46.157       38.711     3322.473     2130.495     1498.560        1.957        0.348      178.746       20.003        0.013      337.072        8.797      852.888
11/15/2013  16:04:00      118.231       77.882       -6.969       55.959       36.317       28.936     3131.406     1318.961      837.286        1.269        0.264      141.578       20.059        0.020      337.082        8.816      852.882
11/15/2013  16:05:00       41.761       52.580        9.449       40.369       28.045       24.255     1629.653      786.503      588.285        0.380        0.150       67.147       11.700        0.030      337.072        8.797      852.895
11/15/2013  16:06:00       67.786       36.998       -0.230       28.891       21.001       19.615      834.685      441.061      384.750        0.381        0.083       77.226       15.260        0.039      337.120        8.879      852.907
11/15/2013  16:07:00       50.431       37.544       13.525       28.885       24.136       17.943      834.351      582.559      321.952        0.294        0.087       62.872       10.902        0.030      337.164        8.951      852.909
11/15/2013  16:08:00      -24.060       22.288      -12.175       18.709       25.788       13.535      350.036      665.000      183.189        0.121        0.060       32.797       13.177        0.161      337.195        9.004      852.914
11/15/2013  16:09:00      -38.418       19.994       -6.865       28.255       28.732       12.844      798.327      825.517      164.965        0.186        0.089       43.310       11.051        0.065      337.405        9.357      852.900
11/15/2013  16:10:00       -9.432        1.184       12.575       20.777       19.970       12.380      431.698      398.797      153.263        0.062        0.049        9.506        9.716        1.045      337.431        9.401      852.893
11/15/2013  16:11:00       21.648       44.828       22.980       18.827       24.823       19.301      354.474      616.198      372.535        0.217        0.067       49.781       10.365        0.043      337.211        9.034      852.872
11/15/2013  16:12:00      -41.662       -1.355       23.462       47.214       17.493       18.925     2229.173      306.010      358.163        0.259        0.145       41.684        8.925        0.046      337.357        9.275      852.864
11/15/2013  16:13:00      -17.430        8.548       18.332       16.126       15.274       15.089      260.062      233.302      227.670        0.072        0.036       19.414       10.879        0.314      337.439        9.413      852.872
11/15/2013  16:14:00        4.543       26.923        1.894       20.116       15.570       15.382      404.665      242.436      236.598        0.082        0.044       27.304       12.023        0.194      337.290        9.165      852.862
11/15/2013  16:15:00       12.265       20.996       21.210       42.653       20.374       26.286     1819.259      415.113      690.966        0.198        0.146       24.316       18.428        0.574      337.275        9.139      852.866
11/15/2013  16:16:00       86.068       50.732       22.185       24.753       20.959       20.979      612.692      439.274      440.119        0.598        0.075       99.907       10.888        0.012      337.112        8.867      852.871
11/15/2013  16:17:00       79.134       67.758       13.503       29.183       15.515       18.504      851.625      240.716      342.394        0.623        0.072      104.179       12.148        0.014      337.109        8.859      852.865
11/15/2013  16:18:00       53.141       57.370       17.281       28.995       27.741       23.850      840.721      769.586      568.831        0.430        0.109       78.201       18.778        0.058      337.119        8.878      852.860
11/15/2013  16:19:00       23.297       29.793       17.722       15.714       14.847       13.194      246.929      220.433      174.079        0.119        0.032       37.820        5.463        0.021      337.134        8.903      852.860
11/15/2013  16:20:00       53.821       32.876       10.495       17.605       18.146       22.743      309.934      329.282      517.231        0.262        0.058       63.068       17.367        0.076      337.148        8.926      852.835
11/15/2013  16:21:00       74.800       41.127       11.210       23.456       19.332       22.933      550.200      373.739      525.927        0.443        0.072       85.361       13.181        0.024      337.152        8.934      852.807
11/15/2013  16:22:00       58.304       40.248       13.714       10.691       10.688       13.970      114.287      114.236      195.166        0.282        0.021       70.847        6.922        0.010      337.131        8.898      852.791
11/15/2013  16:23:00       64.040       31.271        6.951       18.473       24.243       17.406      341.240      587.718      302.966        0.318        0.062       71.267       15.091        0.045      337.116        8.872      852.793
11/15/2013  16:24:00       12.177       19.123       -4.296       24.712       21.741       11.210      610.703      472.653      125.660        0.087        0.060       22.671        7.673        0.115      337.161        8.947      852.810
11/15/2013  16:25:00       -4.526       75.405      -20.283       24.512       31.807        9.266      600.858     1011.672       85.865        0.391        0.085       75.541        4.480        0.004      337.166        8.957      852.803
11/15/2013  16:26:00       -4.068       67.200      -13.885       11.897       15.285        7.775      141.549      233.634       60.451        0.258        0.022       67.323        2.480        0.001      337.143        8.915      852.793
11/15/2013  16:27:00        3.715       62.537       -7.916       11.195       20.569       10.085      125.336      423.074      101.716        0.232        0.033       62.647        7.190        0.013      337.134        8.901      852.781
11/15/2013  16:28:00       -2.933       56.277      -11.399       13.557       18.214       10.317      183.789      331.765      106.432        0.196        0.031       56.353        5.355        0.009      337.108        8.861      852.771
11/15/2013  16:29:00       -7.792       79.905       -9.955       13.449       16.728        9.644      180.868      279.824       93.002        0.355        0.028       80.284        8.050        0.010      337.103        8.850      852.766
11/15/2013  16:30:00        3.002       82.356       -9.348        7.413       13.326        8.466       54.947      177.583       71.673        0.359        0.015       82.411        5.671        0.005      337.091        8.829      852.749
11/15/2013  16:31:00        6.987       88.902      -13.131        9.124       12.421        6.532       83.254      154.282       42.662        0.420        0.014       89.176        3.237        0.001      337.079        8.809      852.747
11/15/2013  16:32:00       13.197       95.739      -16.229       11.965       12.484        6.271      143.155      155.846       39.320        0.497        0.017       96.645        3.490        0.001      337.083        8.813      852.750
11/15/2013  16:33:00       28.400       77.254      -12.439       12.105       39.224       12.143      146.534     1538.561      147.458        0.438        0.092       82.309       15.221        0.034      337.075        8.802      852.764
11/15/2013  16:34:00       -2.856       44.193       -8.928       10.209        9.779        9.173      104.223       95.631       84.146        0.116        0.014       44.285        4.619        0.011      337.098        8.841      852.783
11/15/2013  16:35:00      -15.766       91.418      -18.870       12.545       20.944       10.259      157.387      438.655      105.237        0.483        0.035       92.767       12.169        0.017      337.100        8.845      852.818
11/15/2013  16:36:00      -14.443       77.889      -14.783       11.494       14.114        8.108      132.110      199.217       65.737        0.345        0.020       79.216        6.356        0.006      337.089        8.823      852.848
11/15/2013  16:37:00      -12.544       94.842      -14.068       10.669       12.849        8.359      113.831      165.095       69.874        0.485        0.017       95.668        6.628        0.005      337.094        8.838      852.861
11/15/2013  16:38:00      -10.340       95.618      -15.661       12.182       13.574        8.960      148.393      184.260       80.280        0.495        0.021       96.176        6.272        0.004      337.102        8.851      852.872
11/15/2013  16:39:00       -2.759       92.059      -14.088        5.997       16.658        5.988       35.963      277.473       35.857        0.452        0.017       92.100        3.330        0.001      337.076        8.807      852.886
11/15/2013  16:40:00        8.446       95.279      -16.293       12.513       16.449        7.956      156.573      270.569       63.292        0.495        0.025       95.653        5.649        0.003      337.037        8.738      852.870
11/15/2013  16:41:00       32.912       70.933       -6.237       21.529       29.560       16.872      463.483      873.798      284.662        0.389        0.081       78.197       17.359        0.049      336.962        8.615      852.862
11/15/2013  16:42:00       32.438       65.137       -3.286       24.376       38.634       25.097      594.165     1492.556      629.883        0.401        0.136       72.767       22.672        0.097      336.952        8.598      852.855
11/15/2013  16:43:00       14.456       25.195        3.424       15.079       19.947       13.252      227.387      397.879      175.618        0.083        0.040       29.047       10.273        0.125      336.933        8.566      852.848
11/15/2013  16:44:00       15.350       11.548        3.344       11.543       16.896       10.469      133.237      285.464      109.596        0.045        0.026       19.209        7.886        0.169      336.924        8.550      852.846
11/15/2013  16:45:00       31.603       69.382       -8.174       21.822       37.620       16.648      476.197     1415.247      277.151        0.402        0.108       76.240       19.540        0.066      336.956        8.604      852.843
11/15/2013  16:46:00       33.016       35.594       -5.421       15.710       18.343       15.648      246.807      336.480      244.868        0.161        0.041       48.549       12.257        0.064      336.897        8.505      852.848
11/15/2013  16:47:00       31.832       47.073       -7.272       16.684       25.338       11.651      278.354      641.997      135.740        0.217        0.053       56.825       12.947        0.052      336.955        8.603      852.855
11/15/2013  16:48:00       22.795       41.507       -7.025       11.481       20.375       12.646      131.809      415.130      159.929        0.150        0.035       47.355       13.215        0.078      336.907        8.523      852.861
11/15/2013  16:49:00       15.381       39.669       -4.990       11.683       12.599        9.456      136.481      158.729       89.407        0.111        0.019       42.546        7.619        0.032      336.902        8.514      852.864
11/15/2013  16:50:00       18.596       74.272      -12.548        9.662       17.184        7.866       93.360      295.305       61.878        0.324        0.023       76.565        7.745        0.010      336.947        8.591      852.859
11/15/2013  16:51:00       18.753       66.746      -11.809       11.592       12.845       11.901      134.367      164.992      141.636        0.269        0.022       69.330        8.852        0.016      336.921        8.547      852.855
11/15/2013  16:52:00       25.377       61.765       -4.352       21.839       28.842       16.693      476.957      831.835      278.657        0.303        0.079       66.775       16.019        0.058      336.855        8.437      852.846
11/15/2013  16:53:00       26.414       50.459       -4.150       24.049       32.268       22.386      578.366     1041.225      501.141        0.269        0.106       56.955       18.554        0.106      336.871        8.464      852.826
11/15/2013  16:54:00       36.553       74.846       -9.755       23.026       30.055       21.082      530.218      903.274      444.469        0.446        0.094       83.295       16.531        0.039      336.894        8.502      852.810
11/15/2013  16:55:00       37.824       47.621        1.930       22.870       26.942       17.208      523.056      725.850      296.123        0.262        0.077       60.814       15.572        0.066      336.860        8.445      852.800
11/15/2013  16:56:00       42.626       40.324        6.297       25.717       24.140       21.770      661.339      582.748      473.930        0.260        0.086       58.678       16.247        0.077      336.826        8.388      852.793
11/15/2013  16:57:00       24.698       47.807       -7.150       28.111       20.514       13.762      790.210      420.837      189.395        0.217        0.070       53.810       14.048        0.068      336.866        8.456      852.787
11/15/2013  16:58:00       17.040       69.142       -7.856       21.446       26.461       14.162      459.922      700.186      200.559        0.325        0.068       71.211       14.786        0.043      336.876        8.472      852.783
11/15/2013  16:59:00        3.243       65.480       -8.464       12.138       22.303       13.544      147.335      497.443      183.452        0.260        0.041       65.561       12.968        0.039      336.880        8.479      852.784
11/15/2013  17:00:00       16.992       71.467      -11.625       19.909       19.091       12.987      396.351      364.459      168.673        0.323        0.046       73.459        9.996        0.019      336.868        8.457      852.782
11/15/2013  17:01:00        7.369       52.854       -4.748       16.803       18.280       10.878      282.356      334.151      118.321        0.180        0.037       53.366        9.150        0.029      336.858        8.439      852.777
11/15/2013  17:02:00        5.143       69.534       -9.576        8.973       13.325        7.465       80.512      177.554       55.721        0.263        0.016       69.724        6.509        0.009      336.883        8.481      852.762
11/15/2013  17:03:00        4.673       66.915      -10.689        9.872       10.453        7.772       97.453      109.266       60.405        0.244        0.013       67.078        5.025        0.006      336.901        8.512      852.746
11/15/2013  17:04:00       12.730       60.362       -8.876       10.477       11.703       10.474      109.776      136.964      109.705        0.212        0.018       61.690        9.619        0.024      336.883        8.482      852.720
11/15/2013  17:05:00        8.098       55.530       -9.433        8.963       16.115        8.706       80.335      259.681       75.794        0.183        0.021       56.118        9.920        0.031      336.865        8.453      852.689
11/15/2013  17:06:00       12.683       62.373      -10.831       12.547        9.831        6.964      157.425       96.658       48.496        0.224        0.015       63.649        3.306        0.003      336.879        8.475      852.672
11/15/2013  17:07:00       18.006       66.986      -11.029       11.003       18.177       11.394      121.076      330.415      129.833        0.276        0.029       69.364        9.144        0.017      336.850        8.426      852.667
11/15/2013  17:08:00       16.984       12.675       -2.530       14.924       18.888       12.413      222.729      356.775      154.076        0.059        0.037       21.192       10.430        0.242      336.784        8.317      852.668
11/15/2013  17:09:00       18.910        0.794        0.242       12.136       15.159       10.775      147.280      229.782      116.102        0.043        0.025       18.926       11.037        0.340      336.794        8.336      852.664
11/15/2013  17:10:00       18.530       17.340        5.243       14.026       14.678        9.939      196.727      215.448       98.782        0.059        0.026       25.378        9.408        0.137      336.765        8.288      852.657
11/15/2013  17:11:00       16.790        6.478       -2.199        9.798       13.767        9.911       95.996      189.523       98.234        0.036        0.019       17.996       10.422        0.335      336.770        8.297      852.656
11/15/2013  17:12:00        0.180       -2.575        4.312       14.225        6.233        8.664      202.339       38.855       75.065        0.017        0.016        2.581        9.016       12.204      336.714        8.202      852.661
11/15/2013  17:13:00       -1.508       36.339       -4.066        5.946       26.373        8.774       35.349      695.536       76.976        0.107        0.040       36.370       13.277        0.133      336.774        8.303      852.671
11/15/2013  17:14:00        8.112       60.869      -11.164        9.902       16.469        6.638       98.051      271.231       44.062        0.215        0.021       61.407        6.662        0.012      336.830        8.396      852.676
11/15/2013  17:15:00        0.624       42.559       -3.996       12.214       27.177       10.659      149.173      738.610      113.613        0.141        0.050       42.563       10.952        0.066      336.793        8.333      852.671
11/15/2013  17:16:00       15.673       35.928       -4.885       17.991       29.919       10.315      323.684      895.120      106.391        0.144        0.066       39.198       10.659        0.074      336.762        8.283      852.663
11/15/2013  17:17:00       37.889       40.550        0.792       17.706       22.087       16.443      313.498      487.822      270.370        0.208        0.054       55.497       14.640        0.070      336.718        8.210      852.655
11/15/2013  17:18:00       26.004       39.757        0.354       10.865       25.592       14.141      118.058      654.953      199.975        0.161        0.049       47.506       11.630        0.060      336.693        8.166      852.644
11/15/2013  17:19:00       25.844       21.976       -2.783       14.254       13.696        9.992      203.164      187.592       99.849        0.082        0.025       33.924        6.565        0.037      336.728        8.225      852.633
11/15/2013  17:20:00       40.802       27.319        3.347       12.913       11.669       12.265      166.753      136.171      150.427        0.144        0.023       49.104        8.707        0.031      336.752        8.266      852.615
11/15/2013  17:21:00       42.200       25.434        7.251       12.896       12.768        9.214      166.295      163.031       84.895        0.145        0.021       49.272        6.253        0.016      336.748        8.259      852.599
11/15/2013  17:22:00       25.365       12.477        4.296       22.749       10.555        6.745      517.501      111.417       45.489        0.075        0.034       28.268        6.719        0.056      336.706        8.191      852.590
11/15/2013  17:23:00       33.498       17.408        2.736       17.089       15.976        8.442      292.046      255.236       71.260        0.103        0.031       37.751        5.873        0.024      336.724        8.219      852.568
11/15/2013  17:24:00       29.367       15.724        5.397       11.190        9.208        7.674      125.218       84.788       58.883        0.070        0.013       33.312        6.597        0.039      336.755        8.272      852.566
11/15/2013  17:25:00        2.209        9.759       15.705        8.899        8.295        6.694       79.190       68.815       44.805        0.027        0.010       10.006        5.195        0.270      336.684        8.152      852.555
11/15/2013  17:26:00       18.936        5.368        5.086       13.467       11.659       10.278      181.349      135.936      105.628        0.042        0.021       19.682        9.228        0.220      336.746        8.257      852.556
11/15/2013  17:27:00       19.001        6.382        5.169       14.600       11.228       13.207      213.164      126.065      174.427        0.047        0.026       20.044        8.459        0.178      336.749        8.261      852.546
11/15/2013  17:28:00       -0.779       19.275       17.407        8.975       11.156        9.686       80.545      124.467       93.820        0.049        0.015       19.291        7.729        0.161      336.708        8.192      852.533
11/15/2013  17:29:00        8.364       10.644       20.742       11.811       11.612       10.832      139.490      134.837      117.335        0.050        0.020       13.537        8.580        0.402      336.681        8.147      852.512
11/15/2013  17:30:00        8.359        4.399       12.680       11.319        9.895        9.319      128.115       97.907       86.847        0.028        0.016        9.446        7.590        0.646      336.691        8.165      852.508
11/15/2013  17:31:00       -5.898       12.536       20.961        7.318       15.693       16.440       53.547      246.270      270.266        0.060        0.029       13.854       14.630        1.115      336.600        8.012      852.497
11/15/2013  17:32:00      -19.302      -20.387       -7.673       16.752       16.963       10.219      280.620      287.759      104.421        0.076        0.034       28.074       10.078        0.129      336.811        8.365      852.482
11/15/2013  17:33:00       -7.554      -27.849       -3.086       19.754       36.969       20.916      390.228     1366.681      437.500        0.152        0.110       28.856       15.202        0.278      336.768        8.293      852.458
11/15/2013  17:34:00      -23.200       -5.278        7.187       22.288       25.664       25.608      496.758      658.616      655.751        0.121        0.091       23.792       13.454        0.320      336.740        8.246      852.454
11/15/2013  17:35:00      -17.727      -20.304       10.606       37.507       20.822       14.986     1406.774      433.536      224.585        0.145        0.103       26.953       13.316        0.244      336.763        8.284      852.449
11/15/2013  17:36:00      -68.811      -41.336       -0.444       35.440       27.669       21.411     1255.997      765.594      458.426        0.446        0.124       80.273       15.340        0.037      336.763        8.284      852.464
11/15/2013  17:37:00      -60.150      -42.406        9.469       54.078       25.820       20.127     2924.480      666.681      405.095        0.475        0.200       73.596       23.670        0.103      336.786        8.322      852.467
11/15/2013  17:38:00      -52.072      -61.840        1.241       41.626       28.607       19.376     1732.762      818.350      375.424        0.473        0.146       80.844       13.144        0.026      336.769        8.295      852.485
11/15/2013  17:39:00      -33.851      -53.938        2.604       54.178       33.376       25.674     2935.205     1113.990      659.168        0.438        0.235       63.681       14.619        0.053      336.696        8.172      852.500
11/15/2013  17:40:00      -26.866      -29.060        2.332       35.142       35.053       24.637     1234.932     1228.713      606.992        0.232        0.154       39.576       20.188        0.260      336.747        8.256      852.502
11/15/2013  17:41:00      -99.826      -41.186       -2.936       29.040       26.607       15.953      843.311      707.921      254.495        0.674        0.090      107.988       13.463        0.016      336.701        8.181      852.518
11/15/2013  17:42:00      -77.326      -38.692       -7.930       30.606       20.718       12.204      936.697      429.238      148.949        0.453        0.076       86.466        5.580        0.004      336.770        8.296      852.528
11/15/2013  17:43:00      -84.955      -15.297       -8.165       16.328       17.758       10.576      266.618      315.332      111.849        0.411        0.035       86.321        9.385        0.012      336.778        8.308      852.539
11/15/2013  17:44:00      -59.873       -5.875       -5.095       26.757       19.525       12.521      715.911      381.213      156.787        0.245        0.063       60.160       12.073        0.040      336.698        8.177      852.528
11/15/2013  17:45:00      -62.160       -1.889       -3.623       40.022       27.128       21.362     1601.724      735.945      456.317        0.334        0.140       62.189       25.730        0.171      336.570        7.961      852.490
11/15/2013  17:46:00      -29.278      -18.495       12.595       18.625       20.230       18.629      346.899      409.239      347.023        0.123        0.055       34.631       13.213        0.146      336.572        7.964      852.440
11/15/2013  17:47:00      -11.068      -12.069        8.692       21.934        9.221       10.892      481.104       85.026      118.625        0.051        0.034       16.376       13.581        0.688      336.569        7.959      852.386
11/15/2013  17:48:00      -39.228      -27.634        1.250       21.494       15.245       11.113      462.012      232.412      123.489        0.156        0.041       47.984       11.685        0.059      336.602        8.015      852.373
11/15/2013  17:49:00      -61.467      -30.269        1.730       25.887       21.774       13.724      670.144      474.110      188.346        0.301        0.067       68.516       12.683        0.034      336.596        8.005      852.389
11/15/2013  17:50:00      -55.417      -41.670        8.085       40.866       31.153       21.686     1670.036      970.522      470.276        0.399        0.156       69.335       22.360        0.104      336.520        7.877      852.415
11/15/2013  17:51:00      -60.194      -55.028        0.536       41.700       29.332       18.088     1738.903      860.378      327.181        0.479        0.146       81.556       12.238        0.023      336.580        7.978      852.437
11/15/2013  17:52:00      -85.075      -65.156       -5.085       34.525       24.252       20.253     1192.009      588.171      410.186        0.685        0.110      107.159       17.689        0.027      336.540        7.912      852.427
11/15/2013  17:53:00      -78.360      -90.004       -0.183       44.192       37.058       26.410     1952.923     1373.279      697.494        0.913        0.201      119.336       23.685        0.039      336.523        7.885      852.380
11/15/2013  17:54:00      -87.105      -87.074       -0.558       44.142       37.083       26.312     1948.527     1375.130      692.321        0.959        0.201      123.163       26.325        0.046      336.563        7.950      852.350
11/15/2013  17:55:00      -91.829      -78.204       -8.157       23.982       22.029       15.948      575.118      485.296      254.353        0.796        0.066      120.617       13.898        0.013      336.553        7.933      852.330
11/15/2013  17:56:00      -75.743      -55.382       -3.219       29.150       25.576       15.470      849.698      654.119      239.310        0.528        0.087       93.830        8.620        0.008      336.625        8.052      852.338
11/15/2013  17:57:00      -68.112      -69.422       -2.041       29.889       27.675       18.598      893.327      765.912      345.879        0.573        0.100       97.256       21.040        0.047      336.623        8.049      852.354
11/15/2013  17:58:00      -97.569      -50.646        1.067       33.847       21.152       16.395     1145.629      447.406      268.793        0.697        0.093      109.930       14.269        0.017      336.597        8.007      852.368
11/15/2013  17:59:00      -85.539      -35.634       -0.261       38.403       27.705       23.714     1474.761      767.540      562.371        0.570        0.140       92.664       21.841        0.056      336.489        7.825      852.371
11/15/2013  18:00:00      -88.597       -8.905       -8.115       20.523       16.303       14.572      421.200      265.801      212.330        0.445        0.045       89.044       11.926        0.018      336.443        7.747      852.381
11/15/2013  18:01:00      -72.756      -13.136       -1.820       26.566       24.461       17.285      705.774      598.321      298.774        0.354        0.080       73.932       13.620        0.034      336.379        7.640      852.386
11/15/2013  18:02:00      -76.741       -5.283       -1.626       26.224       25.407       18.047      687.700      645.520      325.696        0.379        0.083       76.922       15.613        0.041      336.196        7.336      852.402
11/15/2013  18:03:00      -90.921        1.803       -6.670       24.741       23.965       15.870      612.106      574.309      251.862        0.488        0.072       90.938        9.965        0.012      336.186        7.317      852.435
11/15/2013  18:04:00      -97.759        9.350       -8.621       31.431       25.044       14.865      987.922      627.197      220.962        0.578        0.092       98.205        7.954        0.007      336.161        7.275      852.449
11/15/2013  18:05:00     -110.037       15.637       -6.033       26.749       26.163       14.981      715.535      684.484      224.425        0.701        0.081      111.143       12.027        0.012      336.144        7.248      852.449
11/15/2013  18:06:00     -107.026        9.681       -6.843       21.660       23.373       14.111      469.151      546.305      199.128        0.640        0.061      107.462       12.018        0.013      336.042        7.078      852.450
11/15/2013  18:07:00      -89.306       -9.958       -6.577       31.461       24.348       19.633      989.801      592.823      385.458        0.504        0.098       89.860       19.925        0.049      336.061        7.109      852.444
11/15/2013  18:08:00     -105.870      -20.230       -8.375       21.583       24.842       15.297      465.844      617.108      233.999        0.650        0.066      107.786       12.071        0.013      336.078        7.139      852.426
11/15/2013  18:09:00      -97.991       -7.794       -0.042       36.120       22.467       17.816     1304.625      504.746      317.405        0.589        0.106       98.300       20.712        0.044      335.984        6.983      852.418
11/15/2013  18:10:00     -104.484      -14.208       -9.430       24.718       14.205       12.724      610.994      201.781      161.911        0.609        0.049      105.446       11.951        0.013      335.994        6.997      852.411
11/15/2013  18:11:00      -95.500      -15.554       -6.794       15.401       18.781       11.227      237.181      352.735      126.039        0.506        0.036       96.759        6.029        0.004      335.969        6.958      852.392
11/15/2013  18:12:00      -92.968      -10.358       -9.840       20.616       15.537       13.338      425.014      241.407      177.913        0.485        0.042       93.544       12.378        0.018      335.955        6.932      852.378
11/15/2013  18:13:00     -121.337        8.111      -16.991        9.434        9.090        9.159       88.993       82.619       83.879        0.767        0.013      121.607        4.178        0.001      335.964        6.947      852.409
11/15/2013  18:14:00     -127.431       22.958      -11.937       16.031       19.378       11.151      256.994      375.495      124.343        0.883        0.038      129.482        6.906        0.003      335.975        6.965      852.469
11/15/2013  18:15:00     -113.530       28.812      -15.286       26.783       24.437       19.596      717.314      597.175      384.003        0.783        0.085      117.129       11.611        0.010      335.922        6.878      852.548
11/15/2013  18:16:00     -134.640       43.687      -14.061       36.690       20.726       18.275     1346.136      429.570      333.969        1.117        0.105      141.550       16.721        0.014      335.933        6.895      852.622
11/15/2013  18:17:00     -109.738       19.949       -3.428       31.723       24.274       18.699     1006.343      589.227      349.645        0.720        0.097      111.536       14.384        0.017      335.944        6.915      852.644
11/15/2013  18:18:00     -101.732      -15.648       -7.665       25.792       23.437       12.113      665.215      549.299      146.731        0.601        0.068      102.929       12.236        0.014      335.950        6.923      852.597
11/15/2013  18:19:00      -71.778      -35.110       -1.697       22.793       14.934        9.293      519.499      223.037       86.362        0.361        0.041       79.905       10.604        0.018      335.968        6.954      852.527
11/15/2013  18:20:00      -62.290      -35.682       -6.940       17.141       24.882       12.438      293.797      619.111      154.708        0.313        0.053       71.786        7.886        0.012      336.033        7.062      852.477
11/15/2013  18:21:00      -58.258      -21.594       -2.596       15.905       15.495       12.029      252.955      240.080      144.690        0.225        0.032       62.132       10.036        0.026      336.148        7.256      852.446
11/15/2013  18:22:00      -59.249      -25.908       -7.875       18.984       13.687        9.682      360.378      187.336       93.738        0.244        0.032       64.666        5.873        0.008      336.095        7.166      852.437
11/15/2013  18:23:00      -44.854      -33.345       -5.242       14.128       11.187        9.655      199.602      125.148       93.219        0.178        0.021       55.891        5.491        0.010      336.173        7.297      852.404
11/15/2013  18:24:00      -29.307      -46.617       -3.414       15.359       22.767        8.374      235.902      518.357       70.132        0.193        0.041       55.064        6.544        0.014      336.152        7.263      852.333
11/15/2013  18:25:00      -10.537      -10.763       11.053       29.885       25.006       16.538      893.107      625.299      273.517        0.107        0.090       15.062       14.462        0.922      336.118        7.205      852.273
11/15/2013  18:26:00      -35.308      -33.030        6.758       26.199       27.727       17.048      686.382      768.765      290.644        0.206        0.087       48.349       11.548        0.057      336.204        7.347      852.237
11/15/2013  18:27:00      -35.131      -34.527        3.312       40.748       29.583       17.062     1660.373      875.152      291.101        0.263        0.141       49.258       21.222        0.186      336.209        7.357      852.221
11/15/2013  18:28:00      -68.382      -61.896       -5.627       32.859       25.446       19.877     1079.712      647.515      395.089        0.533        0.106       92.235       17.564        0.036      336.223        7.380      852.238
11/15/2013  18:29:00      -87.880      -61.303       -5.480       35.886       21.676       17.520     1287.809      469.864      306.934        0.679        0.103      107.149       11.877        0.012      336.217        7.370      852.281
11/15/2013  18:30:00      -46.199      -27.676        7.353       34.598       24.170       19.530     1197.008      584.212      381.409        0.256        0.108       53.855       19.736        0.134      336.235        7.401      852.293
11/15/2013  18:31:00      -36.727      -45.168       14.115       40.720       28.280       24.093     1658.096      799.773      580.472        0.331        0.152       58.215       22.715        0.152      336.258        7.440      852.269
11/15/2013  18:32:00      -75.483      -58.691        4.501       25.374       26.640       18.369      643.816      709.665      337.403        0.543        0.085       95.615       18.271        0.037      336.264        7.449      852.233
11/15/2013  18:33:00      -33.770      -22.802        9.409       33.991       20.315       18.707     1155.358      412.713      349.970        0.183        0.096       40.748       22.646        0.309      336.218        7.372      852.192
11/15/2013  18:34:00      -11.771      -17.883        5.252       30.476       22.017       14.484      928.802      484.733      209.776        0.105        0.081       21.409       13.483        0.397      336.228        7.389      852.165
11/15/2013  18:35:00      -31.073      -27.947        5.969       28.415       30.388       16.380      807.429      923.446      268.317        0.189        0.100       41.792       19.595        0.220      336.245        7.417      852.144
11/15/2013  18:36:00      -44.759      -26.964       -4.579       38.490       23.064       18.219     1481.505      531.960      331.939        0.255        0.117       52.253       14.086        0.073      336.285        7.483      852.130
11/15/2013  18:37:00      -40.343      -29.893       -0.488       36.010       25.199       14.860     1296.747      635.012      220.809        0.234        0.108       50.211       12.986        0.067      336.260        7.442      852.113
11/15/2013  18:38:00      -35.655      -60.277       -6.832       50.153       25.314       19.350     2515.363      640.797      374.410        0.424        0.177       70.033       18.148        0.067      336.330        7.559      852.088
11/15/2013  18:39:00      -50.210      -30.241       -0.184       35.652       24.321       17.077     1271.035      591.524      291.618        0.279        0.108       58.614       14.030        0.057      336.273        7.464      852.066
11/15/2013  18:40:00      -75.391      -33.728       -0.581       35.921       32.161       20.468     1290.291     1034.326      418.937        0.478        0.137       82.592       16.085        0.038      336.318        7.538      852.066
11/15/2013  18:41:00      -43.803      -65.138        3.240       33.084       31.893       18.293     1094.574     1017.185      334.626        0.431        0.122       78.496       19.140        0.059      336.259        7.440      852.071
11/15/2013  18:42:00      -85.977      -29.717       -2.425       33.796       35.462       24.575     1142.194     1257.555      603.935        0.564        0.150       90.968       20.949        0.053      336.207        7.352      852.073
11/15/2013  18:43:00     -108.559      -63.408      -12.250       22.886       16.210       15.545      523.788      262.750      241.645        0.849        0.051      125.720        8.437        0.005      336.222        7.379      852.084
11/15/2013  18:44:00      -91.137      -54.645      -14.259       20.903       14.542       16.333      436.927      211.478      266.753        0.621        0.046      106.264       11.622        0.012      336.172        7.293      852.105
11/15/2013  18:45:00      -67.592      -37.689       -7.288       19.709       14.131       11.773      388.438      199.694      138.604        0.338        0.036       77.390        9.425        0.015      336.268        7.456      852.129
11/15/2013  18:46:00      -75.790       -1.383       -7.963       34.255       16.639       17.708     1173.430      276.865      313.574        0.379        0.088       75.802       19.887        0.069      336.210        7.360      852.160
11/15/2013  18:47:00      -82.687       -3.720      -10.373       19.376       22.227       10.996      375.445      494.050      120.903        0.397        0.050       82.771        7.952        0.009      336.257        7.438      852.171
11/15/2013  18:48:00      -64.048       22.537      -10.091       21.787       19.240       14.227      474.674      370.180      202.418        0.288        0.052       67.897        9.544        0.020      336.216        7.370      852.158
11/15/2013  18:49:00      -51.802        6.359       -1.848       16.741       12.579        8.050      280.250      158.219       64.808        0.162        0.025       52.191        8.337        0.026      336.255        7.434      852.110
11/15/2013  18:50:00      -43.238        3.701       -8.369       10.606        6.644       11.955      112.485       44.140      142.926        0.113        0.015       43.397        5.623        0.017      336.176        7.299      852.058
11/15/2013  18:51:00       -3.457       -3.668       -5.223       11.153        9.917       13.303      124.395       98.343      176.957        0.023        0.020        5.040       10.805        4.596      336.235        7.400      852.019
11/15/2013  18:52:00       32.613       22.095        1.427       18.615       11.218       10.850      346.528      125.851      117.725        0.107        0.030       39.393       11.024        0.078      336.146        7.251      851.986
11/15/2013  18:53:00       65.771       39.494        0.094       42.558       26.075       24.035     1811.149      679.902      577.661        0.448        0.153       76.717       16.926        0.049      336.033        7.063      851.966
11/15/2013  18:54:00       78.053       45.896        4.131       21.845       18.919       24.416      477.225      357.946      596.144        0.482        0.072       90.547       11.943        0.017      335.677        6.471      851.973
11/15/2013  18:55:00       41.807       23.379       11.231       23.366       15.217       15.691      545.977      231.548      246.212        0.172        0.051       47.900       12.914        0.073      335.636        6.401      852.005
11/15/2013  18:56:00       13.663       16.007        5.036       10.892       11.175        5.627      118.640      124.889       31.661        0.037        0.014       21.045        4.241        0.041      335.727        6.555      852.042
11/15/2013  18:57:00        8.923       13.496       -5.762        7.449        7.751        6.707       55.484       60.085       44.990        0.023        0.008       16.179        5.275        0.106      335.900        6.840      852.063
11/15/2013  18:58:00        2.711       14.030       -5.585        6.811        6.510        5.083       46.394       42.384       25.832        0.017        0.006       14.290        3.848        0.073      335.927        6.886      852.054
11/15/2013  18:59:00        2.491        7.622       -2.424        8.556        4.825        4.154       73.199       23.276       17.259        0.009        0.006        8.019        3.805        0.225      335.943        6.915      852.036
11/15/2013  19:00:00      -41.144       12.130       -5.537       16.422        5.759        6.117      269.696       33.162       37.412        0.111        0.017       42.895        5.054        0.014      335.821        6.712      852.032
11/15/2013  19:01:00      -31.577        9.395      -10.985       15.985       10.690        7.443      255.530      114.267       55.401        0.082        0.021       32.945        7.992        0.059      335.836        6.736      852.056
11/15/2013  19:02:00      -30.613        4.383       -1.514       21.335       13.081        8.883      455.203      171.121       78.900        0.083        0.035       30.925        9.663        0.098      335.825        6.717      852.075
11/15/2013  19:03:00      -44.683       -6.639       -2.313       14.039       13.022       10.790      197.106      169.578      116.427        0.126        0.024       45.174        6.736        0.022      335.898        6.838      852.098
11/15/2013  19:04:00      -21.003       -1.975       -0.933       23.995        9.755        8.818      575.749       95.160       77.757        0.060        0.037       21.095       10.580        0.252      335.886        6.816      852.110
11/15/2013  19:05:00        3.871       -4.602       -2.727       11.285       12.553        8.525      127.353      157.588       72.670        0.020        0.018        6.014        6.773        1.269      335.789        6.658      852.118
11/15/2013  19:06:00      -23.815       -3.202       -2.964       11.693       13.868       11.730      136.724      192.335      137.597        0.053        0.023       24.030        4.005        0.028      335.778        6.638      852.144
11/15/2013  19:07:00      -30.076       11.432      -10.633       13.739       10.774       12.880      188.749      116.084      165.895        0.081        0.024       32.175        5.960        0.034      335.929        6.891      852.173
11/15/2013  19:08:00      -18.605        7.119       -5.312       13.039        7.261        8.900      170.022       52.727       79.203        0.036        0.015       19.921        6.819        0.117      335.843        6.747      852.214
11/15/2013  19:09:00      -17.008       -4.524       -0.927        5.868        8.345        7.424       34.435       69.631       55.122        0.023        0.008       17.599        2.010        0.013      335.771        6.628      852.238
11/15/2013  19:10:00       -3.004        1.710       -0.466        9.448        9.328        5.895       89.268       87.019       34.749        0.011        0.011        3.457        6.527        3.564      335.860        6.774      852.245
11/15/2013  19:11:00       11.124       -0.357        5.541       10.287        6.432        5.734      105.832       41.376       32.875        0.017        0.009       11.129        1.570        0.020      335.943        6.912      852.241
11/15/2013  19:12:00        8.451       20.470        5.853       13.315       17.689        9.033      177.290      312.910       81.595        0.055        0.029       22.146       10.286        0.216      335.994        6.997      852.241
11/15/2013  19:13:00      -24.209       -6.168       -4.090       20.796       12.158        9.592      432.474      147.825       92.005        0.066        0.034       24.982        5.310        0.045      335.820        6.709      852.255
11/15/2013  19:14:00      -31.678       -4.710       -6.335        7.942        9.416        7.549       63.074       88.652       56.983        0.064        0.010       32.026        2.078        0.004      335.796        6.669      852.290
11/15/2013  19:15:00      -38.216      -18.907       -1.568       12.664       10.818       11.214      160.380      117.025      125.764        0.111        0.020       42.637        9.959        0.055      335.715        6.534      852.300
11/15/2013  19:16:00      -40.971       -2.473       -7.955       17.152       13.218        9.815      294.200      174.727       96.330        0.116        0.028       41.046        6.845        0.028      335.655        6.434      852.289
11/15/2013  19:17:00      -52.273       -2.809      -11.078       10.017        8.303        9.383      100.333       68.939       88.049        0.156        0.013       52.348        5.335        0.010      335.676        6.468      852.276
11/15/2013  19:18:00      -62.266       -8.769      -14.146       17.950       12.821        9.660      322.199      164.391       93.309        0.237        0.029       62.880        7.750        0.015      335.636        6.402      852.298
11/15/2013  19:19:00      -61.802       -2.465      -10.537       18.821       10.722       11.319      354.244      114.971      128.112        0.227        0.030       61.852        7.245        0.014      335.496        6.169      852.371
11/15/2013  19:20:00      -46.433       10.707      -13.210       24.432       19.149       16.947      596.906      366.671      287.205        0.185        0.063       47.651       16.752        0.124      335.581        6.310      852.459
11/15/2013  19:21:00      -60.886       16.074      -23.543       19.416       16.343       12.634      376.980      267.108      159.629        0.266        0.040       62.972        7.849        0.016      335.661        6.445      852.556
11/15/2013  19:22:00      -79.766       24.874      -19.561       36.534       24.941       16.524     1334.735      622.067      273.057        0.480        0.111       83.554        9.551        0.013      335.690        6.491      852.647
11/15/2013  19:23:00      -89.257       42.856      -12.255       30.943       32.027       19.919      957.494     1025.722      396.749        0.617        0.119       99.012       18.185        0.034      335.788        6.655      852.714
11/15/2013  19:24:00      -83.154       50.550      -12.842       22.757       30.331       20.250      517.881      919.988      410.052        0.574        0.092       97.313        8.584        0.008      335.804        6.681      852.741
11/15/2013  19:25:00      -82.737       40.293      -11.712       25.936       38.565       19.618      672.676     1487.280      384.849        0.557        0.127       92.027       23.714        0.066      335.837        6.736      852.709
11/15/2013  19:26:00      -51.714       42.346      -12.295       41.374       25.711       17.035     1711.827      661.054      290.193        0.364        0.133       66.840       19.455        0.085      335.900        6.842      852.625
11/15/2013  19:27:00      -24.301       -5.017       -4.205       13.797       17.688       10.510      190.365      312.878      110.452        0.062        0.031       24.814        5.834        0.055      335.834        6.731      852.549
11/15/2013  19:28:00      -87.463       -8.345      -12.362       18.230       23.488       12.529      332.346      551.688      156.967        0.446        0.052       87.860        7.867        0.008      335.709        6.525      852.538
11/15/2013  19:29:00      -79.490       59.020      -25.807       30.687       65.325       17.384      941.705     4267.391      302.198        0.799        0.276       99.005       26.949        0.074      335.814        6.700      852.588
11/15/2013  19:30:00      -90.254       29.066      -10.856       27.210       38.947       14.979      740.378     1516.871      224.373        0.579        0.124       94.819       18.117        0.037      335.736        6.568      852.640
11/15/2013  19:31:00      -32.446      -24.049       -1.257       17.734       18.395       14.412      314.483      338.389      207.705        0.125        0.043       40.387       11.640        0.083      335.701        6.511      852.654
11/15/2013  19:32:00      -17.205       51.236       -5.218       39.520       44.581       23.467     1561.866     1987.493      550.696        0.352        0.205       54.047       25.619        0.225      335.802        6.678      852.631
11/15/2013  19:33:00      -31.923      124.820      -20.595       49.548       59.331       23.482     2454.978     3520.160      551.427        1.177        0.326      128.838       21.834        0.029      335.837        6.738      852.608
11/15/2013  19:34:00      -21.225      123.056        0.458       46.800       64.260       30.662     2190.247     4129.357      940.137        1.143        0.363      124.873       36.290        0.084      335.776        6.635      852.588
11/15/2013  19:35:00        2.483      182.395      -28.393       33.353       40.720       28.907     1112.400     1658.116      835.634        1.884        0.180      182.412       14.969        0.007      335.741        6.575      852.564
11/15/2013  19:36:00       -9.069      150.786      -15.849       43.848       68.291       28.885     1922.661     4663.681      834.319        1.524        0.371      151.059       35.644        0.056      335.742        6.578      852.545
11/15/2013  19:37:00      -21.624      115.662       -3.939       38.727       35.292       23.186     1499.761     1245.517      537.604        0.857        0.164      117.666       13.919        0.014      335.822        6.712      852.532
11/15/2013  19:38:00       22.423       96.213        0.041       38.253       57.911       28.300     1463.275     3353.672      800.906        0.769        0.281       98.791       34.227        0.120      335.702        6.514      852.518
11/15/2013  19:39:00      -15.966      133.815      -21.387       37.954       26.434       14.246     1440.510      698.766      202.960        1.048        0.117      134.764       11.737        0.008      335.774        6.632      852.494
11/15/2013  19:40:00       23.065       84.360       -9.787       33.747       39.297       30.176     1138.890     1544.250      910.562        0.567        0.180       87.456       27.272        0.097      335.698        6.505      852.450
11/15/2013  19:41:00       17.163      136.291      -20.908       42.119       54.823       26.883     1774.012     3005.507      722.705        1.240        0.275      137.367       21.762        0.025      335.654        6.431      852.402
11/15/2013  19:42:00      -35.665      170.142      -29.461       39.581       46.880       23.624     1566.624     2197.761      558.093        1.770        0.216      173.840       19.749        0.013      335.775        6.633      852.362
11/15/2013  19:43:00       -9.324      152.301      -17.766       35.013       51.933       20.778     1225.913     2697.084      431.721        1.398        0.218      152.587       16.819        0.012      335.727        6.553      852.340
11/15/2013  19:44:00      -36.450      188.491      -27.238       29.955       31.820       19.422      897.315     1012.490      377.207        1.994        0.114      191.983       14.415        0.006      335.733        6.562      852.357
11/15/2013  19:45:00      -37.631       87.717      -11.485       35.094       47.418       16.922     1231.601     2248.471      286.350        0.650        0.188       95.448       12.948        0.018      335.834        6.733      852.394
11/15/2013  19:46:00      -68.695       72.983      -14.457       31.578       33.535       22.319      997.148     1124.605      498.159        0.644        0.131      100.227       17.825        0.032      335.814        6.699      852.450
11/15/2013  19:47:00      -52.466       65.501      -11.195       33.876       44.343       25.521     1147.587     1966.282      651.344        0.547        0.188       83.923       22.523        0.072      335.847        6.754      852.503
11/15/2013  19:48:00      -93.418       84.721      -16.429       51.814       82.509       33.087     2684.715     6807.655     1094.773        1.338        0.529      126.113       41.340        0.107      335.818        6.705      852.546
11/15/2013  19:49:00     -147.934      136.894      -20.311       72.682       74.809       49.960     5282.613     5596.388     2495.992        2.720        0.669      201.556       48.436        0.058      335.669        6.453      852.568
11/15/2013  19:50:00     -140.408      153.805      -37.172       48.539       49.191       34.202     2356.032     2419.758     1169.783        2.535        0.297      208.255       26.540        0.016      335.663        6.444      852.544
11/15/2013  19:51:00     -107.574      109.005      -24.666       61.637       62.144       38.124     3799.065     3861.883     1453.429        1.659        0.456      153.148       32.887        0.046      335.629        6.389      852.484
11/15/2013  19:52:00      -79.775      112.311      -20.822       34.034       60.480       33.470     1158.312     3657.833     1120.263        1.267        0.297      137.760       30.173        0.048      335.649        6.424      852.420
11/15/2013  19:53:00      -81.455      123.691      -17.547       69.213       53.929       32.520     4790.487     2908.325     1057.547        1.550        0.438      148.102       33.604        0.051      335.703        6.513      852.353
11/15/2013  19:54:00      -58.012      116.203      -16.270       53.603       60.321       29.545     2873.330     3638.676      872.900        1.226        0.369      129.879       29.293        0.051      335.697        6.504      852.291
11/15/2013  19:55:00      -72.549       61.729      -15.916       21.133       57.313       25.235      446.606     3284.755      636.787        0.685        0.218       95.257       18.523        0.038      335.705        6.516      852.257
11/15/2013  19:56:00      -86.583       41.962      -25.058       29.102       24.563       22.810      846.921      603.349      520.294        0.593        0.099       96.216       12.499        0.017      335.734        6.565      852.241
11/15/2013  19:57:00      -95.977       38.197      -15.008       50.956       30.499       25.371     2596.494      930.217      643.709        0.753        0.209      103.298       15.525        0.023      335.711        6.527      852.227
11/15/2013  19:58:00      -67.852       74.097      -11.620       35.961       45.306       24.027     1293.201     2052.656      577.274        0.708        0.196      100.470       25.628        0.065      335.732        6.561      852.201
11/15/2013  19:59:00      -68.089       84.494      -11.208       47.571       54.053       32.865     2263.035     2921.722     1080.121        0.908        0.313      108.514       32.212        0.088      335.739        6.573      852.157
11/15/2013  20:00:00      -89.214      138.688      -19.076       28.889       49.852       28.891      834.595     2485.271      834.708        1.586        0.208      164.904       16.428        0.010      335.683        6.480      852.103
11/15/2013  20:01:00      -56.947       81.001       -5.551       30.473       38.536       20.932      928.620     1484.988      438.141        0.634        0.143       99.015       22.180        0.050      335.685        6.483      852.048
11/15/2013  20:02:00      -19.470       95.765      -13.702       29.347       47.794       19.812      861.255     2284.231      392.500        0.664        0.177       97.724       22.923        0.055      335.702        6.513      851.998
11/15/2013  20:03:00      -23.645       42.003        0.458       29.794       21.903       14.527      887.683      479.730      211.047        0.195        0.079       48.201       10.905        0.051      335.760        6.609      851.962
11/15/2013  20:04:00      -12.082       42.110        4.144       24.958       26.982       15.814      622.918      728.042      250.090        0.177        0.080       43.809       11.563        0.070      335.700        6.508      851.937
11/15/2013  20:05:00      -11.770       32.719        4.662       12.397       23.900       13.240      153.685      571.191      175.295        0.107        0.045       34.771       15.086        0.188      335.736        6.569      851.908
11/15/2013  20:06:00        2.677       31.575       -0.224       15.599       22.916       11.249      243.339      525.165      126.543        0.095        0.045       31.689       11.028        0.121      335.618        6.372      851.895
11/15/2013  20:07:00      -29.792       71.247       -9.355       29.400       31.479       12.460      864.389      990.911      155.256        0.403        0.101       77.225       12.204        0.025      335.663        6.446      851.914
11/15/2013  20:08:00      -79.716       -0.797      -13.932       21.472       27.255       12.665      461.067      742.819      160.406        0.396        0.068       79.720        8.845        0.012      335.733        6.565      851.921
11/15/2013  20:09:00     -108.295      -39.237      -12.322       27.354       27.163       15.253      748.244      737.808      232.644        0.757        0.086      115.184       15.488        0.018      335.737        6.571      851.929
11/15/2013  20:10:00      -81.784      -47.545       -0.661       36.153       31.760       22.813     1307.016     1008.718      520.424        0.589        0.142       94.600       19.489        0.042      335.764        6.614      851.906
11/15/2013  20:11:00      -96.620      -41.633       -2.570       51.593       24.826       24.581     2661.843      616.308      604.231        0.748        0.194      105.208       25.723        0.060      335.729        6.559      851.856
11/15/2013  20:12:00      -12.675      -17.300       15.502       40.018       28.377       18.993     1601.405      805.276      360.740        0.173        0.138       21.447       25.065        1.366      335.758        6.607      851.828
11/15/2013  20:13:00       13.182      -16.858       17.153       25.488       28.754       18.202      649.635      826.782      331.297        0.128        0.090       21.400       18.229        0.726      335.798        6.672      851.811
11/15/2013  20:14:00       11.667      -20.758       14.321       19.028       27.659       18.493      362.047      764.995      342.007        0.112        0.073       23.812       11.666        0.240      335.778        6.640      851.790
11/15/2013  20:15:00       -0.282      -49.050       -3.505       17.979       19.269       15.847      323.240      371.299      251.132        0.168        0.047       49.051        8.706        0.031      335.822        6.713      851.795
11/15/2013  20:16:00      -31.730      -22.142       -0.728       23.603       11.117       12.215      557.124      123.595      149.203        0.116        0.041       38.691       12.626        0.106      335.762        6.610      851.850
11/15/2013  20:17:00      -69.600      -25.589       -9.437       12.508       16.432       11.882      156.453      270.014      141.174        0.308        0.028       74.155        8.576        0.013      335.734        6.566      851.948
11/15/2013  20:18:00      -77.293      -44.578       -2.162       37.117       21.352       25.703     1377.635      455.919      660.636        0.523        0.125       89.227       19.499        0.048      335.707        6.521      852.008
11/15/2013  20:19:00      -22.349      -40.932       10.044       48.732       19.276       20.522     2374.811      371.560      421.152        0.272        0.158       46.636       25.922        0.309      335.777        6.637      851.998
11/15/2013  20:20:00      -54.036      -42.177       -3.145       27.601       20.792       15.131      761.808      432.312      228.956        0.307        0.071       68.548       10.964        0.026      335.711        6.527      851.976
11/15/2013  20:21:00      -64.742      -81.448        0.022       36.792       31.128       20.825     1353.631      968.942      433.688        0.679        0.138      104.045       19.531        0.035      335.694        6.499      851.974
11/15/2013  20:22:00      -92.502      -60.370       -0.549       34.882       26.429       20.223     1216.763      698.474      408.968        0.726        0.116      110.458       13.293        0.014      335.724        6.549      851.969
11/15/2013  20:23:00      -54.945      -41.293       -0.048       48.316       30.613       21.295     2334.412      937.133      453.475        0.422        0.186       68.732       22.186        0.104      335.651        6.428      851.943
11/15/2013  20:24:00     -142.332      -78.611       -9.740       33.482       38.976       17.548     1121.024     1519.116      307.928        1.474        0.147      162.598       13.335        0.007      335.659        6.441      851.920
11/15/2013  20:25:00     -139.775       -2.574       -4.085       61.428       43.986       23.760     3773.343     1934.745      564.544        1.292        0.314      139.799       25.220        0.033      335.571        6.295      851.890
11/15/2013  20:26:00     -124.234      -51.158       -1.508       56.534       39.345       26.422     3196.067     1547.999      698.139        1.175        0.272      134.354       20.352        0.023      335.503        6.182      851.890
11/15/2013  20:27:00     -129.995      -62.104       -7.965       35.710       31.217       18.588     1275.232      974.513      345.500        1.171        0.130      144.068        9.713        0.005      335.494        6.165      851.925
11/15/2013  20:28:00      -87.874      -12.608       -7.431       28.946       24.173       18.224      837.893      584.333      332.117        0.484        0.088       88.774       15.764        0.032      335.456        6.100      851.964
11/15/2013  20:29:00     -100.508       11.511      -11.318       28.963       23.038       13.180      838.884      530.756      173.701        0.595        0.077      101.165       10.734        0.011      335.414        6.031      851.976
11/15/2013  20:30:00      -34.664      -16.960        0.234       22.915       12.063        7.802      525.078      145.527       60.875        0.111        0.037       38.591        7.856        0.041      335.415        6.032      851.964
11/15/2013  20:31:00       26.186       29.149       19.859       22.752       21.734       20.257      517.669      472.353      410.366        0.166        0.070       39.183       17.989        0.211      335.363        5.945      851.960
11/15/2013  20:32:00       65.322       24.033        4.626       28.140       26.137       25.768      791.857      683.141      664.007        0.350        0.107       69.603       10.362        0.022      335.379        5.972      851.994
11/15/2013  20:33:00       -5.591       17.601       15.139       12.899       12.579       11.782      166.384      158.220      138.808        0.052        0.023       18.468        9.692        0.275      335.290        5.825      852.073
11/15/2013  20:34:00      -11.364       11.766       -0.201        9.449        7.846        5.274       89.275       61.556       27.813        0.022        0.009       16.358        3.571        0.048      335.314        5.864      852.152
11/15/2013  20:35:00      -54.006        6.097       -4.571       29.964        8.803        7.720      897.834       77.489       59.602        0.200        0.052       54.349        8.624        0.025      335.421        6.044      852.175
11/15/2013  20:36:00      -86.229       -1.341       -6.637       24.147       19.549        9.544      583.056      382.175       91.093        0.427        0.053       86.239        9.805        0.013      335.460        6.107      852.184
11/15/2013  20:37:00     -128.394      -38.907       -9.327       33.125       28.874       17.128     1097.286      833.714      293.362        1.015        0.111      134.160       17.349        0.017      335.425        6.049      852.192
11/15/2013  20:38:00     -100.689      -28.588       -8.292       40.020       28.805       20.741     1601.598      829.706      430.178        0.694        0.143      104.669       21.388        0.042      335.366        5.951      852.186
11/15/2013  20:39:00       -0.343      -27.035       15.178       29.195       31.614       19.704      852.321      999.469      388.249        0.160        0.112       27.037       13.799        0.260      335.393        5.995      852.169
11/15/2013  20:40:00      -49.717      -64.049        2.333       28.904       28.162       15.688      835.428      793.081      246.104        0.423        0.094       81.080       16.492        0.041      335.457        6.103      852.184
11/15/2013  20:41:00      -83.022      -89.663       -0.817       33.352       38.183       24.137     1112.344     1457.929      582.604        0.904        0.158      122.197       20.519        0.028      335.458        6.105      852.201
11/15/2013  20:42:00      -49.384      -70.560        3.458       29.347       24.095       22.399      861.218      580.578      501.726        0.469        0.097       86.124       21.827        0.064      335.492        6.162      852.204
11/15/2013  20:43:00      -69.045      -44.843       -6.758       16.838       26.993       14.635      283.525      728.637      214.184        0.402        0.061       82.330       13.793        0.028      335.528        6.219      852.217
11/15/2013  20:44:00      -72.339      -48.815       -4.752       17.232       17.778       11.651      296.928      316.058      135.752        0.419        0.037       87.269        4.912        0.003      335.544        6.246      852.251
11/15/2013  20:45:00     -102.033      -45.852       -7.833       26.722       18.907       11.491      714.059      357.462      132.049        0.689        0.060      111.862        7.083        0.004      335.564        6.282      852.286
11/15/2013  20:46:00     -104.693      -18.071       -8.916       30.568       16.800       14.782      934.415      282.235      218.518        0.640        0.072      106.241       15.759        0.022      335.437        6.071      852.283
11/15/2013  20:47:00      -83.188      -46.687        4.071       44.746       32.672       20.792     2002.196     1067.437      432.324        0.631        0.175       95.393       21.193        0.049      335.441        6.075      852.224
11/15/2013  20:48:00     -109.735      -18.109        2.134       58.032       44.804       27.215     3367.707     2007.380      740.636        0.924        0.306      111.219       26.978        0.059      335.155        5.601      852.190
11/15/2013  20:49:00     -111.852      -59.643      -11.824       44.135       34.675       21.673     1947.901     1202.388      469.725        0.991        0.181      126.760       17.765        0.020      335.231        5.726      852.207
11/15/2013  20:50:00      -58.419      -43.882       -1.736       38.754       41.620       18.521     1501.884     1732.225      343.025        0.446        0.179       73.064       16.922        0.054      335.286        5.817      852.196
11/15/2013  20:51:00      -35.341      -80.135        2.834       39.497       40.676       23.135     1560.005     1654.499      535.210        0.571        0.187       87.582       20.421        0.054      335.396        6.002      852.149
11/15/2013  20:52:00      -25.210      -61.110        1.919       29.556       28.425       20.226      873.586      807.993      409.096        0.323        0.105       66.106       17.956        0.074      335.450        6.091      852.098
11/15/2013  20:53:00       19.862        1.570       13.745       20.304       18.080       24.883      412.249      326.868      619.143        0.097        0.068       19.924       13.917        0.488      335.400        6.008      852.053
11/15/2013  20:54:00        1.334        4.924        8.126       23.170        8.827       16.191      536.837       77.920      262.150        0.048        0.044        5.101       12.604        6.105      335.339        5.907      852.017
11/15/2013  20:55:00      -24.289        4.750        9.245       23.210       17.824       11.025      538.708      317.710      121.549        0.084        0.049       24.749       10.027        0.164      335.322        5.878      851.998
11/15/2013  20:56:00      -52.803      -56.085        1.693       35.882       26.526       16.825     1287.489      703.616      283.092        0.410        0.114       77.030       16.814        0.048      335.428        6.055      851.999
11/15/2013  20:57:00      -36.299      -53.247        8.855       42.347       25.770       20.350     1793.298      664.081      414.142        0.355        0.144       64.442       19.568        0.092      335.377        5.969      851.983
11/15/2013  20:58:00      -57.375      -83.462       -9.901       34.784       28.231       19.023     1209.922      796.961      361.868        0.636        0.118      101.281       17.744        0.031      335.407        6.020      851.935
11/15/2013  20:59:00      -75.793      -52.622       -5.182       23.867       20.138       15.052      569.655      405.556      226.578        0.487        0.060       92.270       11.298        0.015      335.432        6.061      851.884
11/15/2013  21:00:00      -83.420      -44.370       -3.647       31.581       25.629       15.955      997.370      656.835      254.561        0.542        0.095       94.486       14.574        0.024      335.473        6.129      851.887
11/15/2013  21:01:00      -76.756      -23.788        0.029       29.708       18.695       13.282      882.580      349.507      176.414        0.393        0.070       80.358        6.144        0.006      335.413        6.031      851.927
11/15/2013  21:02:00      -49.453      -39.373        1.441       25.300       22.755       18.039      640.080      517.784      325.401        0.274        0.074       63.213       13.961        0.049      335.429        6.056      851.930
11/15/2013  21:03:00      -38.599        0.080        5.701       20.516       15.595       13.698      420.910      243.200      187.639        0.119        0.043       38.599       11.668        0.091      335.276        5.802      851.912
11/15/2013  21:04:00      -12.124        2.861        2.221       22.613        6.086        6.426      511.347       37.038       41.288        0.037        0.029       12.457        5.342        0.184      335.238        5.737      851.910
11/15/2013  21:05:00       -4.182       32.279        8.317        8.943       12.233       11.032       79.970      149.657      121.714        0.074        0.018       32.549        4.038        0.015      335.207        5.686      851.963
11/15/2013  21:06:00       21.135       68.718      -13.389        9.833       17.662       10.701       96.682      311.961      114.512        0.294        0.026       71.895       10.716        0.022      335.160        5.607      852.045
11/15/2013  21:07:00        4.437       82.973      -13.502        7.024       12.694        7.728       49.343      161.148       59.726        0.368        0.014       83.092        4.185        0.003      335.177        5.637      852.067
11/15/2013  21:08:00      -16.088       67.240      -16.525       13.287       16.789        7.092      176.554      281.883       50.294        0.278        0.025       69.138        7.506        0.012      335.311        5.858      852.072
11/15/2013  21:09:00      -20.017       12.697       -4.929       10.461       15.523        5.958      109.437      240.973       35.499        0.049        0.019       23.704        3.482        0.022      335.363        5.947      852.098
11/15/2013  21:10:00      -56.284       -7.408       -5.304       13.818       11.899        7.597      190.945      141.583       57.721        0.182        0.020       56.769        4.708        0.007      335.163        5.615      852.103
11/15/2013  21:11:00      -63.444      -14.744       -1.262       28.556       17.953       11.989      815.436      322.301      143.738        0.276        0.064       65.135       10.909        0.028      334.979        5.308      852.089
11/15/2013  21:12:00      -53.559      -26.189        0.126       24.821       24.645       19.401      616.074      607.393      376.404        0.258        0.080       59.619       13.331        0.050      334.910        5.195      852.075
11/15/2013  21:13:00      -82.547       -0.301       -4.456       26.949       29.830       18.512      726.233      889.826      342.706        0.440        0.098       82.547       14.010        0.029      334.914        5.203      852.077
11/15/2013  21:14:00     -105.953       -6.203      -10.434       29.862       19.087       17.110      891.727      364.329      292.737        0.646        0.077      106.135       16.118        0.023      334.835        5.071      852.078
11/15/2013  21:15:00     -103.877      -23.071       -4.296       24.037       16.983       14.951      577.787      288.439      223.537        0.622        0.054      106.408       13.306        0.016      334.830        5.061      852.073
11/15/2013  21:16:00      -80.067      -26.087       -2.125       41.272       21.974       17.684     1703.378      482.839      312.741        0.480        0.125       84.210       22.056        0.069      334.797        5.008      852.032
11/15/2013  21:17:00      -88.526      -18.723       -3.451       26.991       26.516       17.624      728.541      703.085      310.617        0.497        0.087       90.484       16.412        0.033      334.864        5.117      851.994
11/15/2013  21:18:00     -103.693      -24.469       -4.539       28.150       23.765       15.082      792.446      564.753      227.478        0.648        0.079      106.541       16.101        0.023      334.902        5.180      851.985
11/15/2013  21:19:00      -94.738      -34.062        3.429       36.552       29.170       18.738     1336.060      850.897      351.118        0.634        0.127      100.675       16.859        0.028      334.876        5.138      851.988
11/15/2013  21:20:00      -78.597      -16.475       -3.628       37.881       21.599       17.167     1434.974      466.502      294.696        0.433        0.110       80.306       19.396        0.058      334.876        5.138      851.975
11/15/2013  21:21:00      -90.722       -9.209       -7.823       31.996       22.967       16.264     1023.743      527.495      264.529        0.510        0.091       91.188       15.552        0.029      334.823        5.050      851.932
11/15/2013  21:22:00      -61.215       15.023       -2.951       32.120       22.537       14.096     1031.698      507.932      198.686        0.286        0.087       63.032       10.803        0.029      334.802        5.016      851.862
11/15/2013  21:23:00      -57.318       23.821       -6.522       24.700       23.184       20.306      610.101      537.488      412.313        0.273        0.078       62.071       15.052        0.059      334.971        5.297      851.774
11/15/2013  21:24:00      -68.505       27.848      -13.214       23.112       21.807       15.534      534.165      475.555      241.297        0.345        0.063       73.949        9.151        0.015      334.813        5.032      851.742
11/15/2013  21:25:00     -123.694      -30.689      -12.707       49.169       26.274       16.768     2417.564      690.323      281.165        0.990        0.169      127.444       12.854        0.010      334.737        4.905      851.761
11/15/2013  21:26:00     -152.093      -26.418      -11.314       50.813       36.157       26.721     2581.955     1307.354      714.027        1.428        0.230      154.370       28.290        0.034      334.495        4.504      851.810
11/15/2013  21:27:00     -132.786      -19.687      -18.094       30.813       33.117       18.831      949.448     1096.708      354.594        1.037        0.120      134.237       15.202        0.013      334.451        4.432      851.862
11/15/2013  21:28:00      -28.931      -14.981        5.640       26.785       15.514       17.240      717.427      240.696      297.234        0.117        0.063       32.580       16.568        0.259      334.517        4.542      851.898
11/15/2013  21:29:00       -3.555      -20.463       -2.996       17.670       17.112       10.227      312.242      292.821      104.588        0.057        0.035       20.770        2.816        0.018      334.908        5.191      851.898
11/15/2013  21:30:00       22.085      -46.841      -11.908       21.523       26.115       11.492      463.226      681.977      132.069        0.205        0.064       51.787       14.584        0.079      334.916        5.206      851.913
11/15/2013  21:31:00     -106.920      -40.955        1.934       26.936       25.519       14.506      725.557      651.206      210.432        0.735        0.079      114.496        9.878        0.007      334.923        5.215      851.931
11/15/2013  21:32:00     -111.128      -39.477       -1.137       40.095       37.071       20.613     1607.630     1374.264      424.899        0.866        0.170      117.932       15.835        0.018      334.641        4.748      851.940
11/15/2013  21:33:00     -100.881      -19.665       -0.189       49.924       38.450       32.115     2492.425     1478.416     1031.383        0.778        0.250      102.779       30.035        0.085      334.528        4.559      851.941
11/15/2013  21:34:00     -140.361       25.232      -15.764       54.137       34.442       23.490     2930.806     1186.282      551.769        1.263        0.233      142.611       21.696        0.023      334.427        4.391      851.937
11/15/2013  21:35:00      -84.794       40.286      -12.411       36.519       26.494       23.769     1333.629      701.929      564.952        0.578        0.130       93.878       25.053        0.071      334.526        4.557      851.952
11/15/2013  21:36:00      -40.715        5.574       -6.604       19.477       14.586        9.851      379.363      212.752       97.047        0.121        0.034       41.095        9.473        0.053      334.568        4.626      851.970
11/15/2013  21:37:00      -30.312      -25.860      -11.399       16.108       11.886        9.739      259.470      141.268       94.840        0.111        0.025       39.844        6.547        0.027      334.739        4.911      851.989
11/15/2013  21:38:00      -24.880      -32.408       -8.555       14.813       13.637       16.526      219.430      185.968      273.107        0.121        0.034       40.857       14.279        0.122      334.936        5.237      852.019
11/15/2013  21:39:00      -67.958      -26.397        0.688       34.802       17.947       12.749     1211.205      322.098      162.530        0.351        0.085       72.904       16.792        0.053      334.671        4.797      852.030
11/15/2013  21:40:00     -100.121      -23.451      -12.576       14.265       18.684       12.633      203.502      349.095      159.596        0.572        0.036      102.831        7.681        0.006      334.529        4.561      852.037
11/15/2013  21:41:00      -29.853       -3.618        2.912       23.203       15.868       11.281      538.375      251.797      127.255        0.091        0.046       30.071       11.777        0.153      334.488        4.493      851.995
11/15/2013  21:42:00      -60.624        1.488       -8.116       35.918       17.533       13.808     1290.090      307.407      190.650        0.277        0.089       60.643       15.327        0.064      334.484        4.486      851.950
11/15/2013  21:43:00     -161.758      -60.688      -12.229       37.396       40.901       16.533     1398.442     1672.877      273.331        1.667        0.167      172.768       11.440        0.004      334.399        4.346      851.945
11/15/2013  21:44:00     -144.600      -41.710      -17.305       31.391       42.610       20.926      985.424     1815.643      437.880        1.309        0.162      150.495       16.082        0.011      334.333        4.236      851.918
11/15/2013  21:45:00      -21.673       -2.680       -9.022       25.831       17.214       16.385      667.232      296.320      268.458        0.089        0.062       21.838       16.268        0.555      334.326        4.226      851.855
11/15/2013  21:46:00       33.215       17.725        5.104       15.162       13.861       17.146      229.894      192.116      293.997        0.108        0.036       37.649        5.754        0.023      334.531        4.566      851.791
11/15/2013  21:47:00       14.588       22.920       23.608       14.564       18.326       11.449      212.099      335.853      131.072        0.099        0.034       27.169        8.184        0.091      334.579        4.645      851.757
11/15/2013  21:48:00      -38.398        4.990       -1.910       24.599       11.631        9.467      605.101      135.278       89.617        0.117        0.041       38.721        7.380        0.036      334.621        4.714      851.773
11/15/2013  21:49:00     -118.267       -1.242      -14.156       24.512       19.922       14.536      600.843      396.891      211.282        0.770        0.060      118.274        7.603        0.004      334.480        4.480      851.809
11/15/2013  21:50:00     -125.230       -0.085      -14.357       36.677       31.747       21.256     1345.193     1007.897      451.806        0.935        0.140      125.230       21.533        0.030      334.286        4.160      851.789
11/15/2013  21:51:00      -70.630        9.090       -2.290       39.810       27.843       20.059     1584.829      775.241      402.351        0.392        0.138       71.213       15.918        0.050      334.280        4.149      851.733
11/15/2013  21:52:00      -16.188       -9.253       -4.047       16.909       22.902       12.486      285.911      524.487      155.906        0.066        0.048       18.646        8.050        0.186      334.441        4.418      851.659
11/15/2013  21:53:00      -10.205      -10.429        9.637       17.894       15.826       14.591      320.192      250.469      212.909        0.054        0.039       14.591       11.498        0.621      334.474        4.470      851.607
11/15/2013  21:54:00      -35.326      -26.934       -7.442       13.952       11.826        8.259      194.646      139.844       68.207        0.122        0.020       44.423        7.075        0.025      334.378        4.313      851.562
11/15/2013  21:55:00      -14.711      -24.478       -1.198       18.545        9.006        7.722      343.933       81.101       59.625        0.065        0.024       28.558        6.088        0.045      334.457        4.442      851.490
11/15/2013  21:56:00       -0.197       -2.255       16.399        7.459       20.375       14.182       55.644      415.127      201.138        0.047        0.034        2.264       15.356       46.025      334.629        4.729      851.408
11/15/2013  21:57:00        9.847       60.761       62.702       17.488       24.234       17.449      305.842      587.288      304.458        0.446        0.060       61.554       16.164        0.069      334.530        4.563      851.334
11/15/2013  21:58:00       -4.821       49.767       59.158       16.618       50.362       36.308      276.162     2536.317     1318.295        0.506        0.207       50.000       39.265        0.617      334.637        4.740      851.272
11/15/2013  21:59:00      -18.708       -5.243        1.428       35.883       23.045       16.396     1287.594      531.086      268.827        0.123        0.104       19.429       13.745        0.500      334.694        4.836      851.262
11/15/2013  22:00:00      -70.071       -5.069       -3.400       24.945       31.412       12.420      622.244      986.702      154.263        0.335        0.088       70.254       11.800        0.028      334.597        4.674      851.283
11/15/2013  22:01:00      -49.917      -11.734       -0.469       21.469       18.299       16.197      460.920      334.839      262.334        0.184        0.053       51.278       11.112        0.047      334.479        4.479      851.315
11/15/2013  22:02:00      -60.041      -21.554        7.023       27.642       31.602       17.184      764.087      998.688      295.283        0.309        0.103       63.792       16.101        0.064      334.610        4.697      851.338
11/15/2013  22:03:00      -67.856      -23.423        5.074       30.558       22.327       15.515      933.803      498.494      240.720        0.343        0.084       71.785       14.377        0.040      334.639        4.744      851.347
11/15/2013  22:04:00      -76.998      -35.545        3.759       40.489       31.284       21.519     1639.321      978.689      463.066        0.514        0.154       84.807       21.908        0.067      334.577        4.640      851.364
11/15/2013  22:05:00     -128.688      -20.665       -9.178       23.738       30.852       19.174      563.514      951.856      367.651        0.948        0.094      130.337        9.584        0.005      334.502        4.517      851.390
11/15/2013  22:06:00     -109.821        7.134       -5.108       47.894       30.691       27.950     2293.831      941.966      781.222        0.808        0.201      110.053       28.899        0.069      334.340        4.249      851.401
11/15/2013  22:07:00     -131.386        5.108      -13.935       44.952       30.496       25.958     2020.661      930.010      673.823        1.055        0.181      131.485       22.602        0.030      334.246        4.092      851.400
11/15/2013  22:08:00     -147.567       -3.866       -7.218       54.765       38.183       27.723     2999.226     1457.958      768.540        1.353        0.261      147.617       29.297        0.039      334.172        3.967      851.422
11/15/2013  22:09:00     -161.760       -1.020      -11.613       37.200       31.341       20.683     1383.843      982.262      427.802        1.455        0.140      161.763       17.955        0.012      334.125        3.891      851.438
11/15/2013  22:10:00      -65.136       -3.313       -4.940       48.936       57.074       27.606     2394.748     3257.442      762.107        0.534        0.321       65.221       25.553        0.153      334.106        3.860      851.442
11/15/2013  22:11:00     -101.349        3.068       -9.454       45.779       27.542       19.666     2095.684      758.547      386.760        0.681        0.162      101.396       19.424        0.037      334.170        3.964      851.456
11/15/2013  22:12:00      -88.095       -0.023       -1.695       43.968       23.425       18.433     1933.211      548.720      339.757        0.529        0.141       88.095       20.631        0.055      334.177        3.977      851.453
11/15/2013  22:13:00      -68.555       14.191       -0.902       29.997       20.096       18.365      899.796      403.835      337.275        0.327        0.082       70.009       15.389        0.048      334.196        4.010      851.453
11/15/2013  22:14:00      -72.053      -12.293       -4.965       37.100       27.677       25.259     1376.374      766.029      638.031        0.407        0.139       73.095       18.551        0.064      334.187        3.994      851.457
11/15/2013  22:15:00      -74.287       -3.852        5.971       50.559       32.554       20.721     2556.261     1059.739      429.374        0.481        0.202       74.386       23.571        0.100      334.156        3.943      851.466
11/15/2013  22:16:00      -36.232       12.435        6.871       48.660       17.631       21.343     2367.807      310.845      455.528        0.232        0.157       38.306       26.975        0.496      334.158        3.945      851.484
11/15/2013  22:17:00        1.325      112.479      -10.842       21.512       44.834       13.819      462.766     2010.076      190.978        0.772        0.133      112.487       14.255        0.016      334.268        4.129      851.508
11/15/2013  22:18:00      -13.325      118.541      -13.758        9.079       18.412        6.277       82.432      339.000       39.400        0.744        0.023      119.288        5.263        0.002      334.249        4.098      851.529
11/15/2013  22:19:00      -11.225       73.047        1.062       23.078       29.892       13.800      532.572      893.534      190.442        0.354        0.081       73.905        9.652        0.017      334.291        4.167      851.525
11/15/2013  22:20:00      -15.330       41.334       -4.842       22.898       23.974        9.759      524.335      574.752       95.244        0.158        0.060       44.085        6.308        0.020      334.484        4.488      851.493
11/15/2013  22:21:00      -17.358       49.044       -0.234       22.838       36.672       17.122      521.571     1344.866      293.149        0.243        0.108       52.025       14.157        0.074      334.627        4.724      851.479
11/15/2013  22:22:00      -19.882       37.682       -4.301       31.528       23.288       15.436      994.030      542.349      238.283        0.180        0.089       42.605       15.843        0.138      334.530        4.564      851.512
11/15/2013  22:23:00      -51.596       33.200      -13.690       33.945       26.962       18.856     1152.272      726.951      355.533        0.309        0.112       61.355       15.595        0.065      334.586        4.656      851.539
11/15/2013  22:24:00      -63.893       13.614      -12.687       17.209       16.057        8.276      296.160      257.841       68.495        0.253        0.031       65.328        4.391        0.005      334.223        4.054      851.558
11/15/2013  22:25:00      -23.543       -3.175       -8.648       14.305       17.506       11.118      204.630      306.465      123.614        0.064        0.032       23.756        7.272        0.094      334.288        4.163      851.545
11/15/2013  22:26:00       -6.538        0.694       -2.517        6.332        8.922        5.448       40.095       79.600       29.679        0.010        0.007        6.575        4.533        0.475      334.440        4.415      851.536
11/15/2013  22:27:00       20.989       14.606       12.331       21.901       24.009       15.027      479.644      576.430      225.821        0.104        0.064       25.571       14.823        0.336      334.716        4.872      851.536
11/15/2013  22:28:00      -30.443       -8.870       -6.344       17.018        8.894        7.815      289.606       79.105       61.074        0.074        0.021       31.709        5.245        0.027      334.588        4.660      851.559
11/15/2013  22:29:00      -26.789       -2.207       -7.810       20.521       16.120        6.828      421.094      259.844       46.617        0.076        0.036       26.880        7.481        0.077      334.525        4.554      851.573
11/15/2013  22:30:00       45.382       21.211        9.579       28.210       10.987        9.570      795.826      120.719       91.588        0.180        0.050       50.094        6.518        0.017      334.641        4.748      851.561
11/15/2013  22:31:00       38.182       29.091       22.524       32.116       15.129       15.273     1031.459      228.897      233.279        0.215        0.075       48.001       14.374        0.090      334.707        4.857      851.568
11/15/2013  22:32:00       -3.803       25.779       33.813       19.619       15.814       17.977      384.902      250.093      323.157        0.139        0.048       26.058       16.279        0.390      334.591        4.665      851.603
11/15/2013  22:33:00      -13.492       -9.339       10.691       13.788       21.047        8.911      190.102      442.990       79.400        0.055        0.036       16.409       11.002        0.450      334.568        4.625      851.623
11/15/2013  22:34:00      -48.293        1.767       -5.221        9.129       17.416       10.391       83.345      303.322      107.963        0.143        0.025       48.325        7.107        0.022      334.284        4.156      851.628
11/15/2013  22:35:00      -65.660        1.719       -6.434       23.217       14.683       12.918      539.051      215.602      166.875        0.264        0.046       65.682       10.505        0.026      334.205        4.024      851.642
11/15/2013  22:36:00      -38.665       14.746        3.308       42.250       13.878       17.533     1785.080      192.596      307.390        0.200        0.114       41.382       23.212        0.315      334.192        4.002      851.687
11/15/2013  22:37:00       86.076       68.483       24.551       54.880       29.377       18.493     3011.855      862.994      341.993        0.846        0.211      109.996       20.153        0.034      334.418        4.379      851.704
11/15/2013  22:38:00      124.544       48.962        8.119       54.969       30.321       28.493     3021.539      919.373      811.836        1.136        0.238      133.823       15.611        0.014      334.573        4.634      851.733
11/15/2013  22:39:00      -27.540       15.665       11.600       42.715       25.381       20.698     1824.548      644.187      428.411        0.202        0.145       31.683       22.659        0.511      334.394        4.339      851.829
11/15/2013  22:40:00      -75.029      -13.151       -5.802       30.676       24.046       17.706      941.036      578.231      313.507        0.383        0.092       76.172       15.135        0.039      334.288        4.163      851.877
11/15/2013  22:41:00      -81.711      -25.745       -9.104       34.149       27.496       17.396     1166.161      756.041      302.625        0.482        0.111       85.671       11.146        0.017      334.298        4.178      851.879
11/15/2013  22:42:00      -23.074       -2.295      -10.662       19.380       13.220        7.535      375.567      174.770       56.771        0.063        0.030       23.188        7.276        0.098      334.384        4.322      851.847
11/15/2013  22:43:00       -7.749       13.576       16.542        8.396       16.733       14.322       70.496      279.992      205.113        0.054        0.028       15.631        8.805        0.317      334.424        4.390      851.824
11/15/2013  22:44:00       28.079       31.632       11.158       14.197       13.491       13.721      201.547      182.019      188.263        0.124        0.029       42.297       11.162        0.070      334.419        4.380      851.832
11/15/2013  22:45:00       22.556       87.083      -15.624       17.493       25.525       12.112      306.017      651.502      146.699        0.472        0.055       89.957       13.252        0.022      334.516        4.540      851.847
11/15/2013  22:46:00       -8.739      121.826      -20.344       15.900       22.039        9.875      252.822      485.738       97.516        0.808        0.042      122.139        7.045        0.003      334.574        4.636      851.861
11/15/2013  22:47:00      -47.534        2.148        3.301       20.700       26.844       15.240      428.478      720.612      232.244        0.183        0.069       47.582       12.050        0.064      334.495        4.505      851.872
11/15/2013  22:48:00     -100.111      -39.610      -12.030       32.162       19.394       13.281     1034.370      376.135      176.385        0.666        0.079      107.662        5.446        0.003      334.330        4.232      851.854
11/15/2013  22:49:00     -107.292      -46.431      -15.197       25.481       27.713       12.643      649.271      767.985      159.850        0.774        0.079      116.908        7.756        0.004      334.250        4.099      851.835
11/15/2013  22:50:00      -65.438      -15.321       -6.083       18.381        9.686        8.250      337.855       93.822       68.068        0.253        0.025       67.208        7.965        0.014      334.230        4.066      851.814
11/15/2013  22:51:00      -24.600       -1.545       -6.114       18.001        7.421        8.670      324.049       55.073       75.161        0.055        0.023       24.649        8.314        0.114      334.279        4.147      851.786
11/15/2013  22:52:00       38.544       20.356        3.829       25.009       16.722       13.684      625.429      279.623      187.251        0.150        0.055       43.589        5.788        0.018      334.493        4.503      851.754
11/15/2013  22:53:00       23.934       62.179       -0.643       45.408       29.312       24.294     2061.848      859.181      590.196        0.397        0.176       66.627       18.675        0.079      334.492        4.500      851.742
11/15/2013  22:54:00       20.402      103.856      -19.969       20.911       40.102       19.572      437.278     1608.186      383.061        0.701        0.121      105.841       23.672        0.050      334.514        4.537      851.743
11/15/2013  22:55:00      -31.809      115.891      -15.587       20.984       45.239       16.547      440.319     2046.593      273.803        0.872        0.138      120.177       22.977        0.037      334.637        4.739      851.779
11/15/2013  22:56:00      -77.513       41.642      -10.807       17.348       32.948       17.557      300.970     1085.556      308.235        0.478        0.085       87.990       17.706        0.040      334.465        4.457      851.822
11/15/2013  22:57:00      -65.432       75.299      -12.972       30.867       41.663       22.682      952.749     1735.821      514.460        0.666        0.160       99.756       21.669        0.047      334.452        4.435      851.865
11/15/2013  22:58:00      -52.599      136.487      -13.762       24.192       30.902       20.838      585.258      954.948      434.210        1.178        0.099      146.272       17.796        0.015      334.865        5.120      851.891
11/15/2013  22:59:00        1.000      150.469      -23.203       24.822       21.210       16.805      616.110      449.862      282.415        1.226        0.067      150.472       10.271        0.005      334.804        5.017      851.886
11/15/2013  23:00:00       16.345      119.655      -16.491       17.550       20.635       12.826      308.003      425.793      164.509        0.788        0.045      120.766        8.913        0.005      334.699        4.843      851.865
11/15/2013  23:01:00       12.171       95.591      -11.401       21.234       30.486       18.268      450.892      929.377      333.724        0.556        0.086       96.362       18.126        0.035      334.644        4.752      851.843
11/15/2013  23:02:00       15.842       75.546       -6.269       16.546       23.991       17.099      273.760      575.565      292.363        0.357        0.057       77.190       14.041        0.033      334.589        4.662      851.812
11/15/2013  23:03:00       35.879       29.193       -2.889       16.931       17.574       12.112      286.645      308.844      146.696        0.144        0.037       46.255       11.894        0.066      334.554        4.603      851.779
11/15/2013  23:04:00       12.362       32.526       -4.677       18.886       17.549       11.872      356.683      307.960      140.956        0.102        0.040       34.796       12.494        0.129      334.578        4.643      851.789
11/15/2013  23:05:00      -50.748       11.976       -7.318       24.712       29.109       14.165      610.700      847.348      200.658        0.222        0.083       52.142        9.783        0.035      334.565        4.621      851.821
11/15/2013  23:06:00      -62.790       -2.507       -4.064       37.945       22.649       16.710     1439.842      512.998      279.212        0.310        0.112       62.840       13.680        0.047      334.328        4.229      851.856
11/15/2013  23:07:00      -58.831      -28.014        0.588       16.868       22.275       12.421      284.527      496.164      154.282        0.259        0.047       65.160        9.172        0.020      334.217        4.043      851.849
11/15/2013  23:08:00      -30.792      -30.612       -6.081       14.251        8.552        5.938      203.090       73.129       35.255        0.112        0.016       43.420        6.953        0.026      334.508        4.528      851.821
11/15/2013  23:09:00      -34.759      -41.298       -1.822       30.214       12.038       14.777      912.866      144.925      218.362        0.210        0.064       53.979       10.685        0.039      334.654        4.769      851.809
11/15/2013  23:10:00     -118.755      -29.110      -10.755       24.377       22.546       16.219      594.256      508.314      263.052        0.822        0.068      122.271       14.972        0.015      334.442        4.418      851.826
11/15/2013  23:11:00     -112.745      -19.856      -11.390       28.732       15.718       10.346      825.525      247.040      107.042        0.721        0.059      114.480       12.880        0.013      334.323        4.220      851.843
11/15/2013  23:12:00      -12.085        1.838       -5.202       24.835       13.926        8.785      616.777      193.944       77.173        0.053        0.044       12.224       12.947        1.122      334.486        4.492      851.824
11/15/2013  23:13:00       32.605       26.770       13.748       22.793       20.260       17.425      519.499      410.469      303.620        0.160        0.062       42.187       13.808        0.107      334.643        4.750      851.827
11/15/2013  23:14:00      -55.611       17.035       -5.331       39.879       13.507       13.462     1590.328      182.446      181.217        0.268        0.098       58.162       20.055        0.119      334.582        4.650      851.879
11/15/2013  23:15:00      -76.337        7.675      -14.200       41.604       25.952       17.587     1730.889      673.518      309.285        0.440        0.136       76.722       23.259        0.092      334.290        4.166      851.908
11/15/2013  23:16:00      -16.923        1.869       -1.981       21.374       15.098       11.775      456.864      227.935      138.643        0.056        0.041       17.026        9.095        0.285      334.421        4.382      851.884
11/15/2013  23:17:00       64.002       20.762       16.773       28.975       27.435       27.426      839.555      752.664      752.159        0.358        0.117       67.286       20.808        0.096      334.678        4.808      851.787
11/15/2013  23:18:00       26.976       24.378        9.497       38.469       16.641       21.007     1479.884      276.915      441.281        0.180        0.110       36.359       11.914        0.107      334.522        4.550      851.702
11/15/2013  23:19:00     -104.268        3.876      -13.145       46.001       20.430       17.982     2116.134      417.367      323.366        0.696        0.143      104.341       17.155        0.027      334.450        4.431      851.692
11/15/2013  23:20:00     -133.943       -9.516      -14.251       33.115       20.733       18.459     1096.607      429.849      340.745        1.005        0.093      134.281       15.835        0.014      334.285        4.157      851.693
11/15/2013  23:21:00      -57.734       -3.060       -8.312       38.625       26.914       11.240     1491.920      724.338      126.335        0.288        0.117       57.815        9.323        0.026      334.385        4.322      851.678
11/15/2013  23:22:00       -0.658       34.470       -9.670       23.288       21.837       15.555      542.308      476.840      241.959        0.127        0.063       34.477       13.524        0.154      334.705        4.855      851.653
11/15/2013  23:23:00       12.264       35.149       -0.875       24.994       18.936       12.733      624.699      358.559      162.138        0.127        0.057       37.227       10.835        0.085      334.670        4.795      851.636
11/15/2013  23:24:00      -59.269        0.435      -11.024       15.811       11.285        9.418      249.979      127.360       88.698        0.205        0.023       59.271        8.084        0.019      334.462        4.450      851.634
11/15/2013  23:25:00      -29.594      -21.830      -12.377       14.651        9.528        7.498      214.652       90.779       56.213        0.093        0.018       36.774        7.702        0.044      334.390        4.332      851.629
11/15/2013  23:26:00       17.770       -6.200        1.486       17.221       15.588       10.248      296.562      242.976      105.030        0.050        0.032       18.820        9.441        0.252      334.510        4.531      851.643
11/15/2013  23:27:00       51.001       18.562       13.669       32.506       22.274       23.179     1056.668      496.117      537.273        0.261        0.105       54.274       19.942        0.135      334.446        4.426      851.650
11/15/2013  23:28:00        4.173        2.357       13.417       14.346       15.451       14.414      205.805      238.730      207.758        0.043        0.033        4.792       10.100        4.442      334.399        4.348      851.656
11/15/2013  23:29:00      -39.150       -4.808       -8.098       31.683       16.065       12.142     1003.822      258.086      147.428        0.152        0.070       39.444        8.826        0.050      334.549        4.596      851.659
11/15/2013  23:30:00      -15.582      -46.173       -4.991       28.635       22.915       18.254      819.957      525.115      333.195        0.204        0.084       48.732       16.403        0.113      334.525        4.555      851.668
11/15/2013  23:31:00      -28.297      -43.867      -16.295       27.346       22.378       18.672      747.789      500.790      348.656        0.229        0.080       52.202       12.825        0.060      334.584        4.653      851.657
11/15/2013  23:32:00      -65.988      -41.621        2.390       42.859       26.590       25.053     1836.913      707.045      627.664        0.463        0.159       78.018       19.988        0.066      334.493        4.502      851.687
11/15/2013  23:33:00      -59.313      -65.981        8.164       58.495       39.134       29.539     3421.633     1531.506      872.527        0.688        0.291       88.722       25.540        0.083      334.406        4.358      851.720
11/15/2013  23:34:00      -33.832      -23.319        4.172       33.213       45.502       30.415     1103.071     2070.440      925.075        0.290        0.205       41.090       24.079        0.343      334.475        4.473      851.683
11/15/2013  23:35:00      -15.767        5.960       11.332       27.338       11.047       11.599      747.364      122.025      134.531        0.071        0.050       16.855        6.096        0.131      334.446        4.423      851.651
11/15/2013  23:36:00      -90.902      -23.522      -12.299       23.666       26.396       12.669      560.078      696.742      160.504        0.519        0.071       93.896        7.930        0.007      334.421        4.384      851.693
11/15/2013  23:37:00       -4.827      -48.478        3.597       40.622       19.063       22.566     1650.151      363.382      509.221        0.245        0.126       48.718       21.141        0.188      334.390        4.332      851.737
11/15/2013  23:38:00      -10.810      -38.168       -4.958       16.366       19.192       12.939      267.850      368.336      167.405        0.120        0.040       39.669        7.513        0.036      334.362        4.285      851.728
11/15/2013  23:39:00       15.882       10.439       18.027       45.876       29.019       26.385     2104.597      842.115      696.145        0.216        0.182       19.006       23.082        1.475      334.278        4.146      851.671
11/15/2013  23:40:00       11.347       35.387       61.664       37.177       39.514       28.160     1382.105     1561.363      792.972        0.446        0.187       37.162       22.496        0.366      334.291        4.168      851.617
11/15/2013  23:41:00      -10.811       21.301       51.925       24.415       42.073       30.666      596.092     1770.155      940.432        0.329        0.165       23.888       32.753        1.880      334.370        4.298      851.604
11/15/2013  23:42:00      -10.605      -24.573        0.357       35.861       23.151       16.251     1286.004      535.951      264.079        0.140        0.104       26.764       10.409        0.151      334.488        4.493      851.626
11/15/2013  23:43:00      -67.192      -47.581        8.583       58.066       40.310       23.046     3371.644     1624.882      531.099        0.619        0.276       82.333       23.913        0.084      334.342        4.252      851.642
11/15/2013  23:44:00      -78.161      -74.248        7.107       71.011       47.970       25.681     5042.571     2301.103      659.525        0.984        0.400      107.804       19.251        0.032      334.270        4.133      851.636
11/15/2013  23:45:00      -33.910      -47.843       -8.622       39.234       32.935       30.741     1539.295     1084.732      944.996        0.354        0.178       58.641       20.075        0.117      334.333        4.236      851.656
11/15/2013  23:46:00        9.760       21.773       13.091       46.652       32.746       26.828     2176.402     1072.319      719.760        0.235        0.198       23.860       24.953        1.094      334.279        4.147      851.637
11/15/2013  23:47:00       55.940       63.200        6.570       18.736       16.253       17.098      351.055      264.161      292.325        0.404        0.045       84.401        8.419        0.010      334.439        4.413      851.595
11/15/2013  23:48:00        9.723      -15.285       -0.482       13.151       26.657       14.042      172.947      710.591      197.177        0.070        0.054       18.115       15.226        0.706      334.371        4.301      851.593
11/15/2013  23:49:00       18.421      -46.933      -11.189       28.515       32.633       15.897      813.080     1064.903      252.714        0.240        0.107       50.419       12.809        0.065      334.523        4.553      851.572
11/15/2013  23:50:00        5.302      -36.040        5.320       25.324       53.340       26.214      641.287     2845.191      687.155        0.276        0.209       36.428       32.179        0.780      334.442        4.418      851.498
11/15/2013  23:51:00        4.749       20.872       44.252       24.894       28.018       21.833      619.719      785.015      476.664        0.215        0.094       21.405       17.069        0.636      334.289        4.164      851.437
11/15/2013  23:52:00       -9.653       13.268       18.105       21.508       19.140       15.579      462.593      366.327      242.693        0.083        0.054       16.408       10.683        0.424      334.265        4.124      851.417
11/15/2013  23:53:00      -42.035       13.208       -1.674       28.262       18.152       13.963      798.755      329.482      194.975        0.163        0.066       44.062        6.387        0.021      334.326        4.226      851.417
11/15/2013  23:54:00      -20.259      -12.237        7.138       37.540       25.037       17.728     1409.216      626.843      314.284        0.148        0.118       23.668       21.649        0.837      334.175        3.974      851.364
11/15/2013  23:55:00       50.175       29.927        6.796       19.042       17.755       16.201      362.603      315.223      262.472        0.220        0.047       58.422        8.979        0.024      334.249        4.098      851.286
11/15/2013  23:56:00      -17.766       -5.968       -6.724       50.159       20.567       18.129     2515.892      423.017      328.673        0.183        0.163       18.742       15.662        0.698      334.316        4.209      851.323
11/15/2013  23:57:00     -146.193      -58.833      -16.134       47.493       48.359       22.530     2255.552     2338.592      507.584        1.510        0.255      157.587       14.761        0.009      334.083        3.821      851.378
11/15/2013  23:58:00     -219.839     -125.628       -2.279       55.492       52.466       29.384     3079.354     2752.724      863.427        3.540        0.335      253.203       23.076        0.008      333.820        3.379      851.388
11/15/2013  23:59:00     -167.902      -62.541       -9.956       62.584       65.089       28.884     3916.819     4236.556      834.263        2.059        0.449      179.171       16.812        0.009      333.656        3.113      851.359
